[[{"header":{"parameterUnit":"m.s-1","parameterCategory":1,"la1":30.6,"la2":29.2853,"lo1":-89.7004,"lo2":-87.6739,"dy":0.0162,"dx":0.0183,"nx":112,"ny":82,"refTime":"2024-07-04T06:00:00:Z","depth":0,"parameterNumber":2,"parameterNumberName":"U-component_of_WINDS"},"data":[0.0,0.0,0.0,0.0,0.0,0.0,0.0,0.0,0.0,0.0,0.0,0.0,0.0,0.0,0.0,0.0,0.0,0.0,0.0,0.0,0.0,0.0,0.0,0.0,0.0,0.0,0.0,0.0,0.0,0.0,0.0,0.0,0.0,0.0,0.0,0.0,0.0,0.0,0.0,0.0,0.0,0.0,0.0,0.0,0.0,0.0,0.0,0.0,0.0,0.0,0.0,0.0,0.0,0.0,0.0,0.0,0.0,0.0,0.0,0.0,0.0,0.0,0.0,0.0,0.0,0.0,0.0,0.0,0.0,0.0,0.0,0.0,0.0,0.0,0.0,0.0,0.0,0.0,0.0,0.0,0.0,0.0,0.0,0.0,0.0,0.0,0.0,0.0,0.0,0.0,-2.335,-2.4276,-2.4975,-2.5332,-2.5234,-2.5193,-2.5159,-2.5119,0.0,0.0,0.0,0.0,0.0,0.0,0.0,0.0,0.0,0.0,0.0,0.0,0.0,0.0,0.0,0.0,0.0,0.0,0.0,0.0,0.0,0.0,0.0,0.0,0.0,0.0,0.0,0.0,0.0,0.0,0.0,0.0,0.0,0.0,0.0,0.0,0.0,0.0,0.0,0.0,0.0,0.0,0.0,0.0,0.0,0.0,0.0,0.0,0.0,0.0,0.0,0.0,0.0,0.0,0.0,0.0,0.0,0.0,0.0,0.0,0.0,0.0,0.0,0.0,0.0,0.0,0.0,0.0,0.0,0.0,0.0,0.0,0.0,0.0,0.0,0.0,0.0,0.0,0.0,0.0,0.0,0.0,0.0,0.0,0.0,0.0,0.0,0.0,0.0,0.0,0.0,0.0,0.0,0.0,0.0,0.0,0.0,0.0,0.0,0.0,0.0,0.0,0.0,0.0,-2.3521,-2.5047,-2.5287,-2.5317,-2.5282,-2.5179,-2.5134,-2.518,0.0,0.0,0.0,0.0,0.0,0.0,0.0,0.0,0.0,0.0,0.0,0.0,0.0,0.0,0.0,0.0,0.0,0.0,0.0,0.0,0.0,0.0,0.0,0.0,0.0,0.0,0.0,0.0,0.0,0.0,0.0,0.0,0.0,0.0,0.0,0.0,0.0,0.0,0.0,0.0,0.0,0.0,0.0,0.0,0.0,0.0,0.0,0.0,0.0,0.0,0.0,0.0,0.0,0.0,0.0,0.0,0.0,0.0,0.0,0.0,0.0,0.0,0.0,0.0,0.0,0.0,0.0,0.0,0.0,0.0,0.0,0.0,0.0,0.0,0.0,0.0,0.0,0.0,0.0,0.0,0.0,0.0,0.0,0.0,0.0,0.0,0.0,0.0,0.0,0.0,0.0,0.0,0.0,0.0,0.0,0.0,0.0,0.0,0.0,0.0,0.0,0.0,0.0,-2.411,-2.5066,-2.5367,-2.5796,-2.588,-2.5399,-2.5248,-2.5206,-2.5198,-2.3623,0.0,0.0,0.0,0.0,0.0,0.0,0.0,0.0,0.0,0.0,0.0,0.0,0.0,0.0,0.0,0.0,0.0,0.0,0.0,0.0,0.0,0.0,0.0,0.0,0.0,0.0,0.0,0.0,0.0,0.0,0.0,0.0,0.0,0.0,0.0,0.0,0.0,0.0,0.0,0.0,0.0,0.0,0.0,0.0,0.0,0.0,0.0,0.0,0.0,0.0,0.0,0.0,0.0,0.0,0.0,0.0,0.0,0.0,0.0,0.0,0.0,0.0,0.0,0.0,0.0,0.0,0.0,0.0,0.0,0.0,0.0,0.0,0.0,0.0,0.0,0.0,0.0,0.0,0.0,0.0,0.0,0.0,0.0,0.0,0.0,0.0,0.0,0.0,0.0,0.0,0.0,0.0,0.0,0.0,0.0,0.0,0.0,0.0,0.0,0.0,0.0,0.0,-2.512,-2.6369,-2.5498,-2.6189,-2.6345,-2.5475,-2.5341,-2.5182,-2.4929,-2.3529,0.0,0.0,0.0,0.0,0.0,0.0,0.0,0.0,0.0,0.0,0.0,0.0,0.0,0.0,0.0,0.0,0.0,0.0,0.0,0.0,0.0,0.0,0.0,0.0,0.0,0.0,0.0,0.0,0.0,0.0,0.0,0.0,0.0,0.0,0.0,0.0,0.0,0.0,0.0,0.0,0.0,0.0,0.0,0.0,0.0,0.0,0.0,0.0,0.0,0.0,0.0,0.0,0.0,0.0,0.0,0.0,0.0,0.0,0.0,0.0,0.0,0.0,0.0,0.0,0.0,0.0,0.0,0.0,0.0,0.0,0.0,0.0,0.0,0.0,0.0,0.0,0.0,0.0,0.0,0.0,0.0,0.0,0.0,0.0,0.0,0.0,0.0,0.0,0.0,0.0,0.0,0.0,0.0,0.0,0.0,0.0,0.0,0.0,0.0,0.0,0.0,0.0,-2.5112,-2.6369,-2.5498,-2.6176,-2.6347,-2.5475,-2.5346,-2.4955,-2.4134,-2.3203,0.0,0.0,0.0,0.0,0.0,0.0,0.0,0.0,0.0,0.0,0.0,0.0,0.0,0.0,0.0,0.0,0.0,0.0,0.0,0.0,0.0,0.0,0.0,0.0,0.0,0.0,0.0,0.0,0.0,0.0,0.0,0.0,0.0,0.0,0.0,0.0,0.0,0.0,0.0,0.0,0.0,0.0,0.0,0.0,0.0,0.0,0.0,0.0,0.0,0.0,0.0,0.0,0.0,0.0,0.0,0.0,0.0,0.0,0.0,0.0,0.0,0.0,0.0,0.0,0.0,0.0,0.0,0.0,0.0,0.0,0.0,0.0,0.0,0.0,0.0,0.0,0.0,0.0,0.0,0.0,0.0,0.0,0.0,0.0,0.0,0.0,0.0,0.0,0.0,0.0,0.0,0.0,0.0,0.0,0.0,0.0,0.0,0.0,0.0,0.0,0.0,0.0,-2.6256,-2.7183,-2.6309,-2.6996,-2.6944,-2.5517,-2.5346,-2.4923,-2.4058,0.0,0.0,0.0,0.0,0.0,0.0,0.0,0.0,0.0,0.0,0.0,0.0,0.0,0.0,0.0,0.0,0.0,0.0,0.0,0.0,0.0,0.0,0.0,0.0,0.0,0.0,0.0,0.0,0.0,0.0,0.0,0.0,0.0,0.0,0.0,0.0,0.0,0.0,0.0,0.0,0.0,0.0,0.0,0.0,0.0,0.0,0.0,0.0,0.0,0.0,0.0,0.0,0.0,0.0,0.0,0.0,0.0,0.0,0.0,0.0,0.0,0.0,0.0,0.0,0.0,0.0,0.0,0.0,0.0,0.0,0.0,0.0,0.0,0.0,0.0,0.0,0.0,0.0,0.0,0.0,0.0,0.0,0.0,0.0,0.0,0.0,0.0,0.0,0.0,0.0,0.0,0.0,0.0,0.0,0.0,0.0,0.0,0.0,0.0,0.0,0.0,0.0,-2.5187,-2.6895,-2.7744,-2.7146,-2.7615,-2.7369,-2.5909,-2.5471,-2.4798,-2.3655,0.0,0.0,0.0,0.0,0.0,0.0,0.0,0.0,0.0,0.0,0.0,0.0,0.0,0.0,0.0,0.0,0.0,0.0,0.0,0.0,0.0,0.0,0.0,0.0,0.0,0.0,0.0,0.0,0.0,0.0,0.0,0.0,0.0,0.0,0.0,0.0,0.0,0.0,0.0,0.0,0.0,0.0,0.0,0.0,0.0,0.0,0.0,0.0,0.0,0.0,0.0,0.0,0.0,0.0,0.0,0.0,0.0,0.0,0.0,0.0,0.0,0.0,0.0,0.0,0.0,0.0,0.0,0.0,0.0,0.0,0.0,0.0,0.0,0.0,0.0,0.0,0.0,0.0,0.0,0.0,0.0,0.0,0.0,0.0,0.0,0.0,0.0,0.0,0.0,0.0,0.0,0.0,0.0,0.0,0.0,0.0,0.0,0.0,0.0,0.0,0.0,0.0,-2.5201,-2.6863,-2.7899,-2.7919,-2.7907,-2.7544,-2.6678,-2.5742,-2.4483,0.0,0.0,0.0,0.0,0.0,0.0,0.0,0.0,0.0,0.0,0.0,0.0,0.0,0.0,0.0,0.0,0.0,0.0,0.0,0.0,0.0,0.0,0.0,0.0,0.0,0.0,0.0,0.0,0.0,0.0,0.0,0.0,0.0,0.0,0.0,0.0,0.0,0.0,0.0,0.0,0.0,0.0,0.0,0.0,0.0,0.0,0.0,0.0,0.0,0.0,0.0,0.0,0.0,0.0,0.0,0.0,0.0,0.0,0.0,0.0,0.0,0.0,0.0,0.0,0.0,0.0,0.0,0.0,0.0,0.0,0.0,0.0,0.0,0.0,0.0,0.0,0.0,0.0,0.0,0.0,0.0,0.0,0.0,0.0,0.0,0.0,0.0,0.0,0.0,0.0,0.0,0.0,0.0,0.0,0.0,0.0,0.0,0.0,0.0,0.0,0.0,0.0,0.0,-2.6781,-2.7581,-2.813,-2.8743,-2.8275,-2.7561,-2.6665,-2.5787,-2.4552,-2.2882,0.0,0.0,0.0,0.0,0.0,0.0,0.0,0.0,0.0,0.0,0.0,0.0,0.0,0.0,0.0,0.0,0.0,0.0,0.0,0.0,0.0,0.0,0.0,0.0,0.0,0.0,0.0,0.0,0.0,0.0,0.0,0.0,0.0,0.0,0.0,0.0,0.0,0.0,0.0,0.0,0.0,0.0,0.0,0.0,0.0,0.0,0.0,0.0,0.0,0.0,0.0,0.0,0.0,0.0,0.0,0.0,0.0,0.0,0.0,0.0,0.0,0.0,0.0,0.0,0.0,0.0,0.0,0.0,0.0,0.0,0.0,0.0,0.0,0.0,0.0,0.0,0.0,0.0,0.0,0.0,0.0,0.0,0.0,0.0,0.0,0.0,0.0,0.0,0.0,0.0,0.0,0.0,0.0,0.0,0.0,0.0,0.0,0.0,0.0,0.0,0.0,0.0,-2.7459,-2.7907,-2.8361,-2.9592,-2.8592,-2.7661,-2.7151,-2.6,-2.4731,-2.3395,0.0,0.0,0.0,0.0,0.0,0.0,0.0,0.0,0.0,0.0,0.0,0.0,0.0,0.0,0.0,0.0,0.0,0.0,0.0,0.0,0.0,0.0,0.0,0.0,0.0,0.0,0.0,0.0,0.0,0.0,0.0,0.0,0.0,0.0,0.0,0.0,0.0,0.0,0.0,0.0,0.0,0.0,0.0,0.0,0.0,0.0,0.0,0.0,0.0,0.0,0.0,0.0,0.0,0.0,0.0,0.0,0.0,0.0,0.0,0.0,0.0,0.0,0.0,0.0,0.0,0.0,0.0,0.0,0.0,0.0,0.0,0.0,0.0,0.0,0.0,0.0,0.0,0.0,0.0,0.0,0.0,0.0,0.0,0.0,0.0,0.0,0.0,0.0,0.0,0.0,0.0,0.0,0.0,0.0,0.0,0.0,0.0,0.0,0.0,0.0,0.0,0.0,-2.7453,-2.7978,-2.8653,-3.0325,-2.8956,-2.7962,-2.8028,-2.6429,-2.5087,-2.4269,0.0,0.0,0.0,0.0,0.0,0.0,0.0,0.0,0.0,0.0,0.0,0.0,0.0,0.0,0.0,0.0,0.0,0.0,0.0,0.0,0.0,0.0,0.0,0.0,0.0,0.0,0.0,0.0,0.0,0.0,0.0,0.0,0.0,0.0,0.0,0.0,0.0,0.0,0.0,0.0,0.0,0.0,0.0,0.0,0.0,0.0,0.0,0.0,0.0,0.0,0.0,0.0,0.0,0.0,0.0,0.0,0.0,0.0,0.0,0.0,-2.554,-2.4655,0.0,0.0,0.0,0.0,0.0,0.0,0.0,0.0,0.0,0.0,0.0,0.0,0.0,0.0,0.0,0.0,0.0,0.0,0.0,0.0,0.0,0.0,0.0,0.0,0.0,0.0,0.0,0.0,0.0,0.0,0.0,0.0,0.0,0.0,0.0,0.0,0.0,0.0,0.0,0.0,-2.753,-2.8494,-2.9329,-3.0384,-2.9534,-2.8926,-2.8994,-2.7393,-2.6033,-2.5174,-2.3657,0.0,0.0,0.0,0.0,0.0,0.0,0.0,0.0,0.0,0.0,0.0,0.0,0.0,0.0,0.0,0.0,0.0,0.0,0.0,0.0,0.0,0.0,0.0,0.0,0.0,0.0,0.0,0.0,0.0,0.0,0.0,0.0,0.0,0.0,0.0,0.0,0.0,0.0,0.0,0.0,0.0,0.0,0.0,0.0,0.0,0.0,0.0,0.0,0.0,0.0,0.0,0.0,0.0,0.0,0.0,0.0,0.0,0.0,0.0,-2.7747,-2.6807,0.0,0.0,0.0,0.0,0.0,0.0,0.0,0.0,0.0,0.0,0.0,0.0,0.0,0.0,0.0,0.0,0.0,0.0,0.0,0.0,0.0,0.0,0.0,0.0,0.0,0.0,0.0,0.0,0.0,0.0,0.0,0.0,0.0,0.0,0.0,0.0,0.0,0.0,0.0,0.0,-2.7607,-2.8653,-2.9533,-3.0414,-2.9723,-2.924,-2.9299,-2.7706,-2.6509,-2.605,-2.439,0.0,0.0,0.0,0.0,0.0,0.0,0.0,0.0,0.0,0.0,0.0,0.0,0.0,0.0,0.0,0.0,0.0,0.0,0.0,0.0,0.0,0.0,0.0,0.0,0.0,0.0,0.0,0.0,0.0,0.0,0.0,0.0,0.0,0.0,0.0,0.0,0.0,0.0,0.0,0.0,0.0,0.0,0.0,0.0,0.0,0.0,0.0,0.0,0.0,0.0,0.0,0.0,0.0,-3.1482,-3.1497,-3.1506,-3.2249,-3.2667,-3.2687,-3.0497,-2.9654,-2.9742,-2.8365,0.0,0.0,0.0,0.0,0.0,0.0,0.0,0.0,0.0,0.0,0.0,0.0,0.0,0.0,0.0,0.0,0.0,0.0,0.0,0.0,0.0,0.0,-2.7402,-2.8412,-2.8552,-2.7914,-2.5956,0.0,0.0,0.0,0.0,0.0,0.0,0.0,0.0,0.0,0.0,0.0,-2.7881,-2.9016,-2.9871,-3.0457,-3.0003,-2.9617,-2.954,-2.8072,-2.7086,-2.6932,-2.5292,-2.4257,0.0,0.0,0.0,0.0,0.0,0.0,0.0,0.0,0.0,0.0,0.0,0.0,0.0,0.0,0.0,0.0,0.0,0.0,0.0,0.0,0.0,0.0,0.0,0.0,0.0,0.0,0.0,0.0,0.0,0.0,0.0,0.0,-2.2674,-2.29,0.0,0.0,0.0,0.0,0.0,0.0,0.0,0.0,0.0,0.0,0.0,0.0,0.0,-3.2576,-3.268,-3.4246,-3.503,-3.503,-3.5025,-3.502,-3.503,-3.5212,-3.5691,-3.6356,-3.5327,0.0,-3.1635,-3.1426,0.0,0.0,0.0,0.0,0.0,0.0,0.0,0.0,0.0,0.0,0.0,0.0,0.0,0.0,0.0,0.0,0.0,0.0,0.0,0.0,0.0,0.0,-2.934,-3.0926,-3.0772,-3.0366,-3.0709,-2.8917,-2.7031,-2.6336,-2.5529,-2.4699,0.0,0.0,0.0,0.0,0.0,0.0,-2.8793,-3.0451,-3.1221,-3.0646,-3.111,-3.1188,-3.0496,-2.951,-2.8625,-2.789,-2.6183,-2.4914,-2.4223,-2.3141,0.0,0.0,0.0,0.0,0.0,0.0,0.0,0.0,0.0,0.0,0.0,0.0,0.0,0.0,0.0,0.0,0.0,0.0,0.0,0.0,0.0,0.0,0.0,0.0,0.0,0.0,0.0,0.0,0.0,-2.3452,-2.4745,-2.5234,-2.5292,-2.5291,0.0,0.0,0.0,0.0,0.0,0.0,0.0,0.0,0.0,-3.3501,-3.4742,-3.5396,-3.5387,-3.6581,-3.7157,-3.7153,-3.7153,-3.7191,-3.7219,-3.724,-3.7471,-3.7813,-3.7497,-3.6711,-3.5548,-3.4114,-3.254,-3.0962,0.0,0.0,0.0,0.0,-2.9209,-3.025,-3.0203,-3.0393,-3.0593,-3.0215,0.0,0.0,0.0,0.0,0.0,0.0,0.0,-2.9655,-3.0002,-3.0752,-3.1618,-3.2353,-3.2256,-3.2101,-3.2449,-3.1632,-3.0298,-2.8502,-2.7764,-2.7157,-2.6255,-2.5734,0.0,0.0,0.0,-2.8445,-2.9755,-3.1012,-3.1675,-3.1308,-3.1579,-3.1463,-3.0675,-2.9805,-2.9132,-2.8745,-2.7557,-2.6485,-2.563,-2.4799,-2.3964,0.0,0.0,0.0,0.0,0.0,0.0,0.0,0.0,0.0,0.0,0.0,0.0,0.0,0.0,0.0,0.0,0.0,0.0,0.0,0.0,0.0,0.0,0.0,0.0,0.0,0.0,0.0,0.0,-2.5262,-2.6691,-2.7557,-2.7851,-2.8008,0.0,0.0,0.0,0.0,0.0,0.0,-3.4167,-3.4303,-3.5067,-3.6774,-3.765,-3.819,-3.8438,-3.9223,-3.965,-3.9658,-3.9658,-3.9671,-3.9735,-3.9727,-3.9723,-3.9724,-3.9563,-3.949,-3.9306,-3.6758,-3.5131,-3.4224,-3.3585,-3.2809,-3.2027,-3.2032,-3.2584,-3.3329,-3.3242,-3.3322,-3.3354,-3.291,-3.186,-3.05,-2.9256,0.0,0.0,0.0,0.0,-3.2416,-3.2403,-3.3079,-3.3729,-3.3735,-3.374,-3.3764,-3.3764,-3.3773,-3.3067,-3.0723,-3.0016,-2.9578,-2.8909,-2.8582,0.0,-2.8754,-2.936,-3.0045,-3.0751,-3.1781,-3.228,-3.185,-3.2005,-3.1792,-3.0984,-3.0114,-2.9534,-2.9306,-2.8687,-2.7929,-2.7073,-2.6242,-2.5403,-2.455,0.0,0.0,0.0,0.0,0.0,0.0,0.0,0.0,0.0,0.0,0.0,0.0,0.0,0.0,0.0,0.0,0.0,0.0,0.0,0.0,0.0,0.0,0.0,0.0,0.0,0.0,0.0,0.0,0.0,-2.9369,-3.0193,0.0,0.0,0.0,0.0,-3.3072,-3.3943,-3.5185,-3.6912,-3.701,-3.7802,-3.9541,-4.0379,-4.1201,-4.2022,-4.2841,-4.3269,-4.3327,-4.3327,-4.3337,-4.3332,-4.3332,-4.3341,-4.3301,-4.2529,-4.2194,-4.2009,-3.9458,-3.7857,-3.6992,-3.6955,-3.6413,-3.5643,-3.5632,-3.6181,-3.694,-3.686,-3.7292,-3.7619,-3.5944,-3.3695,-3.1621,-3.1525,-3.1506,0.0,0.0,-3.2756,-3.409,-3.4083,-3.4762,-3.5479,-3.5465,-3.5513,-3.5568,-3.5568,-3.5568,-3.5041,-3.3255,-3.2243,-3.1631,-3.1513,0.0,-3.0621,-3.1391,-3.1593,-3.1678,-3.1723,-3.3218,-3.3634,-3.1985,-3.2546,-3.2681,-3.1811,-3.1004,-3.0172,-2.9345,-2.9268,-2.8842,-2.7972,-2.7093,-2.6269,-2.5456,-2.4531,0.0,0.0,0.0,0.0,0.0,0.0,0.0,0.0,0.0,0.0,0.0,0.0,0.0,0.0,0.0,0.0,0.0,0.0,0.0,0.0,0.0,0.0,0.0,0.0,0.0,0.0,0.0,0.0,-3.1879,-3.2805,0.0,-3.3356,-3.4101,-3.4978,-3.5836,-3.6712,-3.7938,-3.9615,-4.0236,-4.1091,-4.2277,-4.2553,-4.2815,-4.3122,-4.3418,-4.3574,-4.3609,-4.3609,-4.3617,-4.3667,-4.3667,-4.3652,-4.3642,-4.3361,-4.3232,-4.3177,-4.2263,-4.0719,-3.8877,-3.8323,-3.7909,-3.7633,-3.7632,-3.7815,-3.8029,-3.8018,-3.8135,-3.82,-3.75,-3.624,-3.4976,-3.4976,-3.4989,-3.4969,-3.4969,-3.5824,-3.6704,-3.6665,-3.6935,-3.7218,-3.7205,-3.7256,-3.7319,-3.7319,-3.7311,-3.7129,-3.6505,-3.4812,-3.3293,-3.2706,-3.2353,-3.2276,-3.2566,-3.2615,-3.2844,-3.3392,-3.4021,-3.3944,-3.2759,-3.3421,-3.3151,-3.1197,-3.1236,-3.1023,-3.0192,-3.0133,-2.9495,-2.8068,-2.7701,-2.6888,-2.5538,-2.4643,-2.3915,0.0,0.0,0.0,0.0,0.0,0.0,0.0,0.0,0.0,0.0,0.0,0.0,0.0,0.0,0.0,0.0,0.0,0.0,0.0,0.0,0.0,0.0,0.0,0.0,0.0,-3.1045,-3.2768,-3.4513,-3.5498,-3.6128,-3.6422,-3.7246,-3.8105,-3.8964,-3.9823,-4.0818,-4.1911,-4.2515,-4.3236,-4.4112,-4.4106,-4.4218,-4.4507,-4.4501,-4.4501,-4.4507,-4.4507,-4.453,-4.4573,-4.4573,-4.4577,-4.4562,-4.4272,-4.4138,-4.412,-4.3828,-4.2714,-4.111,-4.0541,-4.0325,-4.0325,-4.0324,-4.0101,-3.977,-3.9435,-3.9094,-3.8797,-3.8676,-3.8028,-3.7263,-3.7276,-3.725,-3.7244,-3.7244,-3.7848,-3.8426,-3.8129,-3.8271,-3.8439,-3.813,-3.8132,-3.8189,-3.8189,-3.8194,-3.8193,-3.8193,-3.6845,-3.5505,-3.4928,-3.4825,-3.4715,-3.4425,-3.4386,-3.4392,-3.4389,-3.4665,-3.4389,-3.3223,-3.3886,-3.3485,-3.1197,-3.1483,-3.1463,-3.0656,-3.0598,-3.0075,-2.8919,-2.8591,-2.7778,-2.6362,-2.4923,-2.4198,-2.4205,0.0,0.0,0.0,0.0,0.0,0.0,0.0,0.0,0.0,0.0,0.0,0.0,0.0,0.0,0.0,0.0,0.0,0.0,0.0,0.0,0.0,0.0,0.0,-3.2064,-3.3683,-3.5426,-3.7176,-3.8156,-3.9019,-3.9882,-4.0761,-4.1601,-4.2383,-4.3242,-4.373,-4.373,-4.3769,-4.4179,-4.5018,-4.5037,-4.5446,-4.6283,-4.6302,-4.6302,-4.6302,-4.6302,-4.6302,-4.6302,-4.6302,-4.6304,-4.6248,-4.5408,-4.5038,-4.498,-4.4121,-4.3789,-4.3789,-4.3729,-4.3709,-4.3709,-4.3706,-4.3172,-4.2295,-4.1335,-4.0428,-3.9719,-3.9659,-3.9038,-3.8326,-3.8316,-3.826,-3.8183,-3.8183,-3.8735,-3.9162,-3.8387,-3.8765,-3.9124,-3.8269,-3.8176,-3.8286,-3.8286,-3.8272,-3.827,-3.827,-3.827,-3.8251,-3.8212,-3.8193,-3.7903,-3.7077,-3.6942,0.0,-3.4684,-3.5226,-3.5065,-3.3339,-3.3924,-3.3712,-3.1947,-3.1811,-3.1483,-3.0656,-3.0598,-3.0598,-3.0559,-2.9747,-2.89,-2.801,-2.5573,-2.4323,-2.4321,0.0,0.0,0.0,0.0,0.0,0.0,0.0,0.0,0.0,0.0,0.0,0.0,0.0,0.0,0.0,0.0,0.0,0.0,0.0,0.0,0.0,-3.1928,-3.3707,-3.3957,-3.5482,-3.7226,-3.8971,-3.9913,-4.0758,-4.1639,-4.25,-4.3105,-4.332,-4.4141,-4.4648,-4.4648,-4.5234,-4.5683,-4.5937,-4.5937,-4.6054,-4.6308,-4.6308,-4.6308,-4.6308,-4.6308,-4.6308,-4.6308,-4.6308,-4.6308,-4.6289,-4.6054,-4.5937,-4.5918,-4.5683,-4.5586,-4.5469,-4.4199,-4.3691,-4.3691,-4.3691,-4.3552,-4.3309,-4.3031,-4.2746,-4.2491,-4.2424,-4.1772,-4.1042,-4.1094,-4.0587,-3.9992,-3.9992,-4.014,-4.0261,-3.999,-4.0079,-4.0188,-3.9937,-3.9952,-4.0005,-4.0005,-4.005,-4.0094,-4.0094,-4.0094,-3.9688,-3.8425,-3.8193,-3.8115,-3.7883,-3.7845,-3.7444,-3.6342,-3.6419,-3.5916,-3.4214,-3.4814,-3.4369,-3.2005,-3.2372,-3.2121,-3.0694,-3.0598,-3.0327,-2.9669,-2.9437,-2.8904,-2.8089,-2.7373,-2.7036,0.0,0.0,0.0,0.0,0.0,0.0,0.0,0.0,0.0,0.0,0.0,0.0,0.0,0.0,0.0,0.0,0.0,0.0,0.0,0.0,0.0,0.0,-3.4626,-3.6579,-3.7279,-3.8256,-3.9394,-4.0771,-4.1672,-4.2535,-4.3398,-4.3945,-4.4394,-4.4766,-4.5254,-4.5547,-4.5547,-4.6016,-4.6308,-4.6308,-4.6308,-4.6308,-4.6308,-4.6308,-4.6308,-4.6308,-4.6308,-4.6308,-4.6308,-4.6308,-4.6308,-4.6308,-4.6308,-4.6308,-4.6308,-4.6308,-4.6308,-4.6191,0.0,0.0,0.0,0.0,-4.4237,-4.4195,-4.3834,-4.3663,-4.3624,-4.356,-4.3162,-4.2734,-4.2736,-4.2344,-4.1803,-4.1424,-4.1299,-4.1145,-4.0758,-4.0615,-4.0595,-4.0595,-4.0654,-4.07,-4.07,-4.0746,-4.0797,-4.0797,-4.0797,0.0,-3.9456,-3.9282,-3.9166,-3.8798,-3.874,-3.8295,-3.7058,-3.6903,-3.6265,-3.4587,-3.5187,-3.4795,-3.2546,-3.2808,0.0,0.0,0.0,-3.0379,-2.9863,-2.9495,0.0,0.0,0.0,0.0,0.0,-2.8105,0.0,0.0,-2.6223,-2.6835,0.0,0.0,0.0,0.0,0.0,0.0,0.0,0.0,0.0,0.0,0.0,0.0,0.0,0.0,0.0,0.0,-3.7303,-3.947,-4.1168,-4.148,-4.1837,-4.259,-4.3372,-4.4195,-4.5058,-4.5156,-4.5469,-4.623,-4.6308,-4.6308,-4.6308,-4.6308,0.0,0.0,0.0,-4.6308,-4.6308,-4.6308,-4.6308,-4.6308,-4.6308,-4.6308,-4.6308,-4.6308,-4.6308,-4.6308,-4.6308,-4.6308,-4.6308,-4.6308,-4.6308,-4.6308,-4.6308,-4.6308,-4.6211,-4.5429,-4.5155,-4.5037,-4.427,0.0,0.0,-4.3918,-4.3838,-4.3752,-4.3682,-4.3572,-4.3331,-4.2568,-4.2261,-4.197,-4.1074,-4.081,-4.0744,-4.0647,-4.0668,-4.0707,-4.0707,-4.0752,-4.0797,-4.0797,-4.0797,-4.0797,-4.0797,-4.0797,-4.0545,-3.9752,-3.9655,-3.9056,-3.7406,-3.7193,-3.6555,-3.4858,-3.5375,0.0,-3.3383,-3.3248,-3.29,-3.2091,-3.1239,-3.0703,-3.0602,-2.9867,-2.9489,-2.9593,-2.8895,-2.8578,-2.8679,-2.8683,-2.947,-3.0948,-2.9204,-2.9327,0.0,0.0,0.0,0.0,0.0,0.0,0.0,0.0,0.0,0.0,0.0,0.0,0.0,0.0,0.0,-3.8276,-3.9839,-4.1226,-4.2944,-4.3801,-4.4315,-4.4484,-4.4642,-4.5094,-4.5957,-4.6055,-4.6113,-4.6289,-4.6308,-4.6308,-4.6308,-4.6308,-4.6308,-4.6308,-4.6308,-4.6308,-4.6308,-4.6308,-4.6308,-4.6308,-4.6308,0.0,-4.6308,-4.6308,-4.6308,-4.6308,-4.6308,-4.6308,-4.6308,-4.6308,-4.6308,-4.6308,-4.6308,-4.6308,-4.6289,-4.6113,-4.6054,-4.6015,-4.5859,-4.5799,-4.5797,-4.5772,-4.5293,-4.4729,-4.4646,-4.4098,0.0,-4.3305,-4.3189,-4.2931,-4.2071,-4.1814,-4.1622,-4.0939,-4.0759,-4.0784,-4.0784,-4.079,-4.0797,-4.0797,-4.0797,-4.0797,-4.0797,-4.0797,-4.0739,-4.0565,-4.0545,-4.0178,-3.9133,-3.8998,-3.834,-3.6593,-3.6574,-3.5985,-3.4284,-3.4158,-3.3805,-3.2994,-3.2119,-3.1331,-3.063,-3.0437,-3.0689,-3.137,-3.1237,-3.151,-3.2209,-3.2264,-3.247,-3.2765,-3.101,-3.1126,0.0,0.0,0.0,0.0,0.0,0.0,0.0,0.0,0.0,0.0,0.0,-3.1767,-3.4797,0.0,-3.7943,-4.0093,-4.1558,-4.2866,-4.4179,-4.4725,-4.5003,-4.4992,-4.5384,-4.5816,-4.6269,-4.6308,-4.6308,-4.6308,-4.6308,-4.6308,-4.6308,-4.6308,-4.6308,-4.6308,-4.6308,-4.6308,-4.6308,-4.6308,-4.6308,-4.6308,-4.6308,-4.6308,-4.6308,-4.6308,-4.6308,-4.6308,-4.6308,-4.6308,-4.6308,-4.6308,-4.6308,-4.6308,-4.6308,-4.6308,-4.6308,-4.6308,-4.6308,-4.6308,-4.6308,-4.6308,-4.6308,-4.6307,-4.6011,-4.5632,-4.5602,-4.525,-4.4752,-4.4329,-4.4145,-4.3898,-4.3029,-4.2488,-4.2022,-4.1569,-4.1125,-4.079,-4.0797,-4.0797,-4.0797,-4.0797,-4.0797,-4.0797,-4.0797,-4.0797,-4.0797,-4.0797,-4.0797,-4.0487,-3.9617,-3.9501,-3.8998,-3.7696,-3.7154,-3.6566,-3.5766,-3.4938,-3.4089,-3.3249,-3.279,-3.235,-3.1919,-3.1893,-3.2101,-3.255,-3.2531,-3.2733,-3.3201,-3.3227,-3.3472,-3.3879,-3.301,-3.3076,0.0,0.0,0.0,0.0,0.0,0.0,0.0,0.0,-3.2058,-3.3799,-3.4288,-3.5149,-3.7594,-3.9273,-4.0659,-4.1693,-4.304,-4.4254,-4.5138,-4.5255,-4.5258,-4.5245,-4.5872,-4.6305,-4.6308,-4.6308,-4.6308,-4.6308,-4.6308,-4.6308,-4.6308,-4.6308,-4.6308,-4.6308,-4.6308,-4.6308,-4.6308,-4.6308,-4.6308,-4.6308,-4.6308,-4.6308,-4.6308,-4.6308,-4.6308,-4.6308,-4.6308,-4.6308,-4.6308,-4.6308,-4.6308,-4.6308,-4.6308,-4.6308,-4.6308,-4.6308,-4.6308,-4.6308,-4.6308,-4.6308,-4.6308,-4.6308,-4.6308,-4.6307,-4.6304,-4.6257,-4.6067,-4.5343,-4.5111,-4.4869,-4.3979,-4.3234,-4.2654,-4.2412,-4.1691,-4.104,-4.1035,-4.0913,-4.0797,-4.0797,-4.0797,-4.0797,-4.0797,-4.0797,-4.0797,-4.0797,-4.0797,-4.0545,-3.9849,-3.9752,-3.9423,-3.8547,-3.7818,-3.7293,-3.7035,-3.5785,-3.4551,-3.3518,-3.3455,-3.3369,-3.3201,-3.3199,-3.3272,-3.346,-3.3403,-3.3485,-3.3706,-3.3708,-3.4069,-3.4753,-3.475,-3.4754,-2.5203,-2.7177,-2.9072,-2.9268,-3.0502,-3.1893,0.0,0.0,-3.4763,-3.65,-3.7477,-3.8551,-4.0348,-4.1459,-4.265,-4.4309,-4.4738,-4.5168,-4.6028,-4.6145,-4.6149,-4.6156,-4.6244,-4.6307,-4.6308,-4.6308,-4.6308,-4.6308,-4.6308,-4.6308,-4.6308,-4.6308,-4.6308,-4.6308,-4.6308,-4.6308,-4.6308,-4.6308,-4.6308,-4.6308,-4.6308,-4.6308,-4.6308,-4.6308,-4.6308,-4.6308,-4.6308,-4.6308,-4.6308,-4.6308,-4.6308,-4.6308,-4.6308,-4.6308,-4.6308,-4.6308,-4.6308,-4.6308,-4.6308,-4.6308,-4.6308,-4.6308,-4.6308,-4.6308,-4.6307,-4.6284,-4.6257,-4.6097,-4.605,-4.5832,-4.4898,-4.4579,-4.4305,-4.3458,-4.2588,-4.1937,-4.188,-4.1293,-4.0797,-4.0797,-4.0797,-4.0797,-4.0797,-4.0797,-4.0797,-4.0797,-4.0797,-4.0758,-4.0681,-4.0642,-4.0313,-3.9443,-3.9273,-3.8628,-3.7211,-3.6928,-3.6105,-3.4459,-3.4341,-3.4018,-3.3238,-3.3201,-3.3561,-3.4337,-3.4354,-3.4721,-3.5514,-3.5519,-3.5566,-3.5644,-3.5648,-3.5659,-2.8173,-2.9465,-3.066,0.0,-3.3473,-3.4608,-3.5467,-3.6345,-3.7303,-3.8512,-3.9449,-4.0426,-4.1635,-4.2982,-4.4151,0.0,-4.5421,-4.5872,-4.6248,-4.6308,-4.6291,-4.6297,-4.6302,-4.6306,-4.6308,-4.6308,-4.6308,-4.6308,-4.6308,-4.6308,-4.6308,-4.6308,-4.6308,-4.6308,-4.6308,-4.6308,-4.6308,-4.6308,-4.6308,-4.6308,-4.6308,-4.6308,-4.6308,-4.6308,-4.6308,-4.6308,-4.6308,-4.6308,-4.6308,-4.6308,-4.6308,-4.6308,-4.6308,-4.6308,-4.6308,-4.6308,-4.6308,-4.6308,-4.6308,-4.6308,-4.6308,-4.6308,-4.6308,-4.6308,-4.6308,-4.6308,-4.6287,-4.6276,-4.6239,-4.6111,-4.5714,-4.5218,-4.4701,-4.4263,-4.3484,-4.2832,-4.2776,-4.2086,-4.1506,-4.1506,-4.1126,-4.0797,-4.0797,-4.0797,-4.0797,-4.0797,-4.0797,-4.0797,-4.0797,-4.0797,-4.0474,-3.9582,-3.9531,-3.9078,-3.7904,-3.783,-3.7551,-3.6813,-3.6766,-3.6369,-3.5514,-3.5474,-3.5391,-3.5264,-3.5254,-3.5434,-3.5795,-3.6303,-3.6563,-3.6563,-3.7078,-3.7316,-3.0593,-3.1693,0.0,-3.4588,-3.5896,-3.695,-3.7809,-3.8473,-3.9157,-3.9995,-4.0854,-4.1713,-4.2591,-4.3997,-4.5088,-4.532,-4.5886,-4.6298,-4.6282,-4.6264,-4.6266,-4.6272,-4.6272,-4.6276,-4.6302,-4.6306,-4.6307,-4.6308,-4.6308,-4.6308,-4.6308,-4.6308,-4.6308,-4.6308,-4.6308,-4.6308,-4.6308,-4.6308,-4.6308,-4.6308,-4.6308,-4.6308,-4.6308,-4.6308,-4.6308,-4.6308,-4.6308,-4.6308,-4.6308,-4.6308,-4.6308,-4.6308,-4.6308,-4.6308,-4.6308,-4.6308,-4.6308,-4.6308,-4.6308,-4.6308,-4.6308,-4.6308,-4.6308,-4.6308,-4.6308,-4.6308,-4.6308,-4.6304,-4.6252,-4.621,-4.6196,-4.5671,-4.5099,-4.5056,-4.4368,-4.3723,-4.3666,-4.2976,-4.2299,-4.2048,-4.1525,-4.1067,-4.0835,-4.0797,-4.0797,-4.0797,-4.0797,-4.0797,-4.0797,-4.0803,-4.0569,-3.9951,-3.9931,-3.9612,-3.8767,-3.8723,-3.8659,-3.8415,-3.8395,-3.8127,-3.7518,-3.7486,-3.7199,-3.6565,-3.6545,-3.6547,-3.6548,-3.7178,-3.7492,-3.7492,-3.8134,-3.8558,0.0,0.0,-3.5856,-3.5934,-3.7243,-3.8728,-3.9546,-3.9741,-4.0015,-4.0875,-4.1752,-4.263,-4.3509,-4.4387,-4.5281,-4.611,-4.6286,-4.6282,-4.6211,-4.6209,-4.6209,-4.6209,-4.6209,-4.624,-4.628,-4.6301,-4.6307,-4.6307,-4.6307,-4.6307,-4.6307,-4.6304,-4.6302,-4.6302,-4.6302,-4.6304,-4.6307,-4.6307,-4.6308,-4.6308,-4.6308,-4.6308,-4.6307,-4.6304,-4.6302,-4.6302,-4.6302,-4.6302,-4.6302,-4.6302,-4.6302,-4.6302,-4.6302,-4.6302,-4.6302,-4.6306,-4.6308,-4.6308,-4.6308,-4.6308,-4.6308,-4.6308,-4.6308,-4.6308,-4.6308,-4.6308,-4.6308,-4.6304,-4.6249,-4.6199,-4.6193,-4.6078,-4.5947,-4.5885,-4.5202,-4.4563,-4.4569,-4.3885,-4.3015,-4.2164,-4.197,-4.1719,-4.0932,-4.0797,-4.0797,-4.0797,-4.0797,-4.0797,-4.0797,-4.0796,-4.0818,-4.0858,-4.0863,-4.0524,-3.9737,-3.966,-3.9304,-3.8451,-3.8397,-3.8416,-3.8455,-3.8455,-3.8455,-3.8429,-3.841,-3.8428,-3.8417,-3.8447,-3.8461,-3.8461,-3.8478,-3.8917,-3.407,0.0,-3.6414,-3.809,-3.8956,-3.9624,-4.0464,-4.0659,-4.0758,-4.1031,-4.1791,-4.2492,-4.2779,-4.3558,-4.4411,-4.525,-4.5362,-4.5549,-4.6066,-4.6141,-4.6141,-4.6141,-4.6131,-4.6167,-4.6226,-4.6278,-4.6296,-4.6303,-4.6304,-4.6304,-4.6304,-4.6302,-4.6301,-4.6301,-4.6301,-4.6302,-4.6304,-4.6304,-4.6305,-4.6305,-4.6305,-4.6305,-4.6304,-4.6302,-4.6301,-4.6301,-4.6301,-4.6301,-4.6301,-4.6301,-4.6301,-4.6301,-4.6301,-4.6301,-4.6301,-4.6303,-4.6305,-4.6306,-4.6308,-4.6308,-4.6308,-4.6308,-4.6308,-4.6308,-4.6308,-4.6308,-4.6308,-4.6306,-4.6278,-4.6257,-4.6212,-4.6138,-4.6032,-4.5922,-4.5686,-4.5448,-4.5407,-4.4756,-4.4073,-4.3783,-4.3279,-4.2658,-4.1811,-4.1656,-4.1463,-4.0895,-4.08,-4.0802,-4.0802,-4.0848,-4.0862,-4.0902,-4.0903,-4.0801,-4.0519,-4.0499,-4.0392,-4.0146,-4.0124,-3.9875,-3.9312,-3.9343,-3.909,-3.8512,-3.8505,-3.852,-3.857,-3.9098,-3.935,-3.9386,-3.996,-4.0372,-3.5421,-3.6604,-3.7743,-3.9382,-4.0034,-4.0414,-4.0961,-4.1097,-4.1097,-4.1097,-4.1293,-4.1642,-4.2256,-4.2585,-4.3236,-4.4644,-4.4848,-4.5118,-4.5953,-4.6036,-4.6027,-4.6027,-4.605,-4.6076,-4.6123,-4.6189,-4.6247,-4.6294,-4.6297,-4.6299,-4.6299,-4.6297,-4.6296,-4.6296,-4.6296,-4.6296,-4.6299,-4.6299,-4.63,-4.6301,-4.63,-4.6299,-4.6299,-4.6296,-4.6296,-4.6296,-4.6296,-4.6296,-4.6296,-4.6296,-4.6296,-4.6296,-4.6296,-4.6296,-4.6296,-4.6299,-4.6299,-4.6301,-4.6306,-4.6307,-4.6307,-4.6307,-4.6308,-4.6308,-4.6308,-4.6308,-4.6308,-4.6307,-4.6282,-4.6248,-4.6214,-4.6148,-4.6072,-4.5982,-4.5953,-4.5917,-4.5874,-4.5441,-4.4983,-4.4686,-4.4226,-4.3579,-4.2712,-4.2305,-4.1917,-4.1355,-4.1014,-4.0848,-4.0848,-4.0862,-4.0907,-4.0898,-4.0898,-4.0912,-4.0921,-4.0941,-4.0943,-4.1007,-4.1002,-4.076,-4.0223,-4.0231,-3.9992,-3.9443,-3.9429,-3.9452,-3.9492,-4.0019,-4.0253,-4.0273,-4.0837,-4.1102,-3.5978,-3.7855,-3.98,-3.9859,-4.0474,-4.1089,-4.1033,-4.1033,-4.1013,-4.0974,-4.0291,-4.0211,-4.1794,0.0,-4.1815,-4.4269,-4.4646,-4.4943,-4.5861,-4.5923,-4.588,0.0,0.0,0.0,0.0,0.0,-4.6203,-4.6351,-4.6326,-4.6291,-4.6291,-4.6305,-4.63,-4.63,-4.63,-4.6305,-4.6293,-4.6293,-4.6295,-4.6301,-4.6295,-4.6293,-4.6293,-4.6305,-4.63,-4.63,-4.63,-4.63,-4.63,-4.63,-4.63,-4.63,-4.63,-4.63,-4.6302,-4.6309,-4.6293,-4.6294,-4.63,-4.6301,-4.6301,-4.6301,-4.6305,-4.6307,-4.6307,-4.6308,-4.6308,-4.6308,-4.6245,-4.6194,-4.6195,-4.615,-4.6092,-4.6106,-4.6047,-4.6003,-4.6003,-4.5955,-4.5679,-4.4903,-4.4729,-4.4438,-4.3604,-4.2757,-4.2175,-4.2175,-4.1512,-4.0999,-4.0902,-4.0902,-4.0898,-4.0903,-4.0907,-4.0921,-4.0987,-4.0991,-4.1007,-4.0995,-4.1,-4.1029,-4.1107,-4.1108,-4.1092,-4.1092,-4.1091,-4.1108,-4.1098,-4.1104,-4.1107,-4.1107,-4.1093,-4.1094,-3.8205,-3.9101,-3.9805,-4.0466,-4.0797,-4.0792,-4.0192,-4.0065,-3.9877,-3.9228,-3.8903,-3.8877,-3.9241,-3.9677,0.0,-4.243,-4.3241,0.0,-4.564,-4.5838,0.0,-4.5831,0.0,-4.5874,-4.5922,-4.654,0.0,-4.7108,-4.6566,-4.6245,-4.6292,-4.629,-4.6292,-4.63,-4.63,-4.6302,-4.6303,-4.6303,-4.6305,-4.6306,-4.6305,-4.6303,-4.6303,-4.6302,-4.63,-4.63,-4.63,-4.63,-4.63,-4.63,-4.63,-4.63,-4.63,-4.63,-4.63,-4.6303,-4.6303,-4.6305,-4.6306,-4.6295,-4.6301,-4.6301,-4.6302,-4.6303,-4.6303,-4.6304,-4.6305,-4.6306,-4.6288,-4.6269,-4.6202,-4.6188,-4.6165,-4.6102,-4.608,-4.6065,-4.6008,-4.5997,-4.5903,-4.5703,-4.5179,-4.4694,-4.448,-4.3723,-4.314,-4.314,-4.2971,-4.2364,-4.1062,-4.0903,-4.0898,-4.0907,-4.0945,-4.0987,-4.1007,-4.0995,-4.101,-4.1067,-4.1076,-4.1077,-4.1091,-4.1094,-4.1093,-4.1108,-4.1105,-4.1101,-4.1098,-4.1097,-4.1097,-4.1101,-4.1103,-4.1108,-3.9128,-3.9741,-4.0202,-4.0738,-4.0568,-4.0163,-3.9717,-3.9341,-3.896,-3.8466,-3.7755,0.0,-3.8132,-3.8336,0.0,0.0,0.0,0.0,-4.553,-4.5738,-4.5703,0.0,-4.5743,0.0,-4.6348,-4.6842,-4.7351,-4.7842,-4.7513,-4.7326,-4.7387,-4.7392,-4.7401,-4.7393,-4.7393,-4.7237,-4.6866,-4.6866,-4.6671,-4.63,-4.63,-4.63,-4.63,-4.63,-4.63,-4.63,-4.63,-4.63,-4.63,-4.63,-4.63,-4.63,-4.63,-4.63,-4.63,-4.63,-4.63,-4.63,-4.63,-4.6306,-4.6294,-4.6294,-4.6296,-4.6299,-4.6299,-4.63,-4.6301,-4.6301,-4.6303,-4.6287,-4.625,-4.6248,-4.6221,-4.6197,-4.617,-4.6125,-4.6095,-4.606,-4.6041,-4.6047,-4.5657,-4.5336,-4.5336,-4.4637,-4.4074,-4.4074,-4.3734,-4.3151,-4.2165,-4.1709,-4.1329,-4.0984,-4.0975,-4.1007,-4.0993,-4.1025,-4.1059,-4.1108,-4.1103,-4.1092,-4.1093,-4.111,-4.1105,-4.1101,-4.1097,-4.1095,-4.1095,-4.1091,-4.1091,-4.1095,-4.1095,-4.1292,-3.9439,-4.0049,-4.0688,-4.0739,-4.0091,-3.9423,-3.9326,-3.8595,-3.7903,-3.7787,0.0,-3.5824,-3.7373,-3.7121,-3.7762,-4.1012,0.0,-4.3462,-4.525,-4.5466,-4.5479,-4.5594,-4.5744,-4.6163,-4.691,-4.7252,-4.7753,-4.8586,-4.887,-4.8931,-4.8785,-4.8806,-4.8801,-4.8796,-4.8796,-4.8406,-4.7584,-4.7584,-4.7157,-4.63,-4.63,-4.63,-4.63,-4.63,-4.63,-4.63,-4.63,-4.63,-4.63,-4.63,-4.63,-4.63,-4.63,-4.63,-4.63,-4.63,-4.63,-4.63,-4.63,-4.63,-4.63,-4.63,-4.6305,-4.6291,-4.6291,-4.6295,-4.63,-4.63,-4.63,-4.6301,-4.6305,-4.6307,-4.6308,-4.6308,-4.6261,-4.6207,-4.6216,-4.6162,-4.6111,-4.6108,-4.6056,-4.6017,-4.6017,-4.5429,-4.4963,-4.4963,-4.4321,-4.3815,-4.3703,-4.292,-4.2119,-4.1427,-4.1349,-4.1347,-4.1359,-4.1304,-4.1271,-4.1268,-4.1152,-4.1091,-4.1099,-4.1098,-4.1095,-4.1109,-4.1109,-4.1109,-4.1109,-4.1109,-4.1168,-4.1265,-4.1265,-4.1732,-4.0183,-4.033,-4.0469,-4.0534,-3.9894,-3.9073,-3.8418,-3.7083,0.0,0.0,-3.4139,-3.3734,-3.4642,-3.5283,-3.6533,-3.9223,0.0,0.0,-4.4209,-4.4536,-4.4778,0.0,-4.6249,-4.6747,-4.6906,-4.8234,0.0,-4.9397,-5.0141,-5.0058,-4.8779,-4.8766,-4.8797,-4.8801,-4.8801,-4.8391,-4.7535,-4.7515,-4.711,-4.63,-4.63,-4.63,-4.63,-4.63,-4.63,-4.63,-4.63,-4.63,-4.63,-4.63,-4.63,-4.63,-4.63,-4.63,-4.63,-4.63,-4.63,-4.63,-4.63,-4.63,-4.63,-4.63,-4.6302,-4.6303,-4.6303,-4.6303,-4.6305,-4.6305,-4.6305,-4.6306,-4.6295,-4.6297,-4.6301,-4.6307,-4.6289,-4.6287,-4.628,-4.6234,-4.617,-4.6173,-4.6127,-4.6072,-4.6072,-4.5962,-4.5875,-4.5877,-4.5745,-4.541,-4.4741,-4.3899,-4.3303,-4.3166,-4.3159,-4.3173,-4.3222,-4.2588,-4.2166,-4.2167,-4.1498,-4.1101,-4.1099,-4.1094,-4.1091,-4.1109,-4.1109,-4.1109,-4.1109,-4.1109,-4.1479,-4.2162,-4.2162,-4.263,-4.0332,-4.0358,-4.0366,-4.0427,-3.9484,-3.8312,-3.7467,0.0,0.0,0.0,-3.2827,-3.2513,-3.3285,0.0,0.0,0.0,0.0,0.0,0.0,0.0,0.0,-4.6124,-4.6644,-4.724,-4.8114,-4.897,-4.9623,-5.0093,-5.0593,-5.062,-4.997,-5.008,-5.014,-5.0154,-5.0154,-4.951,-4.8184,-4.8184,-4.7526,-4.6245,-4.6271,-4.6292,-4.6292,-4.6298,-4.63,-4.63,-4.63,-4.63,-4.63,-4.63,-4.63,-4.63,-4.63,-4.63,-4.63,-4.63,-4.63,-4.63,-4.63,-4.63,-4.63,-4.63,-4.63,-4.63,-4.63,-4.63,-4.63,-4.63,-4.63,-4.6302,-4.6305,-4.6306,-4.6308,-4.6296,-4.6303,-4.6308,-4.6306,-4.6254,-4.621,-4.6203,-4.6167,-4.6154,-4.6154,-4.6148,-4.6144,-4.6154,-4.6141,-4.602,-4.5631,-4.5245,-4.4638,-4.3697,-4.3638,-4.3676,-4.3708,-4.332,-4.3084,-4.3078,-4.2681,-4.2441,-4.2441,-4.2458,-4.2456,-4.2456,-4.2456,-4.2456,-4.2456,-4.2456,-4.2669,-4.3079,-4.3079,-4.3548,-4.0214,-4.028,-4.0317,-4.0372,-3.9116,-3.7622,-3.6768,-3.514,0.0,0.0,-3.187,-3.155,-3.2345,0.0,-3.4347,0.0,-3.8301,-4.0443,0.0,0.0,0.0,0.0,-4.6915,0.0,-4.9212,-4.9538,-4.9904,-5.0538,-5.0691,-5.0867,-5.1095,-5.1265,-5.1356,-5.1382,-5.1382,-5.0644,-4.9084,-4.8892,-4.8014,-4.6479,-4.6336,-4.6282,-4.6282,-4.6271,-4.6296,-4.6298,-4.6298,-4.6298,-4.63,-4.63,-4.63,-4.63,-4.63,-4.63,-4.63,-4.63,-4.63,-4.63,-4.63,-4.63,-4.63,-4.63,-4.63,-4.63,-4.63,-4.63,-4.63,-4.63,-4.63,-4.63,-4.63,-4.63,-4.63,-4.63,-4.6293,-4.6303,-4.6308,-4.6267,-4.6219,-4.6227,-4.6216,-4.6228,-4.6228,-4.6206,-4.6206,-4.6228,-4.6214,-4.6223,-4.6215,-4.6262,-4.5758,-4.4328,-4.4234,-4.4257,-4.4257,-4.4096,-4.3973,-4.3986,-4.3805,-4.3705,-4.3705,-4.3705,-4.3705,-4.3705,-4.3705,-4.3705,-4.3705,-4.3705,-4.3801,-4.3977,-4.3977,-4.4445,-3.9967,-4.0244,-4.0291,-4.032,-3.9001,-3.7519,-3.6689,0.0,0.0,-3.1778,-3.0925,-3.0581,-3.1377,-3.2229,-3.3398,0.0,0.0,-3.8648,0.0,0.0,0.0,-4.5343,0.0,0.0,-4.913,-4.9935,-5.0425,-5.0502,-5.0635,-5.0821,-5.1099,-5.1171,-5.1243,-5.1304,-5.1304,-5.0883,-4.9985,-4.9205,-4.8317,-4.7376,-4.6579,-4.6209,-4.6209,-4.6211,-4.6238,-4.6306,-4.6306,-4.6292,-4.63,-4.63,-4.63,-4.63,-4.63,-4.63,-4.63,-4.63,-4.63,-4.63,-4.63,-4.63,-4.63,-4.63,-4.63,-4.63,-4.63,-4.63,-4.63,-4.63,-4.63,-4.63,-4.63,-4.63,-4.63,-4.63,-4.6308,-4.6296,-4.6302,-4.6306,-4.6289,-4.6289,-4.6287,-4.6285,-4.6285,-4.6243,-4.6222,-4.6285,-4.6286,-4.6288,-4.6289,-4.6308,-4.6248,-4.6065,-4.6051,-4.6052,-4.6062,-4.5337,-4.4884,-4.4875,-4.4133,-4.3705,-4.3705,-4.3705,-4.3705,-4.3705,-4.3705,-4.3705,-4.3705,-4.3705,-4.4114,-4.4875,-4.4875,-4.5343,-3.9232,-3.9795,-4.012,-3.9632,-3.861,-3.7234,-3.54,0.0,-3.2317,-3.0987,-3.0433,-3.03,-3.0624,-3.1389,-3.2363,-3.3532,-3.5578,-3.7621,-3.9365,-4.1473,0.0,-4.5247,-4.6963,0.0,0.0,-4.9982,-5.05,-5.05,-5.0545,-5.0653,-5.0844,-5.103,-5.1166,-5.1239,-5.1276,-5.0883,-5.0045,-4.9227,-4.8353,-4.7486,-4.6618,-4.6195,-4.6195,-4.6203,-4.6211,-4.6236,-4.6236,-4.6262,-4.6292,-4.6292,-4.6292,-4.6292,-4.6292,-4.6288,-4.6243,-4.6243,-4.6267,-4.6292,-4.6292,-4.6296,-4.63,-4.63,-4.63,-4.63,-4.63,-4.63,-4.63,-4.63,-4.63,-4.63,-4.63,-4.63,-4.63,-4.63,-4.6303,-4.6308,-4.6295,-4.6299,-4.6301,-4.6305,-4.6307,-4.6307,-4.6307,-4.6288,-4.6269,-4.6307,-4.6307,-4.6306,-4.6301,-4.6301,-4.6297,-4.6306,-4.6295,-4.6297,-4.6306,-4.5973,-4.5776,-4.5773,-4.546,-4.5265,-4.5265,-4.5265,-4.5265,-4.5265,-4.5265,-4.5265,-4.5265,-4.5265,-4.5441,-4.5773,-4.5773,-4.5968,-3.816,-3.885,-3.9271,-3.8699,-3.7916,-3.6703,0.0,-3.3287,-3.218,-3.0515,-3.0197,-3.0211,-3.0211,-3.1102,-3.2031,-3.2604,-3.5048,-3.7281,-3.851,-4.1054,0.0,0.0,0.0,-4.7986,-4.9058,-4.9939,-5.0457,-5.0468,-5.0489,-5.0554,-5.0692,-5.0925,-5.1081,-5.1161,-5.124,-5.0999,-5.0385,-4.9333,-4.8495,-4.7871,-4.6736,-4.6196,-4.6196,-4.6209,-4.6198,-4.6201,-4.6201,-4.6228,-4.6279,-4.6279,-4.6279,-4.6279,-4.6279,-4.6236,-4.6206,-4.6206,-4.6233,-4.6279,-4.6279,-4.6264,-4.6273,-4.6273,-4.6273,-4.6273,-4.6273,-4.6277,-4.63,-4.63,-4.63,-4.63,-4.63,-4.63,-4.63,-4.63,-4.63,-4.6302,-4.6308,-4.6309,-4.6291,-4.6296,-4.6296,-4.6296,-4.6296,-4.6296,-4.6296,-4.6296,-4.6296,-4.6295,-4.629,-4.6309,-4.6306,-4.6302,-4.6306,-4.6306,-4.6302,-4.63,-4.63,-4.63,-4.63,-4.63,-4.63,-4.63,-4.63,-4.63,-4.63,-4.63,-4.63,-4.6298,-4.6296,-4.6296,-4.6273,-4.6273,-3.6731,-3.7366,-3.7538,-3.7519,-3.691,-3.5873,0.0,-3.3176,-3.2133,-3.0445,-3.0157,-3.0211,-3.0211,-3.1553,-3.2699,-3.2699,-3.5515,-3.7693,-3.7712,-4.0654,0.0,0.0,0.0,-4.7188,-4.8938,-4.9824,-5.0325,-5.0401,-5.0468,-5.0554,-5.0692,-5.0833,-5.0954,-5.1099,-5.1161,-5.1234,-5.13,-4.9625,-4.8806,-4.8768,-4.7037,-4.6199,-4.6199,-4.6199,-4.6209,-4.6206,-4.6206,-4.6195,-4.6206,-4.6206,-4.6206,-4.6206,-4.6206,-4.6206,-4.6206,-4.6206,-4.6206,-4.6206,-4.6206,-4.6209,-4.6209,-4.6209,-4.6209,-4.6209,-4.6209,-4.6245,-4.63,-4.63,-4.63,-4.63,-4.63,-4.63,-4.63,-4.63,-4.63,-4.63,-4.63,-4.63,-4.63,-4.63,-4.63,-4.63,-4.63,-4.63,-4.63,-4.63,-4.63,-4.63,-4.63,-4.63,-4.63,-4.63,-4.63,-4.63,-4.63,-4.63,-4.63,-4.63,-4.63,-4.63,-4.63,-4.63,-4.63,-4.63,-4.63,-4.63,-4.63,-4.629,-4.6306,-4.6303,-4.6233,-4.6209,-3.5066,-3.595,-3.6498,-3.6595,-3.5961,-3.4888,-3.3228,-3.2256,-3.1396,-3.0255,-3.0083,-3.0121,-3.0123,-3.1046,-3.2008,-3.2596,-3.5048,0.0,0.0,0.0,0.0,-4.3157,-4.5144,-4.7188,-4.8938,-4.8826,-4.8887,-4.9475,-4.9112,-4.9144,-4.9787,-4.9413,-4.9789,-5.106,-5.0636,-5.0397,-5.0404,-4.8748,-4.791,-4.7891,-4.6745,-4.6199,-4.6199,-4.6199,-4.6203,-4.6206,-4.6206,-4.6196,-4.6192,-4.6192,-4.6192,-4.6192,-4.6192,-4.6206,-4.6196,-4.6196,-4.6203,-4.6192,-4.6192,-4.6198,-4.6206,-4.6206,-4.6206,-4.6206,-4.6206,-4.6258,-4.6292,-4.6298,-4.63,-4.63,-4.63,-4.63,-4.63,-4.63,-4.63,-4.63,-4.63,-4.63,-4.63,-4.63,-4.63,-4.63,-4.63,-4.63,-4.63,-4.63,-4.63,-4.63,-4.63,-4.63,-4.63,-4.63,-4.63,-4.63,-4.63,-4.63,-4.63,-4.63,-4.63,-4.63,-4.63,-4.63,-4.63,-4.63,-4.63,-4.6298,-4.631,-4.6306,-4.6282,-4.6233,-4.6209,-4.6201,0.0,-3.3928,-3.4469,-3.4569,-3.4213,-3.3488,-3.2128,-3.1501,-3.0947,-3.0127,-3.0022,-3.0061,-3.0098,-3.1066,-3.2122,-3.2977,-3.5247,0.0,0.0,0.0,0.0,-4.3673,0.0,-4.694,-4.8009,-4.7977,-4.8126,-4.8647,-4.8356,-4.84,-4.8985,-4.8655,-4.898,-5.0162,-4.9761,-4.953,-4.9547,-4.8183,-4.7501,-4.7482,-4.6628,-4.6199,-4.6199,-4.6199,-4.6199,-4.6199,-4.6199,-4.6203,0.0,-4.6196,-4.6196,-4.6196,-4.6196,-4.6209,-4.6199,-4.6199,-4.6206,-4.6196,-4.6196,-4.6203,-4.6189,-4.6189,-4.6189,-4.6192,-4.6198,-4.6228,-4.626,-4.6267,-4.6269,-4.6269,-4.6269,-4.6269,-4.6269,-4.6269,-4.6269,-4.6269,-4.6269,-4.6269,-4.6269,-4.6269,-4.6273,-4.6294,-4.6294,-4.6294,-4.6294,-4.6294,-4.6294,-4.6294,-4.6294,-4.6298,-4.63,-4.6296,-4.6294,-4.6294,-4.6251,-4.6292,-4.6292,-4.6249,-4.6269,-4.6269,-4.6269,-4.6269,-4.6269,-4.6269,-4.6269,-4.6267,-4.6258,-4.6253,-4.6245,-4.6189,-4.6189,-4.6206,0.0,-3.1499,-3.1811,-3.1867,-3.1942,-3.18,-3.1052,-3.0894,0.0,-2.9998,-2.9932,-3.0026,-3.0148,-3.1496,-3.2866,-3.3741,-3.5987,0.0,0.0,-4.1683,0.0,0.0,-4.5946,-4.6432,-4.65,-4.7242,-4.7775,-4.7905,-4.7998,-4.8108,-4.8306,-4.8322,-4.8405,-4.8599,-4.8548,-4.8588,-4.8709,-4.7832,-4.7404,-4.7404,-4.6589,-4.6199,-4.6199,-4.6199,-4.6199,-4.6199,-4.6199,-4.6199,-4.6199,-4.6199,-4.6199,-4.6199,-4.6199,-4.6199,-4.6199,-4.6199,-4.6199,-4.6199,-4.6199,-4.6199,-4.6199,-4.6199,-4.6199,-4.6203,-4.6196,-4.6195,-4.6206,-4.6206,-4.6206,-4.6206,-4.6206,-4.6206,-4.6206,-4.6206,-4.6206,-4.6206,-4.6206,-4.6206,-4.6206,-4.6206,-4.6255,-4.6284,-4.6284,-4.6284,-4.6284,-4.6284,-4.6284,-4.6284,-4.6284,-4.6292,-4.6294,-4.6284,-4.6284,-4.6279,-4.6206,-4.6258,-4.6279,-4.6209,-4.6206,-4.6206,-4.6206,-4.6206,-4.6206,-4.6206,-4.6206,-4.6206,-4.6206,-4.6192,-4.6193,-4.6199,-4.6199,-4.6199,-2.8281,0.0,-3.0984,-3.166,-3.1384,-3.0903,0.0,-3.0249,-2.9804,0.0,0.0,0.0,-3.0732,-3.1731,-3.2969,-3.4532,0.0,-3.8194,-3.9898,0.0,0.0,-4.5099,-4.5385,-4.5769,-4.6432,-4.6183,-4.6292,-4.7021,-4.664,-4.6689,-4.7437,-4.6968,-4.6979,-4.7672,-4.7112,-4.7127,-4.7793,-4.6936,-4.6511,-4.6511,-4.6297,-4.6199,-4.6199,-4.6199,-4.6199,-4.6199,-4.6199,-4.6199,-4.6199,-4.6199,-4.6199,-4.6199,-4.6199,-4.6199,-4.6199,-4.6199,-4.6199,-4.6199,-4.6199,-4.6199,-4.6199,-4.6199,-4.6199,-4.6199,-4.6203,-4.6196,-4.6192,-4.6203,-4.6206,-4.6206,-4.6206,-4.6206,-4.6206,-4.6206,-4.6206,-4.6206,-4.6206,-4.6206,-4.6206,-4.6206,-4.6209,-4.6211,-4.6211,-4.6211,-4.6211,-4.6211,-4.6211,-4.6211,-4.6211,-4.6214,-4.6216,-4.6211,-4.6211,-4.6226,-4.6192,-4.6203,-4.6211,-4.6206,-4.6206,-4.6206,-4.6206,-4.6206,-4.6206,-4.6206,-4.6195,-4.6189,-4.6189,-4.6193,-4.6203,-4.6199,-4.6199,-4.6199,-2.7495,-2.8331,-2.9377,-3.021,-3.0145,-2.9865,-2.9898,0.0,0.0,0.0,0.0,0.0,0.0,0.0,0.0,0.0,-3.7309,0.0,0.0,0.0,-4.4581,-4.509,-4.5159,-4.5341,-4.5802,-4.5557,-4.5582,-4.6157,-4.5923,-4.6028,-4.6626,-4.6304,-4.6325,-4.684,-4.6426,-4.6433,-4.6897,-4.6433,-4.6199,-4.6199,-4.6199,-4.6199,-4.6199,-4.6199,-4.6199,-4.6199,-4.6199,-4.6199,-4.6199,-4.6199,-4.6199,-4.6199,-4.6199,-4.6199,-4.6199,-4.6199,-4.6199,-4.6199,-4.6199,-4.6199,-4.6199,-4.6199,-4.6199,-4.6199,-4.6199,-4.6206,-4.6193,-4.6203,-4.6206,-4.6206,-4.6206,-4.6206,-4.6206,-4.6206,-4.6206,-4.6206,-4.6206,-4.6206,-4.6206,-4.6206,-4.6192,-4.6198,-4.6198,-4.6198,-4.6198,-4.6198,-4.6198,-4.6198,-4.6198,-4.6203,-4.6203,-4.6198,-4.6198,-4.6192,-4.6193,-4.6203,-4.6206,-4.6206,-4.6206,-4.6206,-4.6206,-4.6206,-4.6206,-4.6206,-4.6196,-4.6193,-4.6193,-4.6203,-4.6199,-4.6199,-4.6199,-4.6199,-2.7435,-2.7597,-2.7936,-2.8767,-2.9174,-2.936,-2.9419,0.0,0.0,0.0,0.0,0.0,0.0,0.0,0.0,0.0,0.0,0.0,-4.3468,-4.4532,-4.5061,-4.5091,-4.5072,-4.5091,-4.5103,-4.5213,-4.535,-4.5476,-4.5629,-4.5789,-4.5961,-4.6066,-4.6134,-4.6192,-4.6196,-4.6199,-4.6199,-4.6199,-4.6199,-4.6199,-4.6199,-4.6199,-4.6199,-4.6199,-4.6199,-4.6199,-4.6199,-4.6199,-4.6199,-4.6199,-4.6199,-4.6199,-4.6199,-4.6199,-4.6199,-4.6199,-4.6199,-4.6199,-4.6199,-4.6199,-4.6199,-4.6199,-4.6199,-4.6199,-4.6199,-4.6199,-4.6199,-4.6199,-4.6199,-4.6199,-4.6199,-4.6199,-4.6199,-4.6199,-4.6199,-4.6199,-4.6199,-4.6199,-4.6199,-4.6199,-4.619,-4.62,-4.62,-4.62,-4.62,-4.62,-4.62,-4.62,-4.62,-4.6192,-4.6195,-4.6203,-4.62,-4.6193,-4.6199,-4.6199,-4.6199,-4.6199,-4.6199,-4.6199,-4.6199,-4.6199,-4.6199,-4.6199,-4.6199,-4.6199,-4.6199,-4.6199,-4.6199,-4.6199,-4.6199,-4.6199,-2.7245,-2.7794,-2.86,-2.9575,-3.0336,-3.0878,-3.089,0.0,0.0,0.0,0.0,0.0,0.0,-3.4381,-3.5782,0.0,0.0,-4.3265,-4.3656,-4.4426,-4.4943,-4.5022,-4.5022,-4.5045,-4.5084,-4.5213,-4.5329,-4.541,-4.5594,-4.5761,-4.5917,-4.6027,-4.613,-4.6193,-4.6208,-4.6199,-4.6199,-4.6199,-4.6199,-4.6199,-4.6199,-4.6199,-4.6199,-4.6199,-4.6199,-4.6199,-4.6199,-4.6199,-4.6199,-4.6199,-4.6199,-4.6199,-4.6199,-4.6199,-4.6199,-4.6199,-4.6199,-4.6199,-4.6199,-4.6199,-4.6199,-4.6199,-4.6199,-4.6199,-4.6199,-4.6199,-4.6199,-4.6199,-4.6199,-4.6199,-4.6199,-4.6199,-4.6199,-4.6199,-4.6199,-4.6199,-4.6199,-4.6199,-4.6199,-4.6199,-4.6199,-4.6203,-4.6203,-4.6203,-4.6203,-4.6203,-4.6203,-4.6203,-4.6203,-4.6206,-4.6206,-4.6203,-4.6203,-4.6199,-4.6199,-4.6199,-4.6199,-4.6199,-4.6199,-4.6199,-4.6199,-4.6199,-4.6199,-4.6199,-4.6199,-4.6199,-4.6199,-4.6199,-4.6199,-4.6199,-4.6199,-4.6199,-2.7841,-2.8779,-2.9859,-3.0315,-3.0798,-3.1151,-3.1151,0.0,0.0,0.0,0.0,0.0,0.0,0.0,-3.8474,-4.1427,0.0,-4.3853,-4.4289,-4.4668,-4.4907,-4.4931,-4.4962,-4.4955,-4.4979,-4.5091,-4.5184,-4.5292,-4.5472,-4.5661,-4.5835,-4.5966,-4.608,-4.6205,-4.6197,-4.6208,-4.6199,-4.6199,-4.6199,-4.6199,-4.6199,-4.6199,-4.6199,-4.6199,-4.6199,-4.6199,-4.6199,-4.6199,-4.6199,-4.6199,-4.6199,-4.6199,-4.6199,-4.6199,-4.6199,-4.6199,-4.6199,-4.6199,-4.6199,-4.6199,-4.6199,-4.6199,-4.6199,-4.6199,-4.6199,-4.6199,-4.6199,-4.6199,-4.6199,-4.6199,-4.6199,-4.6199,-4.6199,-4.6199,-4.6199,-4.6199,-4.6199,-4.6199,-4.6199,-4.6199,-4.6199,-4.6199,-4.6199,-4.6199,-4.6199,-4.6199,-4.6199,-4.6199,-4.6199,-4.6199,-4.6199,-4.6199,-4.6199,-4.6199,-4.6199,-4.6199,-4.6199,-4.6199,-4.6199,-4.6199,-4.6199,-4.6199,-4.6199,-4.6199,-4.6199,-4.6199,-4.6199,-4.6199,-4.6199,-4.6199,-4.6199,-4.6199,-2.8237,-2.9251,-3.0302,-3.0679,-3.1181,-3.1632,-3.1859,0.0,0.0,0.0,0.0,0.0,0.0,-3.8101,0.0,-4.3348,-4.3853,-4.4194,-4.4819,-4.4895,-4.4895,-4.4895,-4.4895,-4.4895,-4.4895,-4.4955,-4.5061,-4.5167,-4.5362,-4.5549,-4.5728,-4.5898,-4.6032,-4.6156,-4.6173,-4.617,-4.6192,-4.6192,-4.6192,-4.6199,-4.6199,-4.6199,-4.6199,-4.6199,-4.6199,-4.6199,-4.6199,-4.6199,-4.6199,-4.6199,-4.6199,-4.6199,-4.6199,-4.6199,-4.6199,-4.6199,-4.6199,-4.6199,-4.6199,-4.6199,-4.6199,-4.6199,-4.6199,-4.6199,-4.6199,-4.6199,-4.6199,-4.6199,-4.6199,-4.6199,-4.6199,-4.6199,-4.6199,-4.6199,-4.6199,-4.6199,-4.6199,-4.6199,-4.6199,-4.6199,-4.6199,-4.6199,-4.6199,-4.6199,-4.6199,-4.6199,-4.6199,-4.6199,-4.6199,-4.6199,-4.6199,-4.6199,-4.6199,-4.6199,-4.6199,-4.6199,-4.6199,-4.6199,-4.6199,-4.6199,-4.6199,-4.6199,-4.6199,-4.6199,-4.6199,-4.6199,-4.6199,-4.6199,-4.6199,-4.6199,-4.6199,-4.6199,-2.7817,-2.8335,-2.8851,-3.032,-3.1832,0.0,-3.4053,-3.4307,0.0,-3.5501,0.0,0.0,0.0,-4.0146,-4.2475,-4.3538,-4.4326,-4.4838,-4.4895,-4.4895,-4.4895,-4.4895,-4.4895,-4.4895,-4.4895,-4.4955,-4.5026,-4.5095,-4.5291,-4.5447,-4.5516,-4.5768,-4.5935,-4.6008,-4.6061,-4.6149,-4.6209,-4.6189,-4.6201,-4.6199,-4.6199,-4.6199,-4.6199,-4.6199,-4.6199,-4.6199,-4.6199,-4.6199,-4.6199,-4.6199,-4.6199,-4.6199,-4.6199,-4.6199,-4.6199,-4.6199,-4.6199,-4.6199,-4.6199,-4.6199,-4.6199,-4.6199,-4.6199,-4.6199,-4.6199,-4.6199,-4.6199,-4.6199,-4.6199,-4.6199,-4.6199,-4.6199,-4.6199,-4.6199,-4.6199,-4.6199,-4.6199,-4.6199,-4.6199,-4.6199,-4.6199,-4.6199,-4.6199,-4.6199,-4.6199,-4.6199,-4.6199,-4.6199,-4.6199,-4.6199,-4.6199,-4.6199,-4.6199,-4.6199,-4.6199,-4.6199,-4.6199,-4.6199,-4.6199,-4.6199,-4.6199,-4.6199,-4.6199,-4.6199,-4.6199,-4.6199,-4.6199,-4.6199,-4.6199,-4.6199,-4.6199,-4.6199,-2.7892,-2.8919,-2.9823,-3.0412,0.0,0.0,0.0,-3.494,-3.561,-3.6608,-3.7846,0.0,0.0,0.0,-4.345,-4.4308,-4.4706,-4.4895,-4.4895,-4.4895,-4.4895,-4.4895,-4.4895,-4.4895,-4.4895,-4.4919,-4.4974,-4.5026,-4.5184,-4.5321,-4.5438,-4.561,-4.5754,-4.5873,-4.5969,-4.6066,-4.6147,-4.6141,-4.6158,-4.6201,-4.6192,-4.6199,-4.6199,-4.6199,-4.6199,-4.6199,-4.6199,-4.6199,-4.6199,-4.6199,-4.6199,-4.6199,-4.6199,-4.6199,-4.6199,-4.6199,-4.6199,-4.6199,-4.6199,-4.6189,-4.6201,-4.6201,-4.6162,-4.6141,-4.6138,-4.613,-4.6145,-4.6193,-4.6201,-4.6201,-4.6196,-4.6199,-4.6199,-4.6199,-4.6199,-4.6199,-4.6199,-4.6199,-4.6199,-4.6199,-4.6199,-4.6199,-4.6199,-4.6199,-4.6199,-4.6199,-4.6199,-4.6199,-4.6199,-4.6199,-4.6199,-4.6199,-4.6199,-4.6199,-4.6199,-4.6199,-4.6199,-4.6199,-4.6199,-4.6199,-4.6199,-4.6199,-4.6199,-4.6199,-4.6199,-4.6199,-4.6199,-4.6199,-4.6199,-4.6199,-4.6199,-4.6199,-2.7839,-2.8962,-2.9958,0.0,0.0,0.0,-3.5319,-3.6049,-3.6759,-3.7797,-3.9399,-4.1173,-4.3053,0.0,0.0,-4.4781,-4.4895,-4.4895,-4.4895,-4.4895,-4.4895,-4.4895,-4.4895,-4.4895,-4.4895,-4.4895,-4.4919,-4.4955,-4.5061,-4.5184,-4.5301,-4.5447,-4.5585,-4.5706,-4.5867,-4.5986,-4.6075,-4.6061,-4.6108,-4.6177,-4.6174,-4.6185,-4.6199,-4.6199,-4.6199,-4.6199,-4.6199,-4.6199,-4.6199,-4.6199,-4.6199,-4.6199,-4.6199,-4.6199,-4.6199,-4.6199,-4.6199,-4.6196,-4.6192,-4.6197,-4.6158,-4.6141,-4.611,-4.6056,-4.6047,-4.6042,-4.6081,-4.6119,-4.6132,-4.6141,-4.6166,-4.6185,-4.6199,-4.6199,-4.6199,-4.6199,-4.6199,-4.6199,-4.6199,-4.6199,-4.6199,-4.6199,-4.6199,-4.6199,-4.6199,-4.6199,-4.6199,-4.6199,-4.6199,-4.6199,-4.6199,-4.6199,-4.6199,-4.6199,-4.6199,-4.6199,-4.6199,-4.6199,-4.6199,-4.6199,-4.6199,-4.6199,-4.6199,-4.6199,-4.6199,-4.6199,-4.6199,-4.6199,-4.6199,-4.6199,-4.6199,-4.6199,-2.7571,-2.8231,-2.883,0.0,0.0,0.0,-3.7245,-3.795,-3.8236,-3.9392,-4.0763,-4.2072,-4.3198,-4.3517,-4.3881,-4.4769,-4.4895,-4.4895,-4.4895,-4.4895,-4.4895,-4.4895,-4.4895,-4.4895,-4.4895,-4.4895,-4.4895,-4.4895,-4.4955,-4.5033,-4.5103,-4.5291,-4.5428,-4.5509,-4.5681,-4.5854,-4.5991,-4.6005,-4.6027,-4.6093,-4.6098,-4.6138,-4.6199,-4.6199,-4.6199,-4.6199,-4.6199,-4.6199,-4.6199,-4.6199,-4.6199,-4.6199,-4.6199,-4.6199,-4.6199,-4.6199,-4.6199,-4.6196,-4.6193,-4.6154,-4.6089,-4.6017,-4.6,-4.5986,-4.5917,-4.5949,-4.5991,-4.5997,-4.5994,-4.6007,-4.6071,-4.6149,-4.6196,-4.6196,-4.6199,-4.6199,-4.6199,-4.6199,-4.6199,-4.6199,-4.6199,-4.6199,-4.6199,-4.6199,-4.6199,-4.6199,-4.6199,-4.6199,-4.6199,-4.6199,-4.6199,-4.6199,-4.6199,-4.6199,-4.6199,-4.6199,-4.6199,-4.6199,-4.6199,-4.6199,-4.6199,-4.6199,-4.6199,-4.6199,-4.6199,-4.6199,-4.6199,-4.6199,-4.6199,-4.6199,-4.6199,-4.6199,-2.8392,-2.9408,0.0,-3.2146,0.0,0.0,0.0,-3.833,0.0,0.0,-4.2728,-4.3333,-4.3876,-4.4183,-4.448,-4.477,-4.4858,-4.4895,-4.4895,-4.4895,-4.4895,-4.4895,-4.4895,-4.4895,-4.4895,-4.4895,-4.4895,-4.4895,-4.4907,-4.4955,-4.5033,-4.5129,-4.526,-4.5428,-4.558,-4.5723,-4.5854,-4.5955,-4.6011,-4.6022,-4.6081,-4.6137,-4.6197,-4.6197,-4.6204,-4.6199,-4.6199,-4.6199,-4.6199,-4.6199,-4.6199,-4.6199,-4.6199,-4.6199,-4.6199,-4.6199,-4.6208,-4.6193,-4.6154,-4.609,-4.6005,-4.5904,-4.5828,-4.5791,-4.5764,-4.5764,-4.5805,-4.586,-4.5899,-4.5931,-4.5941,-4.6005,-4.6076,-4.6181,-4.6197,-4.6201,-4.6196,-4.6199,-4.6199,-4.6199,-4.6199,-4.6199,-4.6199,-4.6199,-4.6199,-4.6199,-4.6199,-4.6199,-4.6199,-4.6199,-4.6199,-4.6199,-4.6199,-4.6199,-4.6199,-4.6199,-4.6199,-4.6199,-4.6199,-4.6199,-4.6199,-4.6199,-4.6199,-4.6199,-4.6199,-4.6199,-4.6199,-4.6199,-4.6192,-4.6197,-4.6197,-4.617,-2.8744,-2.994,0.0,-3.293,-3.4968,-3.6952,-3.8761,0.0,0.0,0.0,-4.3458,-4.3791,-4.4075,-4.4374,-4.4632,-4.4732,-4.4827,-4.4858,-4.4895,-4.4895,-4.4895,-4.4895,-4.4895,-4.4895,-4.4895,-4.4895,-4.4895,-4.4895,-4.4895,-4.4907,-4.4955,-4.5014,-4.514,-4.532,-4.5447,-4.5596,-4.5757,-4.5874,-4.5923,-4.5964,-4.6035,-4.6071,-4.6128,-4.6149,-4.6166,-4.6208,-4.6196,-4.6199,-4.6199,-4.6199,-4.6199,-4.6199,-4.6199,-4.6199,-4.6196,-4.6208,-4.6174,-4.6149,-4.609,-4.6,-4.5906,-4.5761,-4.5677,-4.5627,-4.559,-4.559,-4.5643,-4.5673,-4.5739,-4.5776,-4.5773,-4.5834,-4.5918,-4.6085,-4.6147,-4.6165,-4.6158,-4.6174,-4.6204,-4.6204,-4.6192,-4.6199,-4.6199,-4.6199,-4.6199,-4.6199,-4.6199,-4.6199,-4.6199,-4.6199,-4.6199,-4.6199,-4.6199,-4.6199,-4.6199,-4.6199,-4.6199,-4.6199,-4.6199,-4.6199,-4.6199,-4.6199,-4.6199,-4.6199,-4.6199,-4.6199,-4.6199,-4.6189,-4.6201,-4.6209,-4.6181,-4.6149,-2.8852,0.0,0.0,-3.3693,-3.5608,0.0,-4.0772,-4.1645,-4.1994,-4.2812,0.0,-4.3631,-4.3892,-4.4173,-4.444,-4.4646,-4.4719,-4.4815,-4.487,-4.4883,-4.4883,-4.4895,-4.4895,-4.4895,-4.4895,-4.4895,-4.4895,-4.4895,-4.4895,-4.4895,-4.4895,-4.4955,-4.5038,-4.5181,-4.533,-4.5485,-4.5684,-4.5757,-4.5815,-4.588,-4.5955,-4.5983,-4.5997,-4.6071,-4.6126,-4.6185,-4.6185,-4.6192,-4.6192,-4.6192,-4.6192,-4.6196,-4.6192,-4.6192,-4.6192,-4.6193,-4.6149,-4.608,-4.6019,-4.5906,-4.5778,-4.5629,-4.5538,-4.5476,-4.541,-4.5448,-4.5485,-4.5485,-4.5532,-4.5586,-4.5582,-4.5632,-4.5712,-4.5906,-4.6019,-4.6085,-4.609,-4.6147,-4.6177,-4.6177,-4.6174,-4.6189,-4.6189,-4.6189,-4.6192,-4.6196,-4.6196,-4.6199,-4.6199,-4.6199,-4.6199,-4.6199,-4.6199,-4.6199,-4.6199,-4.6199,-4.6199,-4.6199,-4.6196,-4.6196,-4.6196,-4.6196,-4.6199,-4.6199,-4.6196,-4.6196,-4.6196,-4.6197,-4.6185,-4.6181,-4.6122,-4.6089,0.0,-3.1296,0.0,0.0,-3.7095,-3.9703,-4.1652,-4.2217,-4.2428,-4.2786,-4.3013,-4.3214,-4.3548,-4.3878,-4.4173,-4.4426,-4.4565,-4.4667,-4.4796,-4.4821,-4.4833,-4.4883,-4.4895,-4.4895,-4.4895,-4.4895,-4.4895,-4.4895,-4.4895,-4.4895,-4.4895,-4.4907,-4.4979,-4.5125,-4.5188,-4.5342,-4.5549,-4.5657,-4.5757,-4.5827,-4.5887,-4.5918,-4.5935,-4.6056,-4.6099,-4.6122,-4.613,-4.6111,-4.6111,-4.6111,-4.6142,-4.6193,-4.6138,-4.6142,-4.6193,-4.613,-4.6075,-4.6007,-4.5879,-4.5794,-4.5688,-4.5493,-4.5429,-4.5409,-4.5339,-4.5379,-4.5409,-4.5369,-4.5399,-4.5438,-4.5429,-4.5448,-4.5494,-4.5582,-4.5791,-4.5956,-4.6003,-4.6025,-4.6041,-4.6042,-4.6032,-4.6061,-4.6119,-4.6123,-4.6137,-4.6189,-4.6208,-4.6199,-4.6199,-4.6199,-4.6199,-4.6199,-4.6199,-4.6199,-4.6199,-4.6199,-4.6199,-4.6199,-4.6204,-4.6193,-4.6193,-4.6208,-4.6199,-4.6199,-4.6204,-4.6193,-4.6193,-4.6154,-4.6113,-4.6114,-4.6052,-4.6026,0.0,0.0,0.0,-3.5578,0.0,-4.0305,-4.193,-4.2346,-4.2427,-4.2548,-4.2728,-4.2975,-4.316,-4.3461,-4.3761,-4.406,-4.4288,-4.4491,-4.4685,-4.4719,-4.4789,-4.4833,-4.4846,-4.4858,-4.4895,-4.4895,-4.4895,-4.4895,-4.4895,-4.4895,-4.4895,-4.4895,-4.4943,-4.5057,-4.5109,-4.521,-4.5371,-4.5494,-4.5607,-4.5715,-4.5769,-4.5826,-4.5867,-4.5994,-4.6076,-4.6099,-4.6093,-4.6098,-4.6098,-4.6098,-4.6122,-4.6154,-4.6102,-4.6122,-4.6149,-4.6075,-4.6007,-4.5922,-4.5808,-4.5669,-4.5538,-4.54,-4.5309,-4.5254,-4.5213,-4.5224,-4.5254,-4.5213,-4.5224,-4.5256,-4.5297,-4.5309,-4.532,-4.54,-4.5582,-4.5764,-4.5807,-4.5854,-4.5893,-4.5892,-4.5941,-4.5964,-4.6,-4.6021,-4.6081,-4.6145,-4.617,-4.6208,-4.6196,-4.6208,-4.6204,-4.6204,-4.6177,-4.615,-4.615,-4.615,-4.615,-4.615,-4.6158,-4.6154,-4.6154,-4.6146,-4.615,-4.615,-4.6158,-4.6154,-4.6154,-4.6108,-4.6085,-4.6042,-4.6011,-4.5983,0.0,0.0,0.0,0.0,-3.8754,0.0,-4.1752,-4.2218,-4.2308,-4.2308,-4.2548,-4.2764,-4.2843,-4.3069,-4.3338,-4.3658,-4.3934,-4.4196,-4.4477,-4.4605,-4.4685,-4.4764,-4.4789,-4.4808,-4.4889,-4.487,-4.4883,-4.4895,-4.4895,-4.4895,-4.4895,-4.4895,-4.4938,-4.4967,-4.5057,-4.5109,-4.5169,-4.5292,-4.5438,-4.5559,-4.5627,-4.5696,-4.5759,-4.5886,-4.5994,-4.6075,-4.6061,-4.6071,-4.6071,-4.6075,-4.608,-4.6084,-4.6084,-4.6084,-4.608,-4.6012,-4.5953,-4.5854,-4.5727,-4.5565,-4.539,-4.5309,-4.5192,-4.5103,-4.5103,-4.5103,-4.5103,-4.5091,-4.5091,-4.5103,-4.5148,-4.517,-4.5181,-4.5254,-4.539,-4.5528,-4.5545,-4.5645,-4.5715,-4.5723,-4.5787,-4.5841,-4.5848,-4.591,-4.5997,-4.6071,-4.6141,-4.6185,-4.6185,-4.6174,-4.6181,-4.6181,-4.6126,-4.6098,-4.6098,-4.6098,-4.6098,-4.6098,-4.6093,-4.6089,-4.6084,-4.608,-4.6075,-4.6071,-4.6084,-4.6089,-4.6084,-4.6081,-4.6051,-4.5986,-4.5978,-4.5949,0.0,0.0,0.0,0.0,-3.8754,-4.0126,0.0,0.0,-4.2308,0.0,-4.2445,-4.2566,-4.2629,-4.2824,-4.3032,-4.332,-4.3545,-4.3793,-4.4106,-4.4321,-4.4482,-4.4605,-4.4685,-4.4751,-4.4815,-4.4808,-4.4833,-4.4914,-4.4895,-4.4895,-4.4895,-4.4895,-4.4895,-4.4907,-4.4986,-4.5057,-4.5106,-4.5203,-4.5269,-4.5342,-4.5466,-4.5556,-4.5629,-4.5712,-4.5812,-4.5925,-4.5923,-4.5935,-4.5935,-4.5983,-4.6011,-4.6012,-4.6012,-4.6012,-4.6007,-4.5994,-4.5925,-4.578,-4.5661,-4.5519,-4.5381,-4.5237,-4.5159,-4.5103,-4.5103,-4.5103,-4.5091,-4.5026,-4.5003,-4.5022,-4.5014,-4.5033,-4.5038,-4.5114,-4.514,-4.5197,-4.5322,-4.5342,-4.5371,-4.5438,-4.5509,-4.5558,-4.5637,-4.5735,-4.586,-4.5983,-4.6075,-4.6119,-4.6102,-4.6102,-4.6102,-4.6102,-4.6117,-4.6098,-4.6098,-4.6098,-4.6098,-4.6098,-4.6095,-4.6076,-4.6012,-4.6005,-4.5983,-4.5935,-4.6051,-4.6076,-4.6012,-4.6005,-4.5972,-4.5904,-4.5906,-4.5912,-2.8312,0.0,0.0,0.0,-3.7773,-3.8933,-4.0164,-4.0699,-4.0967,-4.0967,-4.1364,-4.185,-4.234,-4.2568,-4.2746,-4.2939,-4.3214,-4.3478,-4.3777,-4.4017,-4.4233,-4.436,-4.4505,-4.4619,-4.4685,-4.4706,-4.4757,-4.4833,-4.4833,-4.4858,-4.4895,-4.4895,-4.4895,-4.4895,-4.4919,-4.4955,-4.4998,-4.5049,-4.514,-4.5248,-4.533,-4.54,-4.5419,-4.5456,-4.5596,-4.578,-4.588,-4.5899,-4.5906,-4.5937,-4.5941,-4.5947,-4.5929,-4.5943,-4.5937,-4.5906,-4.5812,-4.5669,-4.5537,-4.541,-4.5269,-4.5117,-4.5038,-4.4998,-4.4998,-4.4998,-4.4979,-4.4943,-4.4943,-4.4943,-4.4979,-4.4967,-4.4955,-4.5033,-4.5022,-4.5003,-4.5065,-4.5164,-4.5269,-4.532,-4.537,-4.54,-4.5438,-4.5535,-4.5658,-4.5761,-4.5854,-4.5969,-4.6027,-4.6037,-4.6037,-4.6037,-4.6042,-4.6026,-4.5991,-4.5991,-4.5991,-4.5991,-4.6,-4.5964,-4.5953,-4.5941,-4.5923,-4.5892,-4.5953,-4.5964,-4.5933,-4.5935,-4.5937,-4.5899,-4.5906,-4.5886,0.0,0.0,0.0,-3.4991,-3.6542,-3.7879,0.0,0.0,-3.9895,-3.9895,-4.0396,-4.0985,-4.1573,-4.2098,-4.2488,-4.2631,-4.2863,-4.3142,-4.3391,-4.3646,-4.3873,-4.4026,-4.4233,-4.4397,-4.4491,-4.456,-4.4659,-4.4732,-4.477,-4.4821,-4.487,-4.4883,-4.4895,-4.4895,-4.4895,-4.4895,-4.4895,-4.4943,-4.5026,-4.5148,-4.5192,-4.5224,-4.5246,-4.5279,-4.5371,-4.5585,-4.5742,-4.5812,-4.5826,-4.5854,-4.5874,-4.5867,-4.586,-4.5847,-4.5852,-4.5761,-4.5657,-4.5537,-4.541,-4.53,-4.5159,-4.5045,-4.4943,-4.4895,-4.4895,-4.4895,-4.4895,-4.4895,-4.4895,-4.4907,-4.4955,-4.4931,-4.4907,-4.4955,-4.4931,-4.4895,-4.4895,-4.5033,-4.5136,-4.5181,-4.5203,-4.5235,-4.525,-4.5351,-4.5456,-4.5558,-4.5676,-4.5802,-4.5922,-4.5964,-4.5969,-4.5975,-4.5978,-4.5955,-4.5892,-4.5911,-4.5911,-4.5911,-4.5911,-4.5905,-4.5899,-4.5899,-4.5893,-4.5867,-4.5867,-4.5886,-4.5899,-4.5899,-4.5899,-4.5867,-4.5867,-4.5854,0.0,-2.9804,0.0,-3.2755,0.0,0.0,0.0,0.0,-3.9895,-3.9895,-3.993,-3.9966,-4.0019,-4.127,-4.2366,-4.2503,-4.2588,-4.2689,-4.2901,-4.3178,-4.3408,-4.3612,-4.3814,-4.4005,-4.421,-4.435,-4.4468,-4.4605,-4.4738,-4.4796,-4.4815,-4.4877,-4.4895,-4.4895,-4.4895,-4.4895,-4.4895,-4.4895,-4.4931,-4.5003,-4.5003,-4.5057,-4.5114,-4.5181,-4.5213,-4.5246,-4.5505,-4.5618,-4.5621,-4.5746,-4.5815,-4.5795,-4.5737,-4.5708,-4.5688,-4.5648,-4.5519,-4.541,-4.5332,-4.5218,-4.5103,-4.5014,-4.4943,-4.4895,-4.4895,-4.4895,-4.4895,-4.4895,-4.4895,-4.4895,-4.4895,-4.4895,-4.4895,-4.4895,-4.4895,-4.4895,-4.4895,-4.4907,-4.4907,-4.4919,-4.4967,-4.5045,-4.5095,-4.5175,-4.5273,-4.5485,-4.5573,-4.5661,-4.578,-4.5867,-4.5919,-4.5911,-4.5911,-4.5892,-4.5892,-4.5911,-4.5911,-4.5911,-4.5911,-4.5893,-4.59,-4.59,-4.5867,-4.5814,-4.5814,-4.5847,-4.59,-4.59,-4.586,-4.5807,-4.5807,-4.5807,0.0,0.0,0.0,-3.2157,-3.3627,-3.4887,-3.6417,-3.7237,-3.7809,-3.8308,-3.8826,-3.9181,-3.9181,-4.0467,-4.1558,-4.1598,-4.2125,-4.2568,-4.2689,-4.2901,-4.3087,-4.3196,-4.3442,-4.361,-4.3691,-4.3905,-4.4158,-4.4331,-4.4477,-4.4613,-4.4783,-4.4821,-4.4865,-4.4895,-4.4895,-4.4895,-4.4895,-4.4895,-4.4907,-4.495,-4.495,-4.4943,-4.4967,-4.501,-4.5026,-4.5091,-4.5216,-4.5351,-4.5475,-4.5575,-4.5601,-4.5601,-4.5528,-4.5493,-4.5438,-4.5429,-4.5351,-4.5258,-4.5186,-4.5117,-4.5014,-4.4955,-4.4919,-4.4895,-4.4895,-4.4895,-4.4895,-4.4895,-4.4895,-4.4895,-4.4895,-4.4895,-4.4895,-4.4895,-4.4895,-4.4895,-4.4895,-4.4895,-4.4895,-4.4895,-4.4919,-4.4931,-4.4955,-4.5038,-4.5109,-4.5227,-4.5381,-4.5519,-4.5653,-4.5771,-4.586,-4.5893,-4.5899,-4.5887,-4.5848,-4.5841,-4.5841,-4.5841,-4.5841,-4.5841,-4.5847,-4.5847,-4.5821,-4.5807,-4.5807,-4.5814,-4.5847,-4.5847,-4.5821,-4.5807,-4.5807,-4.5807,-2.5963,0.0,0.0,0.0,0.0,-3.3183,-3.4746,-3.558,-3.6238,-3.7041,-3.7612,-3.8094,-3.8344,-3.9468,-4.0503,-4.102,-4.1616,-4.2123,-4.2454,-4.2649,-4.2786,-4.2844,-4.3069,-4.3213,-4.3248,-4.3563,-4.3846,-4.4011,-4.4262,-4.4496,-4.4699,-4.4757,-4.4821,-4.4895,-4.4895,-4.4895,-4.4895,-4.4895,-4.4895,-4.4895,-4.4895,-4.4895,-4.4895,-4.4895,-4.4919,-4.4967,-4.5003,-4.5151,-4.5351,-4.54,-4.5429,-4.5438,-4.537,-4.5301,-4.526,-4.5246,-4.5192,-4.5125,-4.5091,-4.5014,-4.4955,-4.4907,-4.4895,-4.4895,-4.4895,-4.4895,-4.4895,-4.4895,-4.4895,-4.4895,-4.4895,-4.4895,-4.4895,-4.4895,-4.4895,-4.4895,-4.4895,-4.4895,-4.4895,-4.4895,-4.4895,-4.4895,-4.4895,-4.4931,-4.4979,-4.5068,-4.5227,-4.5381,-4.551,-4.5653,-4.5764,-4.5859,-4.5873,-4.5854,-4.5807,-4.5807,-4.5807,-4.5807,-4.5807,-4.5807,-4.5807,-4.5807,-4.5807,-4.5807,-4.5807,-4.5807,-4.5807,-4.5807,-4.5807,-4.5807,-4.5807,-4.5807,0.0,0.0,0.0,0.0,0.0,0.0,-3.2737,-3.3977,-3.5364,-3.6167,-3.6363,-3.6631,-3.7434,-3.8219,-3.9272,-4.0788,-4.1074,-4.1377,-4.22,-4.2425,-4.2506,-4.2589,-4.2706,-4.2842,-4.2976,-4.3304,-4.3548,-4.3679,-4.4109,-4.4411,-4.4501,-4.4699,-4.4821,-4.4883,-4.4895,-4.4895,-4.4895,-4.4895,-4.4895,-4.4895,-4.4895,-4.4895,-4.4895,-4.4895,-4.4895,-4.4895,-4.4895,-4.5003,-4.5192,-4.5256,-4.5297,-4.5286,-4.5213,-4.5192,-4.5181,-4.5125,-4.5038,-4.501,-4.501,-4.4943,-4.4895,-4.4895,-4.4895,-4.4895,-4.4895,-4.4895,-4.4895,-4.4895,-4.4895,-4.4895,-4.4895,-4.4895,-4.4895,-4.4895,-4.4895,-4.4895,-4.4895,-4.4895,-4.4895,-4.4895,-4.4895,-4.4895,-4.4895,-4.4895,-4.4919,-4.4998,-4.5114,-4.5237,-4.5381,-4.551,-4.5648,-4.5773,-4.5798,-4.5807,-4.5807,-4.5807,-4.5807,-4.5807,-4.5807,-4.5807,-4.5807,-4.5807,-4.5807,-4.5807,-4.5807,-4.5807,-4.5807,-4.5807,-4.5807,-4.5807,-4.5807,-4.5807,-2.501,0.0,0.0,0.0,0.0,0.0,-3.1593,-3.2734,-3.3758,-3.4579,-3.5614,-3.647,-3.6684,-3.738,-3.8255,-3.9272,-4.0378,-4.1377,-4.22,-4.2328,-4.2366,-4.2389,-4.2488,-4.2586,-4.2627,-4.2993,-4.3304,-4.3475,-4.3873,-4.4218,-4.4487,-4.4699,-4.4815,-4.4821,-4.487,-4.4895,-4.4895,-4.4895,-4.4895,-4.4895,-4.4895,-4.4895,-4.4895,-4.4895,-4.4895,-4.4895,-4.4895,-4.4931,-4.4998,-4.5068,-4.5091,-4.5091,-4.5049,-4.5033,-4.4967,-4.4955,-4.4931,-4.4919,-4.4919,-4.4926,-4.4895,-4.4895,-4.4895,-4.4895,-4.4895,-4.4895,-4.4895,-4.4895,-4.4895,-4.4895,-4.4895,-4.4895,-4.4895,-4.4895,-4.4895,-4.4895,-4.4895,-4.4895,-4.4895,-4.4895,-4.4895,-4.4895,-4.4895,-4.4895,-4.4907,-4.4919,-4.5038,-4.5162,-4.5232,-4.541,-4.5573,-4.5708,-4.5781,-4.5798,-4.58,-4.5807,-4.5807,-4.5807,-4.5807,-4.5807,-4.5807,-4.5807,-4.5807,-4.5807,-4.5807,-4.5807,-4.5807,-4.5807,-4.5807,-4.5807,-4.5807,-4.5807,-2.5546,-2.5851,0.0,-2.7967,0.0,0.0,-3.0271,-3.1491,-3.2632,-3.3419,-3.4613,-3.5576,-3.5916,-3.6613,-3.7399,-3.8202,-3.9362,-4.0538,-4.1627,-4.2093,-4.2308,-4.2308,-4.2366,-4.2445,-4.2483,-4.2803,-4.3087,-4.3303,-4.3714,-4.4131,-4.4487,-4.4605,-4.4725,-4.4815,-4.4833,-4.487,-4.4895,-4.4895,-4.4895,-4.4895,-4.4895,-4.4895,-4.4895,-4.4895,-4.4895,-4.4895,-4.4895,-4.4895,-4.4895,-4.4931,-4.4955,-4.4955,-4.4955,-4.4931,-4.4895,-4.4895,-4.4895,-4.4895,-4.4895,-4.4895,-4.4895,-4.4895,-4.4895,-4.4895,-4.4895,-4.4895,-4.4895,-4.4895,-4.4895,-4.4895,-4.4895,-4.4895,-4.4895,-4.4895,-4.4895,-4.4895,-4.4895,-4.4895,-4.4895,-4.4895,-4.4895,-4.4895,-4.4895,-4.4895,-4.4895,-4.4895,-4.4979,-4.5084,-4.5154,-4.5321,-4.5466,-4.559,-4.5684,-4.5731,-4.5757,-4.5757,-4.5757,-4.5757,-4.5757,-4.5757,-4.5757,-4.5757,-4.5757,-4.5757,-4.5757,-4.5757,-4.5757,-4.5793,-4.5807,-4.5807,-4.5807,-4.5807,-2.6665,-2.6756,0.0,-2.7754,-2.8611,0.0,-2.9136,-3.046,-3.1882,-3.2523,-3.3498,-3.4442,-3.5159,-3.591,-3.6664,-3.747,-3.8221,-3.9255,-4.086,-4.1716,-4.2218,-4.2308,-4.2308,-4.2346,-4.2463,-4.2727,-4.2957,-4.3123,-4.3599,-4.4039,-4.4411,-4.444,-4.4565,-4.4745,-4.4789,-4.4808,-4.4883,-4.4895,-4.4895,-4.4895,-4.4895,-4.4895,-4.4895,-4.4895,-4.4895,-4.4895,-4.4895,-4.4895,-4.4895,-4.4895,-4.4895,-4.4895,-4.4895,-4.4895,-4.4895,-4.4895,-4.4895,-4.4895,-4.4895,-4.4895,-4.4895,-4.4895,-4.4895,-4.4895,-4.4895,-4.4895,-4.4895,-4.4895,-4.4895,-4.4895,-4.4895,-4.4895,-4.4895,-4.4895,-4.4895,-4.4895,-4.4895,-4.4895,-4.4895,-4.4895,-4.4895,-4.4895,-4.4895,-4.4895,-4.4895,-4.4895,-4.4943,-4.5003,-4.5091,-4.5197,-4.5322,-4.5448,-4.5528,-4.5596,-4.5665,-4.5692,-4.5692,-4.5692,-4.5692,-4.5692,-4.5692,-4.5692,-4.5692,-4.5692,-4.5692,-4.5692,-4.5692,-4.5757,-4.5793,-4.5793,-4.5793,-4.5793,-2.8372,-2.8176,-2.7891,-2.9356,-2.9889,0.0,-2.9319,-3.0517,-3.1667,-3.1296,-3.2883,-3.442,-3.4564,-3.5297,-3.6089,-3.6852,-3.7645,-3.8852,-4.0828,-4.1234,-4.1573,-4.2216,-4.2308,-4.2308,-4.2346,-4.2629,-4.2805,-4.2788,-4.3338,-4.3747,-4.4008,-4.417,-4.4331,-4.4482,-4.4646,-4.4745,-4.4808,-4.487,-4.4895,-4.4895,-4.4895,-4.4895,-4.4895,-4.4895,-4.4895,-4.4895,-4.4895,-4.4895,-4.4895,-4.4895,-4.4895,-4.4895,-4.4895,-4.4895,-4.4895,-4.4895,-4.4895,-4.4895,-4.4895,-4.4895,-4.4895,-4.4895,-4.4895,-4.4895,-4.4895,-4.4895,-4.4895,-4.4895,-4.4895,-4.4895,-4.4895,-4.4895,-4.4895,-4.4895,-4.4895,-4.4895,-4.4895,-4.4895,-4.4895,-4.4895,-4.4895,-4.4895,-4.4895,-4.4895,-4.4895,-4.4895,-4.4907,-4.4931,-4.5003,-4.5084,-4.5164,-4.5262,-4.5371,-4.5466,-4.554,-4.5594,-4.562,-4.562,-4.562,-4.562,-4.562,-4.562,-4.562,-4.562,-4.562,-4.562,-4.562,-4.5692,-4.5712,-4.5712,-4.5712,-4.5746,-2.9773,-2.9571,-2.9283,-3.0092,-3.0381,0.0,0.0,-3.0942,-3.1793,-3.1462,-3.2736,-3.3786,-3.3418,-3.4368,-3.5181,-3.5165,-3.6098,-3.7498,-3.9337,-4.0175,-4.074,-4.1153,-4.1129,-4.129,-4.1743,-4.1655,-4.1593,-4.1687,-4.2339,-4.2838,-4.3092,-4.3603,-4.4014,-4.4248,-4.4435,-4.46,-4.4764,-4.477,-4.4827,-4.4846,-4.4827,-4.4796,-4.4796,-4.4796,-4.4827,-4.4846,-4.4846,-4.4858,-4.4895,-4.4895,-4.4895,-4.4895,-4.4895,-4.4895,-4.4895,-4.4895,-4.4895,-4.4895,-4.4895,-4.4895,-4.4895,-4.4895,-4.4895,-4.4895,-4.4895,-4.4895,-4.4895,-4.4895,-4.4895,-4.4895,-4.4895,-4.4895,-4.4895,-4.4895,-4.4895,-4.4895,-4.4895,-4.487,-4.4846,-4.4846,-4.4821,-4.4821,-4.4883,-4.4895,-4.4895,-4.4895,-4.4895,-4.4907,-4.4962,-4.5022,-4.5072,-4.5143,-4.5239,-4.533,-4.538,-4.5429,-4.5448,-4.5448,-4.5419,-4.5409,-4.5409,-4.5361,-4.5351,-4.5351,-4.5351,-4.5351,-4.5351,-4.5381,-4.5485,-4.5643,-4.5643,-4.5668,-3.1586,-3.1282,-3.0947,-3.1105,-3.1115,-3.0999,0.0,0.0,0.0,-3.1892,-3.2698,-3.3198,-3.2456,-3.3407,-3.4142,-3.3656,-3.459,-3.5916,-3.7515,-3.8634,-3.9497,-4.0051,-4.0009,-4.024,-4.0962,-4.0556,-4.0329,-4.0599,-4.1361,-4.1904,-4.2149,-4.3003,-4.3629,-4.3936,-4.417,-4.4393,-4.46,-4.464,-4.4706,-4.477,-4.4738,-4.4712,-4.4712,-4.4712,-4.4738,-4.477,-4.477,-4.4808,-4.4858,-4.4858,-4.4858,-4.4858,-4.4883,-4.4895,-4.4895,-4.4895,-4.4895,-4.4895,-4.4895,-4.4895,-4.4895,-4.4895,-4.4895,-4.4895,-4.4895,-4.4895,-4.4895,-4.4895,-4.4895,-4.4895,-4.4883,-4.487,-4.487,-4.4858,-4.4858,-4.4858,-4.4858,-4.4808,-4.477,-4.477,-4.4751,-4.4719,-4.4833,-4.4858,-4.4858,-4.4858,-4.4858,-4.4858,-4.4858,-4.4907,-4.4955,-4.5033,-4.5091,-4.5148,-4.5192,-4.5233,-4.5213,-4.5213,-4.517,-4.5148,-4.5148,-4.5091,-4.5049,-4.5049,-4.5049,-4.5049,-4.5049,-4.5049,-4.5216,-4.5505,-4.5523,-4.5531,-3.4817,-3.3908,-3.2901,-3.3661,-3.3337,-3.2472,-3.1092,0.0,-3.2853,-3.1479,0.0,-3.335,-3.2602,0.0,0.0,-3.3755,-3.3999,-3.4656,-3.6197,-3.645,-3.7392,-3.9894,-4.0122,-4.0063,-4.0058,-3.9987,-4.0066,-4.0328,-4.103,-4.1519,-4.1668,-4.2559,-4.316,-4.339,-4.371,-4.3996,-4.425,-4.4491,-4.4646,-4.4725,-4.4712,-4.4712,-4.4712,-4.4712,-4.4693,-4.4725,-4.4725,-4.4725,-4.4706,-4.4706,-4.4706,-4.4719,-4.4846,-4.4895,-4.4895,-4.4895,-4.4895,-4.4895,-4.4895,-4.4895,-4.4895,-4.4895,-4.4895,-4.4895,-4.4895,-4.4895,-4.4895,-4.4895,-4.4895,-4.4883,-4.4821,-4.4808,-4.4815,-4.4751,-4.4706,-4.4706,-4.4706,-4.4725,-4.4725,-4.4725,-4.4712,-4.4693,-4.4725,-4.4706,-4.4706,-4.4706,-4.4706,-4.4706,-4.4706,-4.4738,-4.4751,-4.4732,-4.4815,-4.4846,-4.4865,-4.4907,-4.4962,-4.4962,-4.4931,-4.4931,-4.4931,-4.4919,-4.4919,-4.4919,-4.4919,-4.4919,-4.4919,-4.4919,-4.5003,-4.517,-4.5224,-4.5258,-3.54,-3.4663,-3.3874,-3.4357,-3.3867,-3.3105,-3.2506,-3.2929,-3.3266,-3.2623,0.0,0.0,0.0,0.0,0.0,0.0,-3.3226,-3.3789,-3.5427,-3.5161,-3.5491,-3.7416,-3.7934,-3.8241,-3.8541,-3.8986,-3.9113,-3.876,-3.9852,-4.0588,-4.0721,-4.2024,-4.2863,-4.3069,-4.3373,-4.3644,-4.3918,-4.414,-4.4321,-4.4398,-4.4449,-4.4468,-4.4468,-4.451,-4.4551,-4.4578,-4.4619,-4.4672,-4.4712,-4.4712,-4.4712,-4.4712,-4.4757,-4.4815,-4.4846,-4.4902,-4.4895,-4.4895,-4.4895,-4.4895,-4.4895,-4.4895,-4.4895,-4.4895,-4.4895,-4.4895,-4.4895,-4.4895,-4.487,-4.4852,-4.4815,-4.4757,-4.4719,-4.4712,-4.4712,-4.4712,-4.4712,-4.4672,-4.4632,-4.4592,-4.4551,-4.451,-4.4468,-4.4605,-4.4712,-4.4712,-4.4712,-4.4712,-4.4712,-4.4712,-4.4712,-4.4712,-4.4738,-4.4732,-4.4732,-4.4776,-4.477,-4.477,-4.4712,-4.4659,-4.46,-4.456,-4.4546,-4.4546,-4.4546,-4.4546,-4.4546,-4.4587,-4.464,-4.4706,-4.4919,-4.5049,-3.629,-3.5675,-3.4898,-3.4875,-3.4317,-3.3655,-3.3273,-3.3371,-3.3494,-3.3276,-3.3445,0.0,0.0,0.0,-3.334,-3.2884,0.0,-3.292,-3.4436,-3.3854,-3.3917,-3.566,-3.6158,-3.6519,-3.6916,-3.7666,-3.7898,-3.7327,-3.8719,-3.9719,-4.0029,-4.1414,-4.2375,-4.2767,-4.2995,-4.3249,-4.3508,-4.3728,-4.3921,-4.4072,-4.4173,-4.4222,-4.4252,-4.4325,-4.4401,-4.4458,-4.4501,-4.4551,-4.4592,-4.4592,-4.4605,-4.4619,-4.4646,-4.4685,-4.4745,-4.4808,-4.4852,-4.4852,-4.4852,-4.4846,-4.4889,-4.4883,-4.4895,-4.4895,-4.4895,-4.4895,-4.4914,-4.487,-4.4833,-4.4783,-4.4745,-4.4712,-4.4672,-4.4646,-4.4646,-4.4646,-4.4632,-4.4578,-4.4524,-4.4458,-4.4416,-4.4373,-4.43,-4.4454,-4.4592,-4.4592,-4.4592,-4.4592,-4.4592,-4.4592,-4.4592,-4.4592,-4.4592,-4.4592,-4.4592,-4.4592,-4.4592,-4.4592,-4.4496,-4.443,-4.4368,-4.4329,-4.43,-4.43,-4.43,-4.43,-4.43,-4.4358,-4.4368,-4.4368,-4.468,-4.4833,-3.8517,-3.7542,-3.6287,-3.5699,-3.5116,-3.4273,-3.278,-3.3081,-3.3465,-3.2684,-3.3154,-3.3474,-3.2735,-3.2671,-3.2747,-3.2785,-3.2139,0.0,0.0,-3.2224,-3.2771,-3.5733,-3.5768,-3.5461,-3.5275,-3.6006,-3.647,-3.6435,-3.7933,-3.9165,-3.9878,-4.0699,-4.158,-4.2468,-4.265,-4.2808,-4.3014,-4.3284,-4.3525,-4.3726,-4.3923,-4.4033,-4.4124,-4.4237,-4.43,-4.43,-4.43,-4.4314,-4.4314,-4.4314,-4.4358,-4.4411,-4.4487,-4.4556,-4.4619,-4.4685,-4.4712,-4.4712,-4.4712,-4.4764,-4.4808,-4.487,-4.4895,-4.4895,-4.4895,-4.4895,-4.4883,-4.4821,-4.4796,-4.4757,-4.4646,-4.4605,-4.4578,-4.451,-4.4515,-4.4501,-4.4426,-4.4411,-4.4401,-4.4314,-4.43,-4.43,-4.43,-4.43,-4.4314,-4.4314,-4.4314,-4.4314,-4.4314,-4.4314,-4.4314,-4.4314,-4.4314,-4.4314,-4.4314,-4.4314,-4.4314,-4.4314,-4.43,-4.43,-4.43,-4.43,-4.43,-4.43,-4.43,-4.43,-4.43,-4.43,-4.43,-4.43,-4.451,-4.4605,-3.9088,-3.8096,-3.6986,-3.7039,-3.5768,-3.4552,-3.475,-3.4604,-3.4501,-3.4818,-3.5064,-3.5159,-3.4938,-3.449,-3.4197,-3.43,-3.276,-3.1844,0.0,-3.2084,-3.1869,-3.2748,-3.3523,-3.4323,-3.5234,-3.5506,-3.5828,-3.6363,-3.7398,-3.8558,-3.9823,-4.0663,-4.1486,-4.2348,-4.2508,-4.2629,-4.2729,-4.2958,-4.316,-4.3374,-4.3563,-4.3749,-4.3915,-4.4039,-4.4147,-4.4244,-4.427,-4.43,-4.43,-4.43,-4.4314,-4.4344,-4.4358,-4.4387,-4.443,-4.4632,-4.4712,-4.4712,-4.4712,-4.4706,-4.4751,-4.4745,-4.4776,-4.4776,-4.4776,-4.4776,-4.4757,-4.4751,-4.4712,-4.4646,-4.457,-4.4496,-4.444,-4.4387,-4.4373,-4.4358,-4.4344,-4.4344,-4.4314,-4.4259,-4.4244,-4.4214,-4.4116,-4.4097,-4.4147,-4.4285,-4.43,-4.43,-4.43,-4.43,-4.43,-4.43,-4.43,-4.43,-4.43,-4.43,-4.43,-4.43,-4.4259,-4.4244,-4.4244,-4.4147,-4.4097,-4.4097,-4.4097,-4.4097,-4.4097,-4.4195,-4.4244,-4.4244,-4.4344,-4.4401,-3.9581,-3.8822,-3.7962,-3.7929,-3.6754,-3.5683,-3.6112,-3.5641,-3.5281,-3.5836,-3.5915,-3.5933,-3.6009,-3.5382,-3.491,-3.5004,-3.3259,-3.19,0.0,-3.1163,-3.065,-3.0755,-3.2009,0.0,-3.4031,-3.454,-3.5025,-3.5543,-3.656,-3.7719,-3.9022,-4.0092,-4.1038,-4.1841,-4.2223,-4.2447,-4.249,-4.2668,-4.2824,-4.2975,-4.3214,-4.3427,-4.3634,-4.3832,-4.3995,-4.4107,-4.4147,-4.4192,-4.4192,-4.4192,-4.4226,-4.4255,-4.4255,-4.427,-4.4314,-4.4496,-4.4578,-4.4605,-4.4619,-4.4646,-4.4672,-4.4699,-4.4667,-4.4672,-4.4672,-4.4646,-4.4632,-4.4632,-4.4578,-4.451,-4.4487,-4.4411,-4.434,-4.4314,-4.43,-4.4285,-4.4255,-4.4255,-4.4244,-4.415,-4.4135,-4.4104,-4.402,-4.4005,-4.4036,-4.4177,-4.4192,-4.4192,-4.4192,-4.4192,-4.4192,-4.4192,-4.4192,-4.4192,-4.4192,-4.4192,-4.4192,-4.4192,-4.415,-4.4135,-4.4135,-4.4055,-4.4005,-4.4005,-4.4005,-4.4005,-4.4005,-4.4104,-4.4135,-4.4135,-4.4162,-4.4192]},{"header":{"parameterUnit":"m.s-1","parameterCategory":1,"la1":30.6,"la2":29.2853,"lo1":-89.7004,"lo2":-87.6739,"dy":0.0162,"dx":0.0183,"nx":112,"ny":82,"refTime":"2024-07-04T06:00:00:Z","depth":0,"parameterNumber":3,"parameterNumberName":"V-component_of_WINDS"},"data":[0.0,0.0,0.0,0.0,0.0,0.0,0.0,0.0,0.0,0.0,0.0,0.0,0.0,0.0,0.0,0.0,0.0,0.0,0.0,0.0,0.0,0.0,0.0,0.0,0.0,0.0,0.0,0.0,0.0,0.0,0.0,0.0,0.0,0.0,0.0,0.0,0.0,0.0,0.0,0.0,0.0,0.0,0.0,0.0,0.0,0.0,0.0,0.0,0.0,0.0,0.0,0.0,0.0,0.0,0.0,0.0,0.0,0.0,0.0,0.0,0.0,0.0,0.0,0.0,0.0,0.0,0.0,0.0,0.0,0.0,0.0,0.0,0.0,0.0,0.0,0.0,0.0,0.0,0.0,0.0,0.0,0.0,0.0,0.0,0.0,0.0,0.0,0.0,0.0,0.0,-0.2945,-0.325,-0.3872,-0.4467,-0.4991,-0.5097,-0.5262,-0.554,0.0,0.0,0.0,0.0,0.0,0.0,0.0,0.0,0.0,0.0,0.0,0.0,0.0,0.0,0.0,0.0,0.0,0.0,0.0,0.0,0.0,0.0,0.0,0.0,0.0,0.0,0.0,0.0,0.0,0.0,0.0,0.0,0.0,0.0,0.0,0.0,0.0,0.0,0.0,0.0,0.0,0.0,0.0,0.0,0.0,0.0,0.0,0.0,0.0,0.0,0.0,0.0,0.0,0.0,0.0,0.0,0.0,0.0,0.0,0.0,0.0,0.0,0.0,0.0,0.0,0.0,0.0,0.0,0.0,0.0,0.0,0.0,0.0,0.0,0.0,0.0,0.0,0.0,0.0,0.0,0.0,0.0,0.0,0.0,0.0,0.0,0.0,0.0,0.0,0.0,0.0,0.0,0.0,0.0,0.0,0.0,0.0,0.0,0.0,0.0,0.0,0.0,0.0,0.0,-0.3149,-0.3659,-0.4147,-0.455,-0.4743,-0.5066,-0.5285,-0.5352,0.0,0.0,0.0,0.0,0.0,0.0,0.0,0.0,0.0,0.0,0.0,0.0,0.0,0.0,0.0,0.0,0.0,0.0,0.0,0.0,0.0,0.0,0.0,0.0,0.0,0.0,0.0,0.0,0.0,0.0,0.0,0.0,0.0,0.0,0.0,0.0,0.0,0.0,0.0,0.0,0.0,0.0,0.0,0.0,0.0,0.0,0.0,0.0,0.0,0.0,0.0,0.0,0.0,0.0,0.0,0.0,0.0,0.0,0.0,0.0,0.0,0.0,0.0,0.0,0.0,0.0,0.0,0.0,0.0,0.0,0.0,0.0,0.0,0.0,0.0,0.0,0.0,0.0,0.0,0.0,0.0,0.0,0.0,0.0,0.0,0.0,0.0,0.0,0.0,0.0,0.0,0.0,0.0,0.0,0.0,0.0,0.0,0.0,0.0,0.0,0.0,0.0,0.0,-0.3308,-0.3523,-0.3763,-0.4057,-0.4273,-0.4421,-0.4708,-0.4928,-0.5069,-0.4779,0.0,0.0,0.0,0.0,0.0,0.0,0.0,0.0,0.0,0.0,0.0,0.0,0.0,0.0,0.0,0.0,0.0,0.0,0.0,0.0,0.0,0.0,0.0,0.0,0.0,0.0,0.0,0.0,0.0,0.0,0.0,0.0,0.0,0.0,0.0,0.0,0.0,0.0,0.0,0.0,0.0,0.0,0.0,0.0,0.0,0.0,0.0,0.0,0.0,0.0,0.0,0.0,0.0,0.0,0.0,0.0,0.0,0.0,0.0,0.0,0.0,0.0,0.0,0.0,0.0,0.0,0.0,0.0,0.0,0.0,0.0,0.0,0.0,0.0,0.0,0.0,0.0,0.0,0.0,0.0,0.0,0.0,0.0,0.0,0.0,0.0,0.0,0.0,0.0,0.0,0.0,0.0,0.0,0.0,0.0,0.0,0.0,0.0,0.0,0.0,0.0,0.0,-0.3558,-0.3794,-0.3811,-0.3943,-0.4084,-0.4206,-0.4411,-0.4639,-0.4818,-0.4653,0.0,0.0,0.0,0.0,0.0,0.0,0.0,0.0,0.0,0.0,0.0,0.0,0.0,0.0,0.0,0.0,0.0,0.0,0.0,0.0,0.0,0.0,0.0,0.0,0.0,0.0,0.0,0.0,0.0,0.0,0.0,0.0,0.0,0.0,0.0,0.0,0.0,0.0,0.0,0.0,0.0,0.0,0.0,0.0,0.0,0.0,0.0,0.0,0.0,0.0,0.0,0.0,0.0,0.0,0.0,0.0,0.0,0.0,0.0,0.0,0.0,0.0,0.0,0.0,0.0,0.0,0.0,0.0,0.0,0.0,0.0,0.0,0.0,0.0,0.0,0.0,0.0,0.0,0.0,0.0,0.0,0.0,0.0,0.0,0.0,0.0,0.0,0.0,0.0,0.0,0.0,0.0,0.0,0.0,0.0,0.0,0.0,0.0,0.0,0.0,0.0,0.0,-0.3613,-0.3794,-0.3811,-0.4029,-0.4202,-0.4206,-0.4498,-0.4682,-0.4609,-0.4484,0.0,0.0,0.0,0.0,0.0,0.0,0.0,0.0,0.0,0.0,0.0,0.0,0.0,0.0,0.0,0.0,0.0,0.0,0.0,0.0,0.0,0.0,0.0,0.0,0.0,0.0,0.0,0.0,0.0,0.0,0.0,0.0,0.0,0.0,0.0,0.0,0.0,0.0,0.0,0.0,0.0,0.0,0.0,0.0,0.0,0.0,0.0,0.0,0.0,0.0,0.0,0.0,0.0,0.0,0.0,0.0,0.0,0.0,0.0,0.0,0.0,0.0,0.0,0.0,0.0,0.0,0.0,0.0,0.0,0.0,0.0,0.0,0.0,0.0,0.0,0.0,0.0,0.0,0.0,0.0,0.0,0.0,0.0,0.0,0.0,0.0,0.0,0.0,0.0,0.0,0.0,0.0,0.0,0.0,0.0,0.0,0.0,0.0,0.0,0.0,0.0,0.0,-0.3895,-0.4032,-0.3932,-0.4095,-0.4177,-0.407,-0.4384,-0.4535,-0.4486,0.0,0.0,0.0,0.0,0.0,0.0,0.0,0.0,0.0,0.0,0.0,0.0,0.0,0.0,0.0,0.0,0.0,0.0,0.0,0.0,0.0,0.0,0.0,0.0,0.0,0.0,0.0,0.0,0.0,0.0,0.0,0.0,0.0,0.0,0.0,0.0,0.0,0.0,0.0,0.0,0.0,0.0,0.0,0.0,0.0,0.0,0.0,0.0,0.0,0.0,0.0,0.0,0.0,0.0,0.0,0.0,0.0,0.0,0.0,0.0,0.0,0.0,0.0,0.0,0.0,0.0,0.0,0.0,0.0,0.0,0.0,0.0,0.0,0.0,0.0,0.0,0.0,0.0,0.0,0.0,0.0,0.0,0.0,0.0,0.0,0.0,0.0,0.0,0.0,0.0,0.0,0.0,0.0,0.0,0.0,0.0,0.0,0.0,0.0,0.0,0.0,0.0,-0.3905,-0.4109,-0.4239,-0.4148,-0.4312,-0.4365,-0.4219,-0.4463,-0.4568,-0.4411,0.0,0.0,0.0,0.0,0.0,0.0,0.0,0.0,0.0,0.0,0.0,0.0,0.0,0.0,0.0,0.0,0.0,0.0,0.0,0.0,0.0,0.0,0.0,0.0,0.0,0.0,0.0,0.0,0.0,0.0,0.0,0.0,0.0,0.0,0.0,0.0,0.0,0.0,0.0,0.0,0.0,0.0,0.0,0.0,0.0,0.0,0.0,0.0,0.0,0.0,0.0,0.0,0.0,0.0,0.0,0.0,0.0,0.0,0.0,0.0,0.0,0.0,0.0,0.0,0.0,0.0,0.0,0.0,0.0,0.0,0.0,0.0,0.0,0.0,0.0,0.0,0.0,0.0,0.0,0.0,0.0,0.0,0.0,0.0,0.0,0.0,0.0,0.0,0.0,0.0,0.0,0.0,0.0,0.0,0.0,0.0,0.0,0.0,0.0,0.0,0.0,0.0,-0.4189,-0.4315,-0.4388,-0.4391,-0.4701,-0.4857,-0.4704,-0.4829,-0.4759,0.0,0.0,0.0,0.0,0.0,0.0,0.0,0.0,0.0,0.0,0.0,0.0,0.0,0.0,0.0,0.0,0.0,0.0,0.0,0.0,0.0,0.0,0.0,0.0,0.0,0.0,0.0,0.0,0.0,0.0,0.0,0.0,0.0,0.0,0.0,0.0,0.0,0.0,0.0,0.0,0.0,0.0,0.0,0.0,0.0,0.0,0.0,0.0,0.0,0.0,0.0,0.0,0.0,0.0,0.0,0.0,0.0,0.0,0.0,0.0,0.0,0.0,0.0,0.0,0.0,0.0,0.0,0.0,0.0,0.0,0.0,0.0,0.0,0.0,0.0,0.0,0.0,0.0,0.0,0.0,0.0,0.0,0.0,0.0,0.0,0.0,0.0,0.0,0.0,0.0,0.0,0.0,0.0,0.0,0.0,0.0,0.0,0.0,0.0,0.0,0.0,0.0,0.0,-0.4452,-0.4523,-0.455,-0.4552,-0.4636,-0.4643,-0.4552,-0.4692,-0.4606,-0.4293,0.0,0.0,0.0,0.0,0.0,0.0,0.0,0.0,0.0,0.0,0.0,0.0,0.0,0.0,0.0,0.0,0.0,0.0,0.0,0.0,0.0,0.0,0.0,0.0,0.0,0.0,0.0,0.0,0.0,0.0,0.0,0.0,0.0,0.0,0.0,0.0,0.0,0.0,0.0,0.0,0.0,0.0,0.0,0.0,0.0,0.0,0.0,0.0,0.0,0.0,0.0,0.0,0.0,0.0,0.0,0.0,0.0,0.0,0.0,0.0,0.0,0.0,0.0,0.0,0.0,0.0,0.0,0.0,0.0,0.0,0.0,0.0,0.0,0.0,0.0,0.0,0.0,0.0,0.0,0.0,0.0,0.0,0.0,0.0,0.0,0.0,0.0,0.0,0.0,0.0,0.0,0.0,0.0,0.0,0.0,0.0,0.0,0.0,0.0,0.0,0.0,0.0,-0.4657,-0.4701,-0.4714,-0.4687,-0.4753,-0.4753,-0.4604,-0.4614,-0.45,-0.4204,0.0,0.0,0.0,0.0,0.0,0.0,0.0,0.0,0.0,0.0,0.0,0.0,0.0,0.0,0.0,0.0,0.0,0.0,0.0,0.0,0.0,0.0,0.0,0.0,0.0,0.0,0.0,0.0,0.0,0.0,0.0,0.0,0.0,0.0,0.0,0.0,0.0,0.0,0.0,0.0,0.0,0.0,0.0,0.0,0.0,0.0,0.0,0.0,0.0,0.0,0.0,0.0,0.0,0.0,0.0,0.0,0.0,0.0,0.0,0.0,0.0,0.0,0.0,0.0,0.0,0.0,0.0,0.0,0.0,0.0,0.0,0.0,0.0,0.0,0.0,0.0,0.0,0.0,0.0,0.0,0.0,0.0,0.0,0.0,0.0,0.0,0.0,0.0,0.0,0.0,0.0,0.0,0.0,0.0,0.0,0.0,0.0,0.0,0.0,0.0,0.0,0.0,-0.481,-0.487,-0.4859,-0.4803,-0.4943,-0.4962,-0.469,-0.4541,-0.4395,-0.4197,0.0,0.0,0.0,0.0,0.0,0.0,0.0,0.0,0.0,0.0,0.0,0.0,0.0,0.0,0.0,0.0,0.0,0.0,0.0,0.0,0.0,0.0,0.0,0.0,0.0,0.0,0.0,0.0,0.0,0.0,0.0,0.0,0.0,0.0,0.0,0.0,0.0,0.0,0.0,0.0,0.0,0.0,0.0,0.0,0.0,0.0,0.0,0.0,0.0,0.0,0.0,0.0,0.0,0.0,0.0,0.0,0.0,0.0,0.0,0.0,-0.2713,-0.2537,0.0,0.0,0.0,0.0,0.0,0.0,0.0,0.0,0.0,0.0,0.0,0.0,0.0,0.0,0.0,0.0,0.0,0.0,0.0,0.0,0.0,0.0,0.0,0.0,0.0,0.0,0.0,0.0,0.0,0.0,0.0,0.0,0.0,0.0,0.0,0.0,0.0,0.0,0.0,0.0,-0.4823,-0.4864,-0.4842,-0.4677,-0.4678,-0.4646,-0.4463,-0.4339,-0.4182,-0.3987,-0.4065,0.0,0.0,0.0,0.0,0.0,0.0,0.0,0.0,0.0,0.0,0.0,0.0,0.0,0.0,0.0,0.0,0.0,0.0,0.0,0.0,0.0,0.0,0.0,0.0,0.0,0.0,0.0,0.0,0.0,0.0,0.0,0.0,0.0,0.0,0.0,0.0,0.0,0.0,0.0,0.0,0.0,0.0,0.0,0.0,0.0,0.0,0.0,0.0,0.0,0.0,0.0,0.0,0.0,0.0,0.0,0.0,0.0,0.0,0.0,-0.2825,-0.2611,0.0,0.0,0.0,0.0,0.0,0.0,0.0,0.0,0.0,0.0,0.0,0.0,0.0,0.0,0.0,0.0,0.0,0.0,0.0,0.0,0.0,0.0,0.0,0.0,0.0,0.0,0.0,0.0,0.0,0.0,0.0,0.0,0.0,0.0,0.0,0.0,0.0,0.0,0.0,0.0,-0.4837,-0.4859,-0.481,-0.4613,-0.4608,-0.4533,-0.4411,-0.4233,-0.405,-0.3951,-0.3945,0.0,0.0,0.0,0.0,0.0,0.0,0.0,0.0,0.0,0.0,0.0,0.0,0.0,0.0,0.0,0.0,0.0,0.0,0.0,0.0,0.0,0.0,0.0,0.0,0.0,0.0,0.0,0.0,0.0,0.0,0.0,0.0,0.0,0.0,0.0,0.0,0.0,0.0,0.0,0.0,0.0,0.0,0.0,0.0,0.0,0.0,0.0,0.0,0.0,0.0,0.0,0.0,0.0,-0.432,-0.4357,-0.4288,-0.4031,-0.383,-0.3652,-0.3004,-0.279,-0.2897,-0.2731,0.0,0.0,0.0,0.0,0.0,0.0,0.0,0.0,0.0,0.0,0.0,0.0,0.0,0.0,0.0,0.0,0.0,0.0,0.0,0.0,0.0,0.0,-0.3882,-0.3993,-0.3981,-0.3892,-0.3648,0.0,0.0,0.0,0.0,0.0,0.0,0.0,0.0,0.0,0.0,0.0,-0.4854,-0.4823,-0.4798,-0.4586,-0.4584,-0.4525,-0.4382,-0.4164,-0.4018,-0.3995,-0.3865,-0.3788,0.0,0.0,0.0,0.0,0.0,0.0,0.0,0.0,0.0,0.0,0.0,0.0,0.0,0.0,0.0,0.0,0.0,0.0,0.0,0.0,0.0,0.0,0.0,0.0,0.0,0.0,0.0,0.0,0.0,0.0,0.0,0.0,-0.0272,-0.0675,0.0,0.0,0.0,0.0,0.0,0.0,0.0,0.0,0.0,0.0,0.0,0.0,0.0,-0.3928,-0.4049,-0.4433,-0.4612,-0.4612,-0.465,-0.4533,-0.4301,-0.409,-0.4027,-0.4062,-0.3168,0.0,-0.2559,-0.2473,0.0,0.0,0.0,0.0,0.0,0.0,0.0,0.0,0.0,0.0,0.0,0.0,0.0,0.0,0.0,0.0,0.0,0.0,0.0,0.0,0.0,0.0,-0.4124,-0.4346,-0.4325,-0.4268,-0.435,-0.4322,-0.4251,-0.4142,-0.4473,-0.4773,0.0,0.0,0.0,0.0,0.0,0.0,-0.4851,-0.4755,-0.4631,-0.4375,-0.4441,-0.4453,-0.432,-0.418,-0.4023,-0.392,-0.3855,-0.3751,-0.362,-0.3459,0.0,0.0,0.0,0.0,0.0,0.0,0.0,0.0,0.0,0.0,0.0,0.0,0.0,0.0,0.0,0.0,0.0,0.0,0.0,0.0,0.0,0.0,0.0,0.0,0.0,0.0,0.0,0.0,0.0,0.0486,0.0189,-0.0193,-0.0193,-0.0303,0.0,0.0,0.0,0.0,0.0,0.0,0.0,0.0,0.0,-0.3189,-0.3728,-0.4033,-0.411,-0.4492,-0.4603,-0.448,-0.448,-0.432,-0.4076,-0.3873,-0.3732,-0.3641,-0.2745,-0.2205,-0.2019,-0.2124,-0.224,-0.2403,0.0,0.0,0.0,0.0,-0.3296,-0.348,-0.3708,-0.4069,-0.447,-0.4752,0.0,0.0,0.0,0.0,0.0,0.0,0.0,-0.4664,-0.4718,-0.4596,-0.4479,-0.4583,-0.4569,-0.4547,-0.4597,-0.4657,-0.4596,-0.4323,-0.4615,-0.4911,-0.4955,-0.5177,0.0,0.0,0.0,-0.5144,-0.4779,-0.4704,-0.4628,-0.4435,-0.4473,-0.4457,-0.4311,-0.4189,-0.4062,-0.4008,-0.3904,-0.3811,-0.3716,-0.3596,-0.3368,0.0,0.0,0.0,0.0,0.0,0.0,0.0,0.0,0.0,0.0,0.0,0.0,0.0,0.0,0.0,0.0,0.0,0.0,0.0,0.0,0.0,0.0,0.0,0.0,0.0,0.0,0.0,0.0,0.0744,0.0641,0.0271,0.0182,0.0061,0.0,0.0,0.0,0.0,0.0,0.0,-0.2202,-0.2512,-0.276,-0.2975,-0.3501,-0.3803,-0.3871,-0.4252,-0.4299,-0.4037,-0.4037,-0.3907,-0.3651,-0.3519,-0.3344,-0.3083,-0.229,-0.181,-0.1544,-0.1685,-0.1764,-0.1906,-0.2422,-0.2582,-0.2556,-0.2732,-0.2922,-0.3136,-0.3421,-0.3944,-0.4613,-0.4955,-0.5224,-0.5412,-0.5159,0.0,0.0,0.0,0.0,-0.5207,-0.5168,-0.5017,-0.4891,-0.4854,-0.4817,-0.4783,-0.4783,-0.4859,-0.4831,-0.4523,-0.4754,-0.5016,-0.5098,-0.5265,0.0,-0.5297,-0.5243,-0.5062,-0.4733,-0.4714,-0.468,-0.4512,-0.4534,-0.4503,-0.4355,-0.4232,-0.4151,-0.4086,-0.4,-0.3925,-0.3835,-0.3717,-0.3514,-0.3259,0.0,0.0,0.0,0.0,0.0,0.0,0.0,0.0,0.0,0.0,0.0,0.0,0.0,0.0,0.0,0.0,0.0,0.0,0.0,0.0,0.0,0.0,0.0,0.0,0.0,0.0,0.0,0.0,0.0,0.0609,0.0395,0.0,0.0,0.0,0.0,-0.0974,-0.1222,-0.1459,-0.1733,-0.1737,-0.194,-0.2332,-0.2691,-0.2971,-0.3261,-0.356,-0.3595,-0.3362,-0.3362,-0.3221,-0.303,-0.303,-0.2888,-0.2601,-0.2043,-0.1658,-0.1375,-0.1076,-0.1033,-0.1211,-0.1654,-0.1948,-0.2063,-0.2257,-0.253,-0.2867,-0.3346,-0.4125,-0.4994,-0.5132,-0.5374,-0.5576,-0.5559,-0.5555,0.0,0.0,-0.5665,-0.5743,-0.5665,-0.5506,-0.5342,-0.53,-0.511,-0.4999,-0.4999,-0.4999,-0.4964,-0.4896,-0.4927,-0.5045,-0.5167,0.0,-0.5055,-0.5183,-0.5039,-0.4876,-0.4706,-0.4742,-0.4727,-0.4531,-0.461,-0.4629,-0.4506,-0.4357,-0.424,-0.4092,-0.4081,-0.4021,-0.39,-0.3838,-0.3663,-0.3408,-0.3257,0.0,0.0,0.0,0.0,0.0,0.0,0.0,0.0,0.0,0.0,0.0,0.0,0.0,0.0,0.0,0.0,0.0,0.0,0.0,0.0,0.0,0.0,0.0,0.0,0.0,0.0,0.0,0.0,0.1009,0.068,0.0,0.0437,-0.0037,-0.0382,-0.0547,-0.0721,-0.0911,-0.1037,-0.1185,-0.1345,-0.1523,-0.1951,-0.2197,-0.2307,-0.2608,-0.2617,-0.2333,-0.2333,-0.219,-0.1954,-0.1954,-0.1858,-0.1619,-0.123,-0.0943,-0.0754,-0.0461,-0.0533,-0.0848,-0.1129,-0.1241,-0.1314,-0.1355,-0.1651,-0.2076,-0.2575,-0.3336,-0.4268,-0.5145,-0.5659,-0.5892,-0.5775,-0.5816,-0.593,-0.593,-0.5914,-0.5978,-0.6094,-0.6015,-0.5853,-0.581,-0.5609,-0.5453,-0.5453,-0.5368,-0.5259,-0.5212,-0.5047,-0.4901,-0.4997,-0.498,-0.4968,-0.5012,-0.4947,-0.4872,-0.4767,-0.4781,-0.477,-0.464,-0.4697,-0.4659,-0.4384,-0.439,-0.436,-0.4243,-0.4235,-0.4145,-0.3914,-0.3862,-0.3749,-0.3532,-0.3299,-0.3148,0.0,0.0,0.0,0.0,0.0,0.0,0.0,0.0,0.0,0.0,0.0,0.0,0.0,0.0,0.0,0.0,0.0,0.0,0.0,0.0,0.0,0.0,0.0,0.0,0.0,0.1355,0.1287,0.113,0.0813,0.0591,0.0517,0.0081,-0.0208,-0.0213,-0.0304,-0.0401,-0.0457,-0.0603,-0.0708,-0.0866,-0.1155,-0.1351,-0.1457,-0.1651,-0.1651,-0.1457,-0.1457,-0.1361,-0.1216,-0.1216,-0.107,-0.0875,-0.0676,-0.0481,-0.0241,-0.0096,-0.0186,-0.0493,-0.0663,-0.0748,-0.0748,-0.0792,-0.1138,-0.1649,-0.2455,-0.312,-0.3821,-0.5049,-0.5598,-0.5819,-0.5737,-0.59,-0.6066,-0.6066,-0.6122,-0.6215,-0.6338,-0.6319,-0.626,-0.621,-0.5954,-0.5707,-0.5707,-0.5538,-0.541,-0.541,-0.5178,-0.5029,-0.5064,-0.5088,-0.5033,-0.4991,-0.4986,-0.4948,-0.4833,-0.4833,-0.4833,-0.4706,-0.4762,-0.4669,-0.4384,-0.446,-0.4457,-0.4308,-0.43,-0.4227,-0.4032,-0.3986,-0.3873,-0.3705,-0.342,-0.3239,-0.3187,0.0,0.0,0.0,0.0,0.0,0.0,0.0,0.0,0.0,0.0,0.0,0.0,0.0,0.0,0.0,0.0,0.0,0.0,0.0,0.0,0.0,0.0,0.0,0.1295,0.136,0.1276,0.0933,0.0791,0.0596,0.0305,0.0133,0.0,0.0,0.0,0.0,0.0,0.0,-0.0096,-0.0393,-0.0393,-0.0496,-0.0757,-0.0758,-0.0758,-0.0758,-0.0758,-0.0758,-0.0758,-0.0758,-0.0657,-0.0404,-0.0396,-0.0246,0.0,0.0,0.0,-0.0048,-0.0286,-0.0381,-0.0429,-0.062,-0.0989,-0.1569,-0.3026,-0.3581,-0.3824,-0.4738,-0.5139,-0.5301,-0.5513,-0.5761,-0.6005,-0.6005,-0.6265,-0.6554,-0.6338,-0.6444,-0.6547,-0.6447,-0.6047,-0.5722,-0.5722,-0.5549,-0.5421,-0.5421,-0.5421,-0.5418,-0.5413,-0.541,-0.5369,-0.5211,-0.5192,0.0,-0.4836,-0.4911,-0.4928,-0.4723,-0.4768,-0.4738,-0.4525,-0.4506,-0.446,-0.4308,-0.43,-0.43,-0.4295,-0.4181,-0.4029,-0.3905,-0.3566,-0.3337,-0.3202,0.0,0.0,0.0,0.0,0.0,0.0,0.0,0.0,0.0,0.0,0.0,0.0,0.0,0.0,0.0,0.0,0.0,0.0,0.0,0.0,0.0,0.1254,0.1251,0.1371,0.1355,0.1219,0.102,0.0827,0.0578,0.0318,0.0139,0.0,0.0,0.0,0.0,0.0,0.0,-0.005,-0.01,-0.01,-0.0151,-0.0202,-0.0202,-0.0202,-0.0202,-0.0202,-0.0202,-0.0202,-0.0202,-0.0202,-0.0101,-0.01,-0.005,0.0,0.0,0.0,0.0,-0.0096,-0.0095,-0.0095,-0.0191,-0.0475,-0.0992,-0.1738,-0.2381,-0.3018,-0.3618,-0.4298,-0.4858,-0.4909,-0.5343,-0.5799,-0.5799,-0.5999,-0.6242,-0.6334,-0.6393,-0.6455,-0.6415,-0.6194,-0.5979,-0.5979,-0.5807,-0.5635,-0.5635,-0.5635,-0.5578,-0.5443,-0.541,-0.5399,-0.5366,-0.5361,-0.5262,-0.5108,-0.5118,-0.5048,-0.4809,-0.4893,-0.483,-0.4534,-0.4586,-0.455,-0.4314,-0.43,-0.4262,-0.417,-0.4137,-0.3998,-0.376,-0.3664,-0.3529,0.0,0.0,0.0,0.0,0.0,0.0,0.0,0.0,0.0,0.0,0.0,0.0,0.0,0.0,0.0,0.0,0.0,0.0,0.0,0.0,0.0,0.0,0.1247,0.1277,0.1383,0.1378,0.1247,0.089,0.0818,0.0603,0.0189,0.0048,0.0,0.0,0.0,0.0,0.0,0.0,0.0,0.0,0.0,0.0,0.0,0.0,0.0,0.0,0.0,0.0,0.0,0.0,0.0,0.0,0.0,0.0,0.0,0.0,0.0,0.0,0.0,0.0,0.0,0.0,-0.0338,-0.0627,-0.11,-0.1572,-0.2048,-0.2521,-0.3208,-0.388,-0.4068,-0.4637,-0.5225,-0.527,-0.5621,-0.6012,-0.6091,-0.6251,-0.6384,-0.6384,-0.6257,-0.6083,-0.6083,-0.5908,-0.5688,-0.5688,-0.5688,0.0,-0.5545,-0.5521,-0.5504,-0.5453,-0.5445,-0.5382,-0.5208,-0.5186,-0.5097,-0.4822,-0.4906,-0.489,-0.461,-0.4574,0.0,0.0,0.0,-0.4168,-0.4197,-0.4145,0.0,0.0,0.0,0.0,0.0,-0.3326,0.0,0.0,-0.293,-0.2909,0.0,0.0,0.0,0.0,0.0,0.0,0.0,0.0,0.0,0.0,0.0,0.0,0.0,0.0,0.0,0.0,0.1262,0.1335,0.1393,0.1403,0.1233,0.079,0.0757,0.0579,0.0049,0.0,0.0,0.0,0.0,0.0,0.0,0.0,0.0,0.0,0.0,0.0,0.0,0.0,0.0,0.0,0.0,0.0,0.0,0.0,0.0,0.0,0.0,0.0,0.0,0.0,0.0,0.0,0.0,0.0,-0.005,-0.0248,-0.0345,-0.0393,-0.0821,0.0,0.0,-0.1534,-0.2058,-0.258,-0.3055,-0.3716,-0.4411,-0.4568,-0.5189,-0.5758,-0.5681,-0.6008,-0.6317,-0.6302,-0.6169,-0.6038,-0.6038,-0.5863,-0.5688,-0.5688,-0.5688,-0.5688,-0.5688,-0.5688,-0.5653,-0.5543,-0.5529,-0.5445,-0.5257,-0.5227,-0.5137,-0.486,-0.4972,0.0,-0.4692,-0.4525,-0.4331,-0.4189,-0.4078,-0.411,-0.4267,-0.4164,-0.4046,-0.3863,-0.3772,-0.3636,-0.3458,-0.3427,-0.3423,-0.3389,-0.3166,-0.3115,0.0,0.0,0.0,0.0,0.0,0.0,0.0,0.0,0.0,0.0,0.0,0.0,0.0,0.0,0.0,0.1378,0.1391,0.1395,0.1453,0.153,0.1354,0.0825,0.0779,0.059,0.005,0.0,0.0,0.0,0.0,0.0,0.0,0.0,0.0,0.0,0.0,0.0,0.0,0.0,0.0,0.0,0.0,0.0,0.0,0.0,0.0,0.0,0.0,0.0,0.0,0.0,0.0,0.0,0.0,0.0,0.0,-0.005,-0.01,-0.01,-0.02,-0.035,-0.06,-0.0899,-0.1334,-0.1806,-0.234,-0.2987,0.0,-0.4074,-0.4635,-0.5176,-0.5445,-0.5598,-0.5711,-0.5799,-0.5819,-0.5777,-0.5777,-0.5733,-0.5688,-0.5688,-0.5688,-0.5688,-0.5688,-0.5688,-0.568,-0.5656,-0.5653,-0.5602,-0.5456,-0.5437,-0.5346,-0.5143,-0.514,-0.4977,-0.459,-0.4497,-0.4338,-0.4051,-0.4122,-0.4125,-0.4066,-0.4176,-0.4211,-0.413,-0.3939,-0.3799,-0.3705,-0.3569,-0.3484,-0.348,-0.3362,-0.3375,0.0,0.0,0.0,0.0,0.0,0.0,0.0,0.0,0.0,0.0,0.0,0.1387,0.1367,0.0,0.1408,0.14,0.1406,0.145,0.135,0.1366,0.1228,0.0834,0.0792,0.06,0.005,0.0,0.0,0.0,0.0,0.0,0.0,0.0,0.0,0.0,0.0,0.0,0.0,0.0,0.0,0.0,0.0,0.0,0.0,0.0,0.0,0.0,0.0,0.0,0.0,0.0,0.0,0.0,0.0,0.0,0.0,0.0,0.0,0.0,0.0,-0.0101,-0.0202,-0.0354,-0.0653,-0.1046,-0.1443,-0.1976,-0.2541,-0.3051,-0.3668,-0.4227,-0.4665,-0.4935,-0.5206,-0.5519,-0.5597,-0.5597,-0.5688,-0.5688,-0.5688,-0.5688,-0.5688,-0.5688,-0.5688,-0.5688,-0.5688,-0.5688,-0.5688,-0.5645,-0.5524,-0.5508,-0.5437,-0.5298,-0.5222,-0.5058,-0.4709,-0.4406,-0.411,-0.3898,-0.3953,-0.4008,-0.399,-0.4199,-0.4262,-0.4141,-0.4138,-0.4092,-0.3966,-0.3749,-0.3666,-0.371,-0.3579,-0.3513,0.0,0.0,0.0,0.0,0.0,0.0,0.0,0.0,0.1435,0.1402,0.1385,0.1381,0.1313,0.1371,0.142,0.1456,0.1503,0.1449,0.1281,0.1284,0.1185,0.0888,0.0801,0.0556,0.0051,0.0,0.0,0.0,0.0,0.0,0.0,0.0,0.0,0.0,0.0,0.0,0.0,0.0,0.0,0.0,0.0,0.0,0.0,0.0,0.0,0.0,0.0,0.0,0.0,0.0,0.0,0.0,0.0,0.0,0.0,0.0,0.0,0.0,0.0,0.0,0.0,0.0,-0.0152,-0.0354,-0.0657,-0.106,-0.1558,-0.2079,-0.2759,-0.3433,-0.3993,-0.4401,-0.486,-0.5395,-0.5489,-0.5494,-0.5676,-0.5704,-0.5688,-0.5688,-0.5688,-0.5688,-0.5688,-0.5688,-0.5688,-0.5688,-0.5688,-0.5653,-0.5556,-0.5543,-0.5497,-0.5417,-0.5273,-0.5075,-0.4794,-0.4235,-0.386,-0.3782,-0.3812,-0.3876,-0.3966,-0.415,-0.4196,-0.4108,-0.4249,-0.4223,-0.4027,-0.384,-0.3769,-0.3806,-0.3652,-0.3614,0.1266,0.1276,0.1301,0.131,0.1232,0.1149,0.0,0.0,0.1252,0.1314,0.1309,0.1346,0.1365,0.1448,0.1489,0.1547,0.1562,0.1577,0.1557,0.1561,0.146,0.1209,0.0757,0.0303,0.0051,0.0,0.0,0.0,0.0,0.0,0.0,0.0,0.0,0.0,0.0,0.0,0.0,0.0,0.0,0.0,0.0,0.0,0.0,0.0,0.0,0.0,0.0,0.0,0.0,0.0,0.0,0.0,0.0,0.0,0.0,0.0,0.0,0.0,0.0,0.0,0.0,0.0,0.0,-0.0101,-0.0354,-0.0656,-0.106,-0.1811,-0.2413,-0.3104,-0.4027,-0.4489,-0.4852,-0.5529,-0.556,-0.5568,-0.5839,-0.5803,-0.5688,-0.5688,-0.5688,-0.5688,-0.5688,-0.5688,-0.5688,-0.5688,-0.5688,-0.5683,-0.5672,-0.5667,-0.5621,-0.5499,-0.5301,-0.4957,-0.4322,-0.4044,-0.3835,-0.3622,-0.3799,-0.3876,-0.3824,-0.3966,-0.4084,-0.4178,-0.4028,-0.3918,-0.385,-0.3616,-0.3542,-0.355,-0.3511,-0.3591,0.1292,0.1254,0.1205,0.0,0.1242,0.1209,0.1239,0.1269,0.1262,0.1345,0.1378,0.1368,0.1454,0.1501,0.159,0.0,0.1586,0.1552,0.1413,0.1364,0.1263,0.101,0.0758,0.0505,0.0253,0.0253,0.0152,0.0,0.0,0.0,0.0,0.0,0.0,0.0,0.0,0.0,0.0,0.0,0.0,0.0,0.0,0.0,0.0,0.0,0.0,0.0,0.0,0.0,0.0,0.0,0.0,0.0,0.0,0.0,0.0,0.0,0.0,0.0,0.0,0.0,0.0,0.0,0.0,0.0,-0.0152,-0.0253,-0.0454,-0.1111,-0.1665,-0.2366,-0.3397,-0.3956,-0.4452,-0.5386,-0.5484,-0.5496,-0.5917,-0.5915,-0.5833,-0.5833,-0.5734,-0.5688,-0.5688,-0.5688,-0.5688,-0.5688,-0.5688,-0.5688,-0.5688,-0.5688,-0.5598,-0.5343,-0.4985,-0.4668,-0.4277,-0.406,-0.3905,-0.3829,-0.3905,-0.3943,-0.385,-0.4042,-0.4071,-0.3979,-0.39,-0.3685,-0.3407,-0.3216,-0.3159,-0.3159,-0.3325,-0.3511,0.1403,0.128,0.0,0.1208,0.1254,0.129,0.132,0.1343,0.1325,0.1397,0.1427,0.1457,0.1487,0.1536,0.1624,0.1682,0.1703,0.1667,0.1566,0.1515,0.1464,0.1262,0.1262,0.1111,0.0758,0.0505,0.0303,0.0101,0.0101,0.0101,0.0101,0.0202,0.0202,0.0202,0.0202,0.0202,0.0101,0.0101,0.0051,0.0,0.0,0.0051,0.0101,0.0202,0.0202,0.0202,0.0202,0.0202,0.0202,0.0202,0.0202,0.0202,0.0202,0.0202,0.0202,0.0152,0.0051,0.0,0.0,0.0,0.0,0.0,0.0,0.0,0.0,0.0,-0.0101,-0.0657,-0.1262,-0.1917,-0.2927,-0.3695,-0.4392,-0.5333,-0.5497,-0.5611,-0.604,-0.604,-0.5945,-0.5909,-0.5836,-0.5726,-0.5694,-0.5688,-0.5688,-0.5688,-0.5688,-0.5688,-0.5688,-0.5644,-0.5476,-0.5082,-0.477,-0.4469,-0.4289,-0.4155,-0.4021,-0.391,-0.3909,-0.3839,-0.3654,-0.3775,-0.3705,-0.336,-0.3358,-0.3117,-0.2596,-0.2559,-0.254,-0.254,-0.2876,-0.3204,0.0,0.0,0.1291,0.1294,0.1301,0.131,0.1381,0.1388,0.1397,0.1383,0.1458,0.1489,0.1519,0.155,0.168,0.1963,0.197,0.2071,0.2321,0.2371,0.2371,0.2371,0.2371,0.212,0.1616,0.0859,0.0404,0.0404,0.0404,0.0404,0.0404,0.0657,0.0758,0.0758,0.0758,0.0657,0.0404,0.0404,0.0253,0.0,0.0,0.0152,0.0404,0.0657,0.0758,0.0758,0.0758,0.0758,0.0758,0.0758,0.0758,0.0758,0.0758,0.0758,0.0758,0.0505,0.0202,0.0,0.0,0.0,0.0,0.0,0.0,0.0,0.0,0.0,-0.0101,-0.0657,-0.1363,-0.2169,-0.2977,-0.3981,-0.4931,-0.5482,-0.575,-0.5966,-0.6214,-0.6168,-0.6045,-0.5926,-0.5899,-0.5863,-0.5707,-0.5688,-0.5688,-0.5688,-0.5688,-0.5688,-0.5688,-0.5552,-0.5238,-0.4746,-0.4701,-0.4572,-0.422,-0.4212,-0.4044,-0.3745,-0.3697,-0.3488,-0.3026,-0.3026,-0.2773,-0.2266,-0.2265,-0.193,-0.1258,-0.1511,-0.1637,-0.1637,-0.2101,-0.2593,0.2196,0.0,0.151,0.1621,0.1488,0.1384,0.1413,0.142,0.1379,0.1388,0.1459,0.153,0.1681,0.1759,0.1939,0.2371,0.2477,0.2636,0.312,0.3176,0.3176,0.3176,0.3024,0.2773,0.2423,0.1667,0.1061,0.0707,0.0657,0.0657,0.0657,0.0758,0.0808,0.0808,0.0808,0.0758,0.0657,0.0657,0.0606,0.0556,0.0556,0.0556,0.0657,0.0758,0.0808,0.0808,0.0808,0.0808,0.0808,0.0808,0.0808,0.0808,0.0808,0.0808,0.0808,0.0707,0.0606,0.0505,0.0101,0.0,0.0,0.0,0.0,0.0,0.0,0.0,-0.0051,-0.0455,-0.101,-0.1716,-0.2675,-0.3479,-0.428,-0.5334,-0.566,-0.5832,-0.6281,-0.6141,-0.5949,-0.591,-0.5698,-0.5474,-0.5319,-0.5299,-0.5275,-0.5248,-0.5371,-0.5508,-0.5508,-0.5151,-0.4882,-0.4705,-0.4525,-0.4378,-0.4259,-0.4257,-0.4156,-0.3866,-0.3687,-0.3401,-0.2835,-0.2665,-0.2348,-0.1808,-0.1513,-0.1093,-0.0589,-0.0554,-0.0644,-0.0816,-0.1265,-0.1763,0.2749,0.2359,0.1937,0.2021,0.1879,0.1676,0.1699,0.1705,0.1705,0.1705,0.1713,0.1773,0.203,0.2092,0.2361,0.3024,0.3185,0.3501,0.4071,0.423,0.4331,0.4331,0.4079,0.3778,0.3428,0.2724,0.1969,0.1162,0.101,0.096,0.096,0.101,0.1061,0.1061,0.1061,0.1061,0.096,0.096,0.0909,0.0808,0.0909,0.096,0.096,0.1061,0.1061,0.1061,0.1061,0.1061,0.1061,0.1061,0.1061,0.1061,0.1061,0.1061,0.1061,0.096,0.096,0.0859,0.0455,0.0303,0.0303,0.0303,0.0202,0.0152,0.0152,0.0101,-0.0051,-0.0303,-0.0808,-0.1413,-0.227,-0.3075,-0.3828,-0.4782,-0.5236,-0.5536,-0.5887,-0.5882,-0.5772,-0.5784,-0.5528,-0.5351,-0.5197,-0.5148,-0.51,-0.5032,-0.5081,-0.5151,-0.5151,-0.4882,-0.4661,-0.4569,-0.4389,-0.4255,-0.4166,-0.4168,-0.3942,-0.3452,-0.3272,-0.285,-0.202,-0.1844,-0.1484,-0.0904,-0.0602,-0.0215,0.0215,0.0218,0.0176,0.0,-0.049,-0.0942,0.3345,0.2938,0.2565,0.2569,0.2431,0.2288,0.224,0.224,0.2239,0.2237,0.22,0.2239,0.2602,0.0,0.2878,0.3824,0.4201,0.4575,0.5175,0.5486,0.5684,0.0,0.0,0.0,0.0,0.0,0.313,0.1821,0.1415,0.1263,0.1263,0.1465,0.1617,0.1617,0.1617,0.1465,0.1212,0.1212,0.1111,0.0859,0.1111,0.1212,0.1212,0.1465,0.1617,0.1617,0.1617,0.1617,0.1617,0.1617,0.1617,0.1617,0.1617,0.1617,0.1566,0.1314,0.1212,0.1162,0.0909,0.0808,0.0808,0.0808,0.0606,0.0404,0.0404,0.0253,0.0,-0.0253,-0.0706,-0.126,-0.1815,-0.2722,-0.3577,-0.3882,-0.4535,-0.514,-0.514,-0.5388,-0.5558,-0.5464,-0.5442,-0.5407,-0.5306,-0.5155,-0.5085,-0.5085,-0.4867,-0.4717,-0.4705,-0.4705,-0.4569,-0.4344,-0.43,-0.4166,-0.3901,-0.3857,-0.3452,-0.2552,-0.2463,-0.1926,-0.0718,-0.0673,-0.0314,0.0403,0.0448,0.0673,0.1121,0.0852,0.0718,0.0718,0.0269,-0.009,0.4564,0.411,0.3745,0.3585,0.339,0.321,0.3119,0.2977,0.2876,0.2915,0.2806,0.2889,0.3476,0.3646,0.0,0.4928,0.5214,0.0,0.6313,0.6442,0.0,0.6492,0.0,0.5887,0.5334,0.4892,0.0,0.3604,0.2644,0.2019,0.1819,0.1869,0.1819,0.1617,0.1617,0.1566,0.1516,0.1516,0.1465,0.1415,0.1465,0.1516,0.1516,0.1566,0.1617,0.1617,0.1617,0.1617,0.1617,0.1617,0.1617,0.1617,0.1617,0.1617,0.1617,0.1516,0.1516,0.1465,0.1415,0.1111,0.0808,0.0808,0.0758,0.0707,0.0707,0.0657,0.0606,0.0505,0.0252,-0.0202,-0.0907,-0.1462,-0.2066,-0.3173,-0.3728,-0.4131,-0.4531,-0.4834,-0.4977,-0.5005,-0.4948,-0.4895,-0.4871,-0.4788,-0.4725,-0.4725,-0.4659,-0.464,-0.4678,-0.4525,-0.4389,-0.43,-0.4123,-0.3901,-0.3678,-0.3361,-0.2913,-0.2332,-0.1749,-0.1165,-0.0493,-0.009,0.0269,0.0628,0.0807,0.0987,0.1121,0.1166,0.1166,0.0987,0.0897,0.0673,0.563,0.5188,0.4803,0.4596,0.4353,0.4089,0.4043,0.3875,0.3751,0.3789,0.3635,0.0,0.4345,0.4453,0.0,0.0,0.0,0.0,0.7059,0.7244,0.7341,0.0,0.7092,0.0,0.6462,0.6011,0.5552,0.5028,0.3687,0.2687,0.2276,0.2173,0.1966,0.1655,0.1655,0.165,0.1637,0.1637,0.163,0.1617,0.1617,0.1617,0.1617,0.1617,0.1617,0.1617,0.1617,0.1617,0.1617,0.1617,0.1617,0.1617,0.1617,0.1617,0.1617,0.1617,0.1617,0.1617,0.1617,0.1415,0.1162,0.1162,0.1061,0.096,0.096,0.0909,0.0808,0.0808,0.0707,0.0454,-0.0101,-0.0454,-0.0908,-0.1765,-0.2369,-0.2821,-0.3274,-0.3726,-0.418,-0.4535,-0.4698,-0.4765,-0.4765,-0.4692,-0.4632,-0.4632,-0.45,-0.444,-0.4478,-0.4338,-0.4207,-0.4127,-0.381,-0.3452,-0.3136,-0.2689,-0.2107,-0.1436,-0.0897,-0.0359,0.0224,0.0538,0.0807,0.0987,0.1166,0.1211,0.1211,0.1345,0.1345,0.1211,0.1211,0.1171,0.6556,0.6209,0.5899,0.568,0.5367,0.5059,0.5046,0.491,0.478,0.4765,0.0,0.4557,0.5211,0.5176,0.5391,0.6496,0.0,0.7127,0.7572,0.7813,0.7968,0.7988,0.7809,0.7673,0.7587,0.7167,0.6711,0.6235,0.4759,0.3583,0.2824,0.2451,0.2131,0.1757,0.1757,0.1743,0.1766,0.1766,0.1698,0.1617,0.1617,0.1617,0.1617,0.1617,0.1617,0.1617,0.1617,0.1617,0.1617,0.1617,0.1617,0.1617,0.1617,0.1617,0.1617,0.1617,0.1617,0.1617,0.1617,0.1617,0.1617,0.1617,0.1465,0.1263,0.1263,0.1111,0.0909,0.0909,0.0909,0.0859,0.0556,0.0354,0.0101,-0.0202,-0.0858,-0.1462,-0.1765,-0.252,-0.3325,-0.4085,-0.4435,-0.4634,-0.4634,-0.4625,-0.4577,-0.4577,-0.4316,-0.4074,-0.4016,-0.3991,-0.3963,-0.3807,-0.3345,-0.2846,-0.2349,-0.1894,-0.1216,-0.036,0.0,0.0448,0.1076,0.1121,0.1211,0.1391,0.1391,0.1391,0.1391,0.1391,0.1393,0.1396,0.1396,0.1457,0.7402,0.7248,0.7136,0.6874,0.6676,0.6495,0.6386,0.5956,0.0,0.0,0.5445,0.5381,0.5991,0.6182,0.6401,0.7004,0.0,0.0,0.7746,0.7803,0.7896,0.0,0.8103,0.8085,0.7849,0.7963,0.0,0.7217,0.6546,0.5427,0.3785,0.3143,0.2611,0.2131,0.2131,0.2113,0.2023,0.2023,0.1902,0.1617,0.1617,0.1617,0.1617,0.1617,0.1617,0.1617,0.1617,0.1617,0.1617,0.1617,0.1617,0.1617,0.1617,0.1617,0.1617,0.1617,0.1617,0.1617,0.1617,0.1617,0.1617,0.1617,0.1566,0.1516,0.1516,0.1516,0.1465,0.1465,0.1465,0.1415,0.1111,0.101,0.0859,0.0354,0.0,-0.0404,-0.0909,-0.1817,-0.2723,-0.3279,-0.363,-0.3828,-0.3828,-0.3971,-0.4064,-0.3812,-0.3751,-0.3524,-0.3031,-0.331,-0.3408,-0.316,-0.2687,-0.2074,-0.1321,-0.0883,-0.0368,0.023,0.0679,0.0987,0.1076,0.1256,0.1345,0.1391,0.1391,0.1391,0.1391,0.1391,0.1448,0.1472,0.1472,0.1489,0.7977,0.7845,0.7801,0.7584,0.7318,0.7101,0.6944,0.0,0.0,0.0,0.5936,0.5916,0.6357,0.0,0.0,0.0,0.0,0.0,0.0,0.0,0.0,0.8133,0.8225,0.833,0.8321,0.8415,0.8415,0.8214,0.7674,0.6496,0.4537,0.3392,0.2737,0.2464,0.2464,0.2432,0.2367,0.2367,0.2231,0.2019,0.1869,0.1819,0.1819,0.1667,0.1617,0.1617,0.1617,0.1617,0.1617,0.1617,0.1617,0.1617,0.1617,0.1617,0.1617,0.1617,0.1617,0.1617,0.1617,0.1617,0.1617,0.1617,0.1617,0.1617,0.1617,0.1617,0.1617,0.1617,0.1617,0.1566,0.1465,0.1415,0.1364,0.1061,0.0707,0.0253,-0.0455,-0.1211,-0.1917,-0.2472,-0.2773,-0.2975,-0.2975,-0.3075,-0.3126,-0.2975,-0.2873,-0.2613,-0.2192,-0.2074,-0.2095,-0.2147,-0.1715,-0.1144,-0.0477,-0.0047,0.0376,0.0799,0.1118,0.1297,0.1297,0.139,0.1436,0.1436,0.1436,0.1436,0.1436,0.1436,0.149,0.1504,0.1504,0.1521,0.8456,0.8332,0.8248,0.8076,0.7781,0.7484,0.7272,0.695,0.0,0.0,0.6267,0.6276,0.6581,0.0,0.6832,0.0,0.7575,0.7816,0.0,0.0,0.0,0.0,0.8484,0.0,0.8843,0.8902,0.8968,0.9082,0.8426,0.7149,0.5089,0.381,0.3029,0.2918,0.2918,0.282,0.2733,0.2669,0.2621,0.2436,0.2175,0.2071,0.2071,0.1869,0.1718,0.1667,0.1667,0.1667,0.1617,0.1617,0.1617,0.1617,0.1617,0.1617,0.1617,0.1617,0.1617,0.1617,0.1617,0.1617,0.1617,0.1617,0.1617,0.1617,0.1617,0.1617,0.1617,0.1617,0.1617,0.1617,0.1617,0.1617,0.1617,0.1617,0.1212,0.0707,0.0,-0.0505,-0.1009,-0.1463,-0.1765,-0.1968,-0.1968,-0.2017,-0.2017,-0.1968,-0.1816,-0.1564,-0.121,-0.0808,-0.0599,-0.0822,-0.0627,-0.0241,0.029,0.0673,0.1007,0.1248,0.1434,0.1478,0.1478,0.1478,0.1478,0.1478,0.1478,0.1478,0.1478,0.1478,0.153,0.1536,0.1536,0.1552,0.886,0.8692,0.8564,0.8524,0.8245,0.7889,0.7757,0.0,0.0,0.6718,0.6503,0.6431,0.6634,0.6851,0.6985,0.0,0.0,0.7731,0.0,0.0,0.0,0.8711,0.0,0.0,0.9494,0.965,0.9688,0.9702,0.8644,0.7199,0.5427,0.4702,0.4089,0.3531,0.3531,0.3391,0.3057,0.3009,0.2797,0.2483,0.239,0.2371,0.2371,0.2321,0.217,0.1971,0.1971,0.1819,0.1617,0.1617,0.1617,0.1617,0.1617,0.1617,0.1617,0.1617,0.1617,0.1617,0.1617,0.1617,0.1617,0.1617,0.1617,0.1617,0.1617,0.1617,0.1617,0.1617,0.1617,0.1617,0.1617,0.1617,0.1617,0.1617,0.1364,0.1061,0.0758,0.0455,0.0151,-0.0151,-0.0404,-0.0606,-0.0606,-0.0807,-0.0857,-0.0606,-0.0555,-0.0353,0.0151,0.0253,0.0454,0.0905,0.0553,0.0502,0.1055,0.1138,0.1273,0.1567,0.1541,0.1478,0.1478,0.1478,0.1478,0.1478,0.1478,0.1478,0.1478,0.1478,0.154,0.1567,0.1567,0.1583,0.9012,0.8822,0.8711,0.8469,0.8207,0.7914,0.7525,0.0,0.6906,0.6587,0.6469,0.644,0.6509,0.6672,0.6879,0.7013,0.7441,0.7782,0.783,0.8249,0.0,0.8795,0.9076,0.0,0.0,0.9716,0.9816,0.9816,0.9368,0.8533,0.7315,0.5871,0.4758,0.4145,0.3923,0.367,0.3335,0.328,0.3169,0.2956,0.2749,0.2623,0.2623,0.2472,0.2321,0.2221,0.2221,0.207,0.1819,0.1819,0.1819,0.1819,0.1819,0.192,0.207,0.207,0.1969,0.1819,0.1819,0.1718,0.1617,0.1617,0.1617,0.1617,0.1617,0.1617,0.1617,0.1617,0.1617,0.1617,0.1617,0.1617,0.1617,0.1617,0.1516,0.1364,0.1111,0.096,0.0808,0.0556,0.0404,0.0303,0.0303,0.0252,0.0202,0.0303,0.0303,0.0455,0.0808,0.0859,0.101,0.1415,0.1111,0.101,0.1415,0.1455,0.1499,0.1598,0.1588,0.1581,0.1581,0.1581,0.1581,0.1581,0.1581,0.1581,0.1581,0.1581,0.1587,0.1598,0.1598,0.1605,0.9382,0.9103,0.8841,0.8535,0.8276,0.7969,0.0,0.7227,0.6987,0.6556,0.6453,0.6387,0.6387,0.6611,0.6845,0.6967,0.749,0.7882,0.7922,0.8446,0.0,0.0,0.0,0.9545,0.9758,0.9934,1.0036,0.9981,0.9871,0.9427,0.854,0.6874,0.5594,0.4814,0.437,0.3958,0.3523,0.345,0.3391,0.3347,0.3063,0.2927,0.2927,0.2725,0.2573,0.2522,0.2522,0.2372,0.2122,0.2122,0.2122,0.2122,0.2122,0.2221,0.2422,0.2422,0.2271,0.2122,0.2122,0.202,0.1818,0.1818,0.1818,0.1818,0.1818,0.1717,0.1617,0.1617,0.1617,0.1617,0.1617,0.1617,0.1617,0.1617,0.1617,0.1566,0.1364,0.1314,0.1263,0.1061,0.1061,0.1061,0.1061,0.1061,0.1061,0.1061,0.1061,0.1111,0.1313,0.1314,0.1415,0.1566,0.1415,0.1415,0.1566,0.1617,0.1617,0.1617,0.1617,0.1617,0.1617,0.1617,0.1617,0.1617,0.1617,0.1617,0.1617,0.1667,0.1718,0.1718,0.1818,0.1818,1.0143,0.9577,0.8882,0.8878,0.8649,0.8282,0.0,0.7545,0.7197,0.6784,0.6548,0.6387,0.6387,0.6743,0.6988,0.6988,0.7549,0.8012,0.8016,0.8641,0.0,0.0,0.0,1.003,1.0346,1.059,1.0582,1.0312,0.9981,0.9427,0.854,0.7654,0.6652,0.5427,0.4814,0.4201,0.3587,0.347,0.3413,0.341,0.3238,0.318,0.318,0.318,0.3029,0.2775,0.2775,0.2623,0.2422,0.2422,0.2422,0.2422,0.2422,0.2422,0.2422,0.2422,0.2422,0.2422,0.2422,0.2371,0.2371,0.2371,0.2371,0.2371,0.2371,0.2019,0.1617,0.1617,0.1617,0.1617,0.1617,0.1617,0.1617,0.1617,0.1617,0.1617,0.1617,0.1617,0.1617,0.1617,0.1617,0.1617,0.1617,0.1617,0.1617,0.1617,0.1617,0.1617,0.1617,0.1617,0.1617,0.1617,0.1617,0.1617,0.1617,0.1617,0.1617,0.1617,0.1617,0.1617,0.1617,0.1617,0.1617,0.1617,0.1617,0.1617,0.1617,0.1869,0.1971,0.2022,0.2271,0.2371,0.9931,0.9591,0.9269,0.9039,0.8758,0.8456,0.8092,0.7707,0.7357,0.7089,0.6876,0.6712,0.6609,0.6776,0.695,0.7003,0.749,0.0,0.0,0.0,0.0,0.9173,0.9596,1.003,1.0346,1.0211,1.0113,1.0066,0.938,0.8776,0.8387,0.711,0.6058,0.5423,0.4764,0.4132,0.3525,0.3409,0.335,0.3349,0.3217,0.318,0.318,0.318,0.313,0.3079,0.3079,0.2927,0.2674,0.2674,0.2674,0.2674,0.2674,0.2775,0.2927,0.2927,0.2826,0.2674,0.2674,0.2573,0.2422,0.2422,0.2422,0.2422,0.2422,0.2171,0.1819,0.1667,0.1617,0.1617,0.1617,0.1617,0.1617,0.1617,0.1617,0.1617,0.1617,0.1617,0.1617,0.1617,0.1617,0.1617,0.1617,0.1617,0.1617,0.1617,0.1617,0.1617,0.1617,0.1617,0.1617,0.1617,0.1617,0.1617,0.1617,0.1617,0.1617,0.1617,0.1617,0.1617,0.1617,0.1617,0.1617,0.1617,0.1617,0.1667,0.187,0.1971,0.2071,0.2271,0.2371,0.2522,0.0,0.9929,0.96,0.9384,0.9127,0.8817,0.8459,0.8074,0.7716,0.7372,0.7138,0.6975,0.6811,0.6958,0.7158,0.7273,0.7774,0.0,0.0,0.0,0.0,0.9283,0.0,0.9977,1.0205,0.9979,0.9737,0.9621,0.8853,0.8154,0.7594,0.646,0.5581,0.4996,0.4463,0.3952,0.3465,0.3369,0.3322,0.332,0.3209,0.318,0.318,0.318,0.318,0.318,0.318,0.313,0.0,0.2927,0.2927,0.2927,0.2927,0.3029,0.318,0.318,0.3079,0.2927,0.2927,0.2826,0.2724,0.2724,0.2724,0.2674,0.2573,0.2372,0.2121,0.1969,0.1919,0.1919,0.1919,0.1919,0.1919,0.1919,0.1919,0.1919,0.1919,0.1919,0.1919,0.1919,0.1818,0.1768,0.1768,0.1768,0.1768,0.1768,0.1768,0.1768,0.1768,0.1667,0.1617,0.1718,0.1768,0.1768,0.1868,0.1819,0.1819,0.1918,0.1919,0.1919,0.1919,0.1919,0.1919,0.1919,0.1919,0.1969,0.2171,0.2272,0.2424,0.2724,0.2724,0.2775,0.0,1.0501,0.9916,0.9933,0.9689,0.9344,0.8978,0.8604,0.0,0.7723,0.7428,0.7209,0.703,0.7271,0.7588,0.779,0.8308,0.0,0.0,0.9241,0.0,0.0,0.9766,0.9922,0.9884,0.9773,0.9503,0.8933,0.8302,0.7512,0.6413,0.5826,0.5088,0.4305,0.3981,0.3717,0.3406,0.3345,0.3315,0.3315,0.3207,0.318,0.318,0.318,0.318,0.318,0.318,0.318,0.318,0.318,0.318,0.318,0.318,0.318,0.318,0.318,0.318,0.318,0.318,0.318,0.318,0.318,0.318,0.313,0.2927,0.2623,0.2422,0.2422,0.2422,0.2422,0.2422,0.2422,0.2422,0.2422,0.2422,0.2422,0.2422,0.2422,0.2422,0.2422,0.2222,0.2021,0.2021,0.2021,0.2021,0.2021,0.2021,0.2021,0.2021,0.1819,0.1768,0.2021,0.2021,0.2122,0.2422,0.2171,0.2122,0.2371,0.2422,0.2422,0.2422,0.2422,0.2422,0.2422,0.2422,0.2422,0.2422,0.2674,0.2977,0.318,0.318,0.318,1.0856,0.0,1.0067,1.0134,0.9971,0.9744,0.0,0.9212,0.8793,0.0,0.0,0.0,0.7769,0.7801,0.7915,0.8012,0.0,0.8818,0.9165,0.0,0.0,0.9895,0.9958,0.9938,0.9922,0.9396,0.8946,0.8768,0.7544,0.6562,0.5982,0.4937,0.4213,0.3909,0.3553,0.3347,0.3342,0.3282,0.3201,0.3201,0.3187,0.318,0.318,0.318,0.318,0.318,0.318,0.318,0.318,0.318,0.318,0.318,0.318,0.318,0.318,0.318,0.318,0.318,0.318,0.318,0.318,0.318,0.318,0.318,0.313,0.2927,0.2674,0.2472,0.2422,0.2422,0.2422,0.2422,0.2422,0.2422,0.2422,0.2422,0.2422,0.2422,0.2422,0.2422,0.2371,0.2321,0.2321,0.2321,0.2321,0.2321,0.2321,0.2321,0.2321,0.227,0.222,0.2321,0.2321,0.2423,0.2674,0.2472,0.2321,0.2422,0.2422,0.2422,0.2422,0.2422,0.2422,0.2422,0.2623,0.2724,0.2724,0.2977,0.313,0.318,0.318,0.318,1.083,1.0557,1.0367,1.0587,1.0417,1.0211,1.0113,0.0,0.0,0.0,0.0,0.0,0.0,0.0,0.0,0.0,0.9,0.0,0.0,0.0,1.0241,1.0203,1.0167,1.0156,1.0154,0.9528,0.9015,0.8607,0.7325,0.6213,0.5364,0.451,0.3849,0.3532,0.3297,0.3196,0.3279,0.3196,0.318,0.318,0.318,0.318,0.318,0.318,0.318,0.318,0.318,0.318,0.318,0.318,0.318,0.318,0.318,0.318,0.318,0.318,0.318,0.318,0.318,0.318,0.318,0.318,0.318,0.318,0.318,0.3079,0.2977,0.2826,0.2775,0.2775,0.2775,0.2775,0.2775,0.2775,0.2775,0.2775,0.2775,0.2775,0.2775,0.2775,0.2674,0.2573,0.2573,0.2573,0.2573,0.2573,0.2573,0.2573,0.2573,0.2472,0.2472,0.2573,0.2573,0.2674,0.2977,0.2826,0.2775,0.2775,0.2775,0.2775,0.2775,0.2775,0.2775,0.2775,0.2927,0.2977,0.2977,0.313,0.318,0.318,0.318,0.318,1.098,1.0836,1.0828,1.1115,1.098,1.0759,1.0599,0.0,0.0,0.0,0.0,0.0,0.0,0.0,0.0,0.0,0.0,0.0,1.0536,1.0537,1.0507,1.0462,1.0458,1.0462,1.0413,0.992,0.9278,0.8531,0.7431,0.6232,0.4983,0.4334,0.3783,0.3281,0.323,0.318,0.318,0.318,0.318,0.318,0.318,0.318,0.318,0.318,0.318,0.318,0.318,0.318,0.318,0.318,0.318,0.318,0.318,0.318,0.318,0.318,0.318,0.318,0.318,0.318,0.318,0.318,0.318,0.318,0.318,0.318,0.318,0.318,0.318,0.318,0.318,0.318,0.318,0.318,0.318,0.318,0.318,0.318,0.318,0.318,0.3027,0.2876,0.2876,0.2876,0.2876,0.2876,0.2876,0.2876,0.2876,0.2674,0.2623,0.2826,0.2876,0.2977,0.318,0.318,0.318,0.318,0.318,0.318,0.318,0.318,0.318,0.318,0.318,0.318,0.318,0.318,0.318,0.318,0.318,0.318,1.1495,1.1548,1.1591,1.1464,1.1607,1.1776,1.1742,0.0,0.0,0.0,0.0,0.0,0.0,0.9697,0.9462,0.0,0.0,1.0787,1.0834,1.0974,1.0998,1.0757,1.0757,1.0659,1.0408,0.992,0.9377,0.8775,0.7528,0.6431,0.5536,0.4533,0.3833,0.3534,0.3332,0.318,0.318,0.318,0.318,0.318,0.318,0.318,0.318,0.318,0.318,0.318,0.318,0.318,0.318,0.318,0.318,0.318,0.318,0.318,0.318,0.318,0.318,0.318,0.318,0.318,0.318,0.318,0.318,0.318,0.318,0.318,0.318,0.318,0.318,0.318,0.318,0.318,0.318,0.318,0.318,0.318,0.318,0.318,0.318,0.318,0.318,0.313,0.313,0.313,0.313,0.313,0.313,0.313,0.313,0.3079,0.3079,0.313,0.313,0.318,0.318,0.318,0.318,0.318,0.318,0.318,0.318,0.318,0.318,0.318,0.318,0.318,0.318,0.318,0.318,0.318,0.318,0.318,1.189,1.2179,1.2483,1.2402,1.2248,1.2153,1.2153,0.0,0.0,0.0,0.0,0.0,0.0,0.0,1.0129,1.0569,0.0,1.0934,1.1042,1.1137,1.1145,1.1047,1.1002,1.0949,1.085,1.0462,0.9965,0.9266,0.812,0.6977,0.5882,0.4933,0.4183,0.3636,0.3484,0.3332,0.318,0.318,0.318,0.318,0.318,0.318,0.318,0.318,0.318,0.318,0.318,0.318,0.318,0.318,0.318,0.318,0.318,0.318,0.318,0.318,0.318,0.318,0.318,0.318,0.318,0.318,0.318,0.318,0.318,0.318,0.318,0.318,0.318,0.318,0.318,0.318,0.318,0.318,0.318,0.318,0.318,0.318,0.318,0.318,0.318,0.318,0.318,0.318,0.318,0.318,0.318,0.318,0.318,0.318,0.318,0.318,0.318,0.318,0.318,0.318,0.318,0.318,0.318,0.318,0.318,0.318,0.318,0.318,0.318,0.318,0.318,0.318,0.318,0.318,0.318,0.318,1.2205,1.2567,1.294,1.3101,1.2916,1.274,1.2751,0.0,0.0,0.0,0.0,0.0,0.0,1.0611,0.0,1.0858,1.0934,1.1019,1.1175,1.1194,1.1194,1.1194,1.1194,1.1194,1.1194,1.0949,1.0507,0.9858,0.8817,0.7673,0.6528,0.5534,0.4686,0.3987,0.3786,0.3583,0.3281,0.3281,0.3281,0.318,0.318,0.318,0.318,0.318,0.318,0.318,0.318,0.318,0.318,0.318,0.318,0.318,0.318,0.318,0.318,0.318,0.318,0.318,0.318,0.318,0.318,0.318,0.318,0.318,0.318,0.318,0.318,0.318,0.318,0.318,0.318,0.318,0.318,0.318,0.318,0.318,0.318,0.318,0.318,0.318,0.318,0.318,0.318,0.318,0.318,0.318,0.318,0.318,0.318,0.318,0.318,0.318,0.318,0.318,0.318,0.318,0.318,0.318,0.318,0.318,0.318,0.318,0.318,0.318,0.318,0.318,0.318,0.318,0.318,0.318,0.318,0.318,1.2385,1.2468,1.2507,1.3144,1.3635,0.0,1.4149,1.3992,0.0,1.3628,0.0,0.0,0.0,1.1275,1.0886,1.0906,1.1052,1.1179,1.1194,1.1194,1.1194,1.1194,1.1194,1.1194,1.1194,1.0949,1.0654,1.0359,0.9369,0.8474,0.7872,0.6381,0.5386,0.509,0.4384,0.3835,0.3586,0.3584,0.3433,0.318,0.318,0.318,0.318,0.318,0.318,0.318,0.318,0.318,0.318,0.318,0.318,0.318,0.318,0.318,0.318,0.318,0.318,0.318,0.318,0.318,0.318,0.318,0.318,0.318,0.318,0.318,0.318,0.318,0.318,0.318,0.318,0.318,0.318,0.318,0.318,0.318,0.318,0.318,0.318,0.318,0.318,0.318,0.318,0.318,0.318,0.318,0.318,0.318,0.318,0.318,0.318,0.318,0.318,0.318,0.318,0.318,0.318,0.318,0.318,0.318,0.318,0.318,0.318,0.318,0.318,0.318,0.318,0.318,0.318,0.318,0.318,0.318,1.2455,1.2838,1.3161,1.3421,0.0,0.0,0.0,1.425,1.4207,1.3961,1.3541,0.0,0.0,0.0,1.0934,1.1047,1.1146,1.1194,1.1194,1.1194,1.1194,1.1194,1.1194,1.1194,1.1194,1.1096,1.0953,1.0654,0.9965,0.9221,0.8524,0.7428,0.6481,0.5734,0.5085,0.4537,0.4088,0.3935,0.3734,0.3433,0.3281,0.318,0.318,0.318,0.318,0.318,0.318,0.318,0.318,0.318,0.318,0.318,0.318,0.318,0.318,0.318,0.318,0.318,0.318,0.3331,0.3433,0.3433,0.3684,0.3935,0.3732,0.3833,0.3885,0.3534,0.3433,0.3433,0.323,0.318,0.318,0.318,0.318,0.318,0.318,0.318,0.318,0.318,0.318,0.318,0.318,0.318,0.318,0.318,0.318,0.318,0.318,0.318,0.318,0.318,0.318,0.318,0.318,0.318,0.318,0.318,0.318,0.318,0.318,0.318,0.318,0.318,0.318,0.318,0.318,0.318,0.318,0.318,0.318,0.318,1.2431,1.2933,1.3338,0.0,0.0,0.0,1.4765,1.484,1.4805,1.4461,1.3952,1.3279,1.2193,0.0,0.0,1.1165,1.1194,1.1194,1.1194,1.1194,1.1194,1.1194,1.1194,1.1194,1.1194,1.1194,1.1096,1.0949,1.0507,0.9965,0.932,0.8474,0.7577,0.6678,0.5937,0.529,0.464,0.4384,0.4085,0.3736,0.3533,0.3381,0.318,0.318,0.318,0.318,0.318,0.318,0.318,0.318,0.318,0.318,0.318,0.318,0.318,0.318,0.318,0.323,0.3281,0.3484,0.3734,0.3935,0.4288,0.4638,0.4535,0.4585,0.4589,0.4187,0.4036,0.3935,0.3633,0.3381,0.318,0.318,0.318,0.318,0.318,0.318,0.318,0.318,0.318,0.318,0.318,0.318,0.318,0.318,0.318,0.318,0.318,0.318,0.318,0.318,0.318,0.318,0.318,0.318,0.318,0.318,0.318,0.318,0.318,0.318,0.318,0.318,0.318,0.318,0.318,0.318,0.318,0.318,0.318,0.318,1.2312,1.2606,1.2798,0.0,0.0,0.0,1.5475,1.5865,1.5838,1.5319,1.4135,1.2963,1.2183,1.1609,1.1297,1.1214,1.1194,1.1194,1.1194,1.1194,1.1194,1.1194,1.1194,1.1194,1.1194,1.1194,1.1194,1.1194,1.0949,1.0708,1.0413,0.9369,0.8574,0.8024,0.698,0.6037,0.524,0.4937,0.4533,0.4033,0.3982,0.3732,0.318,0.318,0.318,0.318,0.318,0.318,0.318,0.318,0.318,0.318,0.318,0.318,0.318,0.318,0.318,0.323,0.3534,0.3784,0.4083,0.4634,0.4987,0.529,0.5536,0.5438,0.524,0.519,0.5037,0.4734,0.4487,0.3835,0.323,0.323,0.318,0.318,0.318,0.318,0.318,0.318,0.318,0.318,0.318,0.318,0.318,0.318,0.318,0.318,0.318,0.318,0.318,0.318,0.318,0.318,0.318,0.318,0.318,0.318,0.318,0.318,0.318,0.318,0.318,0.318,0.318,0.318,0.318,0.318,0.318,0.318,0.318,0.318,1.2678,1.3132,0.0,1.4186,0.0,0.0,0.0,1.6171,0.0,0.0,1.5026,1.4027,1.3205,1.2357,1.1711,1.1526,1.134,1.1194,1.1194,1.1194,1.1194,1.1194,1.1194,1.1194,1.1194,1.1194,1.1194,1.1194,1.1145,1.0949,1.0708,1.0212,0.9517,0.8574,0.773,0.6833,0.6037,0.5388,0.4887,0.4583,0.4386,0.3986,0.3484,0.3484,0.3383,0.318,0.318,0.318,0.318,0.318,0.318,0.318,0.318,0.318,0.318,0.318,0.3332,0.3534,0.3784,0.4286,0.4937,0.5484,0.6084,0.6639,0.6686,0.6686,0.6539,0.6139,0.5839,0.5589,0.5336,0.4937,0.4437,0.3685,0.3484,0.3433,0.323,0.318,0.318,0.318,0.318,0.318,0.318,0.318,0.318,0.318,0.318,0.318,0.318,0.318,0.318,0.318,0.318,0.318,0.318,0.318,0.318,0.318,0.318,0.318,0.318,0.318,0.318,0.318,0.318,0.318,0.318,0.318,0.3281,0.3484,0.3484,0.3583,1.2798,1.333,0.0,1.4489,1.5386,1.6211,1.6753,0.0,0.0,0.0,1.571,1.4758,1.395,1.3039,1.2273,1.1829,1.1541,1.134,1.1194,1.1194,1.1194,1.1194,1.1194,1.1194,1.1194,1.1194,1.1194,1.1194,1.1194,1.1145,1.0949,1.0703,1.0162,0.9324,0.8474,0.763,0.6736,0.6039,0.5486,0.5135,0.4839,0.4487,0.4086,0.3835,0.3633,0.3332,0.323,0.318,0.318,0.318,0.318,0.318,0.318,0.318,0.323,0.3332,0.3533,0.3835,0.4286,0.4987,0.5789,0.6431,0.7132,0.7686,0.7783,0.7783,0.7587,0.7285,0.6989,0.6739,0.6484,0.6187,0.5689,0.4539,0.4088,0.3887,0.3734,0.3533,0.3383,0.3383,0.3281,0.318,0.318,0.318,0.318,0.318,0.318,0.318,0.318,0.318,0.318,0.318,0.318,0.318,0.318,0.318,0.318,0.318,0.318,0.318,0.318,0.318,0.318,0.318,0.318,0.318,0.318,0.3331,0.3433,0.3586,0.3685,0.3835,1.2846,0.0,0.0,1.4694,1.5483,0.0,1.7465,1.7356,1.7073,1.708,0.0,1.5343,1.458,1.3769,1.2953,1.2224,1.1878,1.159,1.1292,1.1243,1.1243,1.1194,1.1194,1.1194,1.1194,1.1194,1.1194,1.1194,1.1194,1.1194,1.1194,1.0949,1.0605,1.0068,0.9274,0.8379,0.7338,0.6736,0.6184,0.5684,0.5388,0.5138,0.4834,0.4284,0.3883,0.3635,0.3381,0.3281,0.3281,0.3281,0.3281,0.323,0.3281,0.3281,0.3281,0.3534,0.3835,0.4183,0.4989,0.5789,0.6587,0.7431,0.8081,0.8531,0.8775,0.868,0.8482,0.8482,0.8336,0.8038,0.7832,0.7534,0.7036,0.5789,0.4989,0.4539,0.4489,0.4088,0.3736,0.3736,0.3533,0.3331,0.3331,0.3331,0.3281,0.323,0.323,0.318,0.318,0.318,0.318,0.318,0.318,0.318,0.318,0.318,0.318,0.318,0.323,0.323,0.323,0.323,0.318,0.318,0.323,0.323,0.323,0.3484,0.3635,0.3685,0.3934,0.4083,0.0,1.3934,0.0,0.0,1.6467,1.7573,1.8381,1.8356,1.8064,1.7613,1.7052,1.6426,1.5635,1.4682,1.3769,1.3001,1.2516,1.2073,1.1585,1.1487,1.1438,1.1243,1.1194,1.1194,1.1194,1.1194,1.1194,1.1194,1.1194,1.1194,1.1194,1.1145,1.085,1.0314,0.976,0.9019,0.8134,0.7385,0.6736,0.6237,0.5939,0.5689,0.5386,0.4638,0.4185,0.3934,0.3833,0.3831,0.3831,0.3831,0.3682,0.3534,0.3732,0.3682,0.3534,0.3833,0.4234,0.4734,0.5532,0.6334,0.7185,0.8226,0.8779,0.9084,0.9327,0.9232,0.9084,0.9282,0.9133,0.8935,0.8882,0.868,0.8329,0.7832,0.6639,0.5541,0.514,0.4939,0.4788,0.4585,0.4483,0.4384,0.4187,0.4137,0.3986,0.3584,0.3332,0.318,0.318,0.318,0.318,0.318,0.318,0.318,0.318,0.318,0.318,0.318,0.3383,0.3534,0.3534,0.3332,0.318,0.318,0.3383,0.3534,0.3534,0.3784,0.4034,0.4237,0.4485,0.4736,0.0,0.0,0.0,1.584,0.0,1.7998,1.8669,1.8743,1.8558,1.828,1.7753,1.7145,1.6622,1.5818,1.4908,1.3998,1.3329,1.2705,1.2078,1.1878,1.1688,1.1438,1.1389,1.134,1.1194,1.1194,1.1194,1.1194,1.1194,1.1194,1.1194,1.1194,1.0998,1.0609,1.0207,0.9661,0.8973,0.8329,0.7683,0.7138,0.6789,0.6389,0.5937,0.5037,0.4437,0.4185,0.4033,0.3982,0.3982,0.3982,0.3934,0.3784,0.3932,0.3934,0.3835,0.4234,0.4734,0.5334,0.6234,0.7182,0.8081,0.8928,0.9476,0.9826,0.992,0.9871,0.9826,0.992,0.9871,0.9723,0.9628,0.9476,0.9324,0.9031,0.7832,0.6686,0.6387,0.6037,0.5737,0.5584,0.5336,0.5135,0.4987,0.4786,0.4386,0.3885,0.3583,0.3332,0.323,0.3332,0.3383,0.3383,0.3482,0.3581,0.3581,0.3581,0.3581,0.3581,0.3734,0.3784,0.3784,0.3632,0.3581,0.3581,0.3734,0.3784,0.3784,0.4085,0.4336,0.4585,0.4887,0.5138,0.0,0.0,0.0,0.0,1.7254,0.0,1.8589,1.8742,1.8781,1.8781,1.828,1.7768,1.7473,1.6857,1.6096,1.5086,1.4328,1.3565,1.2754,1.237,1.2078,1.1785,1.1688,1.1536,1.1296,1.1292,1.1243,1.1194,1.1194,1.1194,1.1194,1.1194,1.11,1.09,1.0609,1.0207,0.9756,0.9266,0.873,0.8187,0.7686,0.7135,0.6584,0.5634,0.5037,0.464,0.4384,0.4284,0.4284,0.4234,0.4183,0.4133,0.4133,0.4133,0.4183,0.4684,0.5236,0.5884,0.6936,0.7932,0.8874,0.9476,1.0019,1.0413,1.0413,1.0413,1.0413,1.0462,1.0462,1.0413,1.0216,1.0117,1.0068,0.9826,0.8874,0.8028,0.7928,0.7332,0.6883,0.6833,0.6384,0.5984,0.5934,0.5434,0.4834,0.4284,0.3935,0.3635,0.3381,0.3533,0.3685,0.3685,0.3883,0.3982,0.3982,0.3982,0.3982,0.3982,0.4033,0.4083,0.4133,0.4183,0.4234,0.4284,0.4133,0.4083,0.4133,0.4386,0.4688,0.4935,0.5188,0.5438,0.0,0.0,0.0,0.0,1.7254,1.7918,0.0,0.0,1.8781,0.0,1.8566,1.8288,1.804,1.752,1.6897,1.6143,1.5527,1.4813,1.3854,1.3286,1.2807,1.237,1.2078,1.1834,1.159,1.1536,1.1438,1.1198,1.1194,1.1194,1.1194,1.1194,1.1194,1.1145,1.0904,1.0609,1.031,0.9969,0.9571,0.9019,0.8478,0.7982,0.7431,0.7036,0.6489,0.5792,0.5486,0.5386,0.5386,0.5138,0.4887,0.4684,0.4684,0.4684,0.4734,0.5037,0.5639,0.6434,0.7232,0.8077,0.8924,0.9719,1.0167,1.0413,1.0413,1.0413,1.0462,1.0654,1.0752,1.0757,1.0703,1.0708,1.0605,1.0364,1.0162,0.9813,0.9118,0.8916,0.8768,0.8524,0.8024,0.7624,0.7381,0.6478,0.5682,0.5138,0.464,0.4187,0.3932,0.3932,0.3932,0.3932,0.3984,0.3982,0.3982,0.3982,0.3982,0.3982,0.4236,0.4437,0.4684,0.4937,0.5138,0.5386,0.4688,0.4437,0.4684,0.4937,0.5238,0.5484,0.5789,0.5892,1.2568,0.0,0.0,0.0,1.6818,1.7334,1.7882,1.812,1.824,1.824,1.8308,1.8415,1.8465,1.8234,1.7761,1.7131,1.648,1.5771,1.486,1.4196,1.3576,1.3087,1.2657,1.2322,1.2078,1.1927,1.1731,1.1438,1.1438,1.134,1.1194,1.1194,1.1194,1.1194,1.1096,1.0949,1.0855,1.0556,1.0162,0.9669,0.9274,0.8928,0.8726,0.8425,0.763,0.6434,0.5989,0.5839,0.5789,0.5539,0.5336,0.5286,0.5436,0.5489,0.5539,0.5942,0.6489,0.7182,0.7978,0.8775,0.9571,1.0261,1.0605,1.0855,1.0855,1.0855,1.085,1.0998,1.0998,1.0998,1.085,1.09,1.0949,1.0708,1.0757,1.0752,1.0404,0.9961,0.9571,0.9324,0.9076,0.8825,0.8524,0.7875,0.7129,0.6431,0.5732,0.5085,0.4533,0.4433,0.4433,0.4433,0.4585,0.4736,0.4885,0.4885,0.4885,0.4885,0.4987,0.5135,0.5236,0.5336,0.5486,0.5584,0.5236,0.5135,0.5233,0.5386,0.5539,0.5839,0.5942,0.6092,0.0,0.0,0.0,1.5671,1.6317,1.6915,0.0,0.0,1.7814,1.7814,1.7985,1.8247,1.851,1.8579,1.8419,1.7986,1.7372,1.6723,1.6008,1.5242,1.4573,1.404,1.3576,1.3098,1.2705,1.2462,1.2175,1.1829,1.1683,1.1487,1.1292,1.1243,1.1194,1.1194,1.1194,1.1194,1.1194,1.0998,1.0654,1.0216,1.0019,0.9871,0.9772,0.9521,0.8768,0.7577,0.6836,0.6489,0.6389,0.6037,0.5887,0.5937,0.6139,0.6239,0.6342,0.6839,0.7385,0.7978,0.8673,0.9422,1.0167,1.0659,1.0998,1.1194,1.1194,1.1194,1.1194,1.1194,1.1194,1.1145,1.0949,1.1047,1.1145,1.0949,1.1047,1.1194,1.1194,1.0708,1.0265,1.0068,0.9969,0.9821,0.9567,0.9072,0.8425,0.7624,0.6877,0.6132,0.5334,0.5135,0.5085,0.5035,0.5188,0.5388,0.5584,0.5586,0.5586,0.5586,0.5586,0.5636,0.5687,0.5687,0.5737,0.5784,0.5784,0.5787,0.5687,0.5687,0.5839,0.6089,0.6089,0.6189,0.0,1.3819,0.0,1.4927,0.0,0.0,0.0,0.0,1.7814,1.7814,1.783,1.7846,1.787,1.8375,1.8697,1.8481,1.8187,1.7846,1.7279,1.6574,1.5906,1.5337,1.4873,1.4298,1.3516,1.319,1.2856,1.237,1.1883,1.1585,1.159,1.1345,1.1194,1.1194,1.1194,1.1194,1.1194,1.1194,1.1047,1.0752,1.0752,1.0609,1.0364,1.0068,0.992,0.9772,0.8485,0.7736,0.7481,0.6939,0.6745,0.6742,0.6734,0.6933,0.7185,0.7434,0.8077,0.8775,0.9069,0.9715,1.0413,1.0703,1.0998,1.1194,1.1194,1.1194,1.1194,1.1194,1.1194,1.1194,1.1194,1.1194,1.1194,1.1194,1.1194,1.1194,1.1194,1.1145,1.1145,1.1096,1.09,1.0659,1.0359,0.9912,0.9262,0.8482,0.7882,0.7232,0.6434,0.6089,0.5842,0.5586,0.5586,0.5584,0.5584,0.5586,0.5586,0.5586,0.5586,0.5737,0.5992,0.5992,0.6089,0.6337,0.6337,0.6239,0.5992,0.5992,0.6139,0.6387,0.6387,0.6387,0.0,0.0,0.0,1.4825,1.5369,1.5807,1.6452,1.6676,1.6833,1.7056,1.7286,1.7496,1.7496,1.8017,1.8448,1.8358,1.8371,1.8234,1.7846,1.7279,1.681,1.6473,1.5812,1.5283,1.4991,1.4478,1.3817,1.3184,1.2754,1.2268,1.1634,1.1487,1.1394,1.1194,1.1194,1.1194,1.1194,1.1194,1.1145,1.1051,1.1051,1.0998,1.09,1.0806,1.0654,1.0462,0.9817,0.9072,0.8326,0.7985,0.7836,0.7836,0.8028,0.8226,0.8524,0.8779,0.9175,0.962,0.9862,1.0261,1.0703,1.0949,1.1096,1.1194,1.1194,1.1194,1.1194,1.1194,1.1194,1.1194,1.1194,1.1194,1.1194,1.1194,1.1194,1.1194,1.1194,1.1194,1.1194,1.1194,1.1096,1.1047,1.0949,1.0605,1.0207,0.9768,0.8924,0.8077,0.7282,0.6637,0.6139,0.5889,0.5839,0.5939,0.6087,0.6137,0.6137,0.6137,0.6137,0.6137,0.6239,0.6239,0.6287,0.6387,0.6387,0.6337,0.6239,0.6239,0.6287,0.6387,0.6387,0.6387,1.2349,0.0,0.0,0.0,0.0,1.5166,1.5834,1.5981,1.6134,1.6444,1.6746,1.6961,1.7072,1.7572,1.8033,1.8263,1.8366,1.8425,1.835,1.7994,1.7613,1.7419,1.6803,1.6372,1.6224,1.5534,1.4777,1.4088,1.348,1.2759,1.2029,1.1731,1.1487,1.1194,1.1194,1.1194,1.1194,1.1194,1.1194,1.1194,1.1194,1.1194,1.1194,1.1194,1.1096,1.09,1.0752,1.0113,0.9175,0.8928,0.8779,0.8832,0.9076,0.932,0.9517,0.9772,1.0019,1.0314,1.0462,1.0703,1.0949,1.1145,1.1194,1.1194,1.1194,1.1194,1.1194,1.1194,1.1194,1.1194,1.1194,1.1194,1.1194,1.1194,1.1194,1.1194,1.1194,1.1194,1.1194,1.1194,1.1194,1.1194,1.1194,1.1047,1.085,1.056,0.9768,0.8924,0.8127,0.7282,0.6686,0.6292,0.6192,0.6189,0.6387,0.6387,0.6387,0.6387,0.6387,0.6387,0.6387,0.6387,0.6387,0.6387,0.6387,0.6387,0.6387,0.6387,0.6387,0.6387,0.6387,0.6387,0.0,0.0,0.0,0.0,0.0,0.0,1.4919,1.5306,1.5745,1.6103,1.619,1.6309,1.6618,1.7016,1.7485,1.816,1.8287,1.8422,1.8734,1.8612,1.8427,1.8133,1.7908,1.7527,1.7091,1.6298,1.5635,1.5146,1.3908,1.305,1.2813,1.2029,1.1487,1.1243,1.1194,1.1194,1.1194,1.1194,1.1194,1.1194,1.1194,1.1194,1.1194,1.1194,1.1194,1.1194,1.1194,1.0752,1.0019,0.9723,0.9628,0.9677,0.992,1.0019,1.0068,1.0314,1.0605,1.0806,1.0806,1.0998,1.1194,1.1194,1.1194,1.1194,1.1194,1.1194,1.1194,1.1194,1.1194,1.1194,1.1194,1.1194,1.1194,1.1194,1.1194,1.1194,1.1194,1.1194,1.1194,1.1194,1.1194,1.1194,1.1194,1.1194,1.1096,1.0855,1.0364,0.9719,0.8924,0.8127,0.7434,0.6892,0.6589,0.6387,0.6387,0.6387,0.6387,0.6387,0.6387,0.6387,0.6387,0.6387,0.6387,0.6387,0.6387,0.6387,0.6387,0.6387,0.6387,0.6387,0.6387,0.6387,1.23,0.0,0.0,0.0,0.0,0.0,1.4648,1.4832,1.503,1.5396,1.5856,1.6238,1.6333,1.6643,1.7032,1.7485,1.7977,1.8422,1.8734,1.8735,1.8697,1.8596,1.8419,1.8241,1.8094,1.7207,1.6353,1.5663,1.4573,1.3624,1.2861,1.2029,1.159,1.1487,1.1292,1.1194,1.1194,1.1194,1.1194,1.1194,1.1194,1.1194,1.1194,1.1194,1.1194,1.1194,1.1194,1.1047,1.0855,1.056,1.0462,1.0462,1.0556,1.0708,1.09,1.0949,1.1047,1.1096,1.1096,1.1149,1.1194,1.1194,1.1194,1.1194,1.1194,1.1194,1.1194,1.1194,1.1194,1.1194,1.1194,1.1194,1.1194,1.1194,1.1194,1.1194,1.1194,1.1194,1.1194,1.1194,1.1194,1.1194,1.1194,1.1194,1.1145,1.1096,1.0605,1.0064,0.946,0.8673,0.7882,0.7188,0.6842,0.6589,0.6437,0.6387,0.6387,0.6387,0.6387,0.6387,0.6387,0.6387,0.6387,0.6387,0.6387,0.6387,0.6387,0.6387,0.6387,0.6387,0.6387,0.6387,1.2494,1.2713,0.0,1.3678,0.0,0.0,1.4156,1.431,1.4486,1.4879,1.532,1.57,1.585,1.6158,1.6505,1.6909,1.7474,1.8049,1.8533,1.8686,1.8781,1.8781,1.8697,1.8566,1.8527,1.7675,1.6864,1.619,1.5105,1.3968,1.2861,1.237,1.1932,1.159,1.1438,1.1292,1.1194,1.1194,1.1194,1.1194,1.1194,1.1194,1.1194,1.1194,1.1194,1.1194,1.1194,1.1194,1.1194,1.1047,1.0949,1.0949,1.0949,1.1047,1.1194,1.1194,1.1194,1.1194,1.1194,1.1194,1.1194,1.1194,1.1194,1.1194,1.1194,1.1194,1.1194,1.1194,1.1194,1.1194,1.1194,1.1194,1.1194,1.1194,1.1194,1.1194,1.1194,1.1194,1.1194,1.1194,1.1194,1.1194,1.1194,1.1194,1.1194,1.1194,1.085,1.0408,1.001,0.9221,0.8478,0.7783,0.7338,0.7039,0.6736,0.6736,0.6736,0.6736,0.6736,0.6736,0.6736,0.6736,0.6736,0.6736,0.6736,0.6736,0.6736,0.6487,0.6387,0.6387,0.6387,0.6387,1.2826,1.3086,0.0,1.3536,1.3647,0.0,1.3586,1.3841,1.4153,1.4395,1.4652,1.4931,1.5242,1.5521,1.5894,1.6293,1.6818,1.7426,1.8192,1.8573,1.8742,1.8781,1.8781,1.8743,1.8574,1.7807,1.7192,1.677,1.5493,1.4256,1.305,1.2953,1.2516,1.178,1.1688,1.1536,1.1243,1.1194,1.1194,1.1194,1.1194,1.1194,1.1194,1.1194,1.1194,1.1194,1.1194,1.1194,1.1194,1.1194,1.1194,1.1194,1.1194,1.1194,1.1194,1.1194,1.1194,1.1194,1.1194,1.1194,1.1194,1.1194,1.1194,1.1194,1.1194,1.1194,1.1194,1.1194,1.1194,1.1194,1.1194,1.1194,1.1194,1.1194,1.1194,1.1194,1.1194,1.1194,1.1194,1.1194,1.1194,1.1194,1.1194,1.1194,1.1194,1.1194,1.0998,1.0752,1.0462,0.9813,0.9118,0.8577,0.8028,0.763,0.7335,0.7288,0.7288,0.7288,0.7288,0.7288,0.7288,0.7288,0.7288,0.7288,0.7288,0.7288,0.7288,0.6736,0.6487,0.6487,0.6487,0.6487,1.3005,1.3289,1.3566,1.4081,1.4097,0.0,1.3516,1.3667,1.3769,1.3446,1.3958,1.4434,1.4494,1.4666,1.4949,1.5453,1.5834,1.6592,1.8071,1.8359,1.851,1.8796,1.8781,1.8781,1.8743,1.804,1.7567,1.7505,1.6096,1.501,1.4352,1.3715,1.3184,1.2807,1.2224,1.178,1.1536,1.1292,1.1194,1.1194,1.1194,1.1194,1.1194,1.1194,1.1194,1.1194,1.1194,1.1194,1.1194,1.1194,1.1194,1.1194,1.1194,1.1194,1.1194,1.1194,1.1194,1.1194,1.1194,1.1194,1.1194,1.1194,1.1194,1.1194,1.1194,1.1194,1.1194,1.1194,1.1194,1.1194,1.1194,1.1194,1.1194,1.1194,1.1194,1.1194,1.1194,1.1194,1.1194,1.1194,1.1194,1.1194,1.1194,1.1194,1.1194,1.1194,1.1145,1.1047,1.0752,1.0408,0.9961,0.9414,0.8871,0.8478,0.8184,0.7988,0.7839,0.7839,0.7839,0.7839,0.7839,0.7839,0.7839,0.7839,0.7839,0.7839,0.7839,0.7288,0.7036,0.7036,0.7036,0.6939,1.3178,1.3437,1.3733,1.4032,1.3966,0.0,0.0,1.3575,1.3577,1.3355,1.3602,1.3822,1.3587,1.3842,1.4125,1.4163,1.4722,1.558,1.6748,1.7469,1.7979,1.8108,1.8258,1.833,1.8367,1.7735,1.7175,1.6843,1.6253,1.5645,1.5049,1.4642,1.4142,1.3528,1.2899,1.2316,1.1785,1.1683,1.1541,1.1389,1.1541,1.1585,1.1585,1.1585,1.1541,1.1389,1.1389,1.134,1.1194,1.1194,1.1194,1.1194,1.1194,1.1194,1.1194,1.1194,1.1194,1.1194,1.1194,1.1194,1.1194,1.1194,1.1194,1.1194,1.1194,1.1194,1.1194,1.1194,1.1194,1.1194,1.1194,1.1194,1.1194,1.1194,1.1194,1.1194,1.1194,1.1292,1.1389,1.1389,1.1487,1.1487,1.1243,1.1194,1.1194,1.1194,1.1194,1.1145,1.1002,1.0757,1.0458,1.006,0.9616,0.9274,0.9027,0.8882,0.8783,0.8783,0.8931,0.8981,0.8981,0.9126,0.9175,0.9175,0.9175,0.9175,0.9175,0.8924,0.8379,0.7587,0.7587,0.7437,1.3611,1.3724,1.39,1.393,1.3813,1.364,0.0,0.0,0.0,1.3292,1.3335,1.3245,1.2785,1.3033,1.3191,1.2877,1.3495,1.4284,1.4967,1.6102,1.6969,1.7363,1.7604,1.7758,1.7864,1.7424,1.6859,1.6146,1.6449,1.6348,1.5706,1.5705,1.5289,1.4382,1.3715,1.3044,1.2316,1.217,1.1927,1.1683,1.1883,1.198,1.198,1.198,1.1883,1.1683,1.1683,1.1536,1.134,1.134,1.134,1.134,1.1243,1.1194,1.1194,1.1194,1.1194,1.1194,1.1194,1.1194,1.1194,1.1194,1.1194,1.1194,1.1194,1.1194,1.1194,1.1194,1.1194,1.1194,1.1243,1.1292,1.1292,1.134,1.134,1.134,1.134,1.1536,1.1683,1.1683,1.1834,1.1878,1.1438,1.134,1.134,1.134,1.134,1.134,1.134,1.1145,1.0949,1.0708,1.0462,1.0216,1.0019,0.9924,0.992,0.992,1.0117,1.0216,1.0216,1.0462,1.0556,1.0556,1.0556,1.0556,1.0556,1.0556,0.9817,0.8485,0.8386,0.8233,1.46,1.4393,1.4263,1.4375,1.4237,1.3825,1.3078,0.0,1.3315,1.2599,0.0,1.2802,1.2352,0.0,0.0,1.2161,1.2291,1.2656,1.3444,1.3992,1.5012,1.6934,1.7394,1.7628,1.7783,1.7751,1.7473,1.6911,1.7258,1.7304,1.6994,1.6872,1.6567,1.5954,1.4997,1.4136,1.3318,1.2705,1.2224,1.1932,1.198,1.198,1.198,1.198,1.1975,1.1932,1.1932,1.1932,1.1927,1.1927,1.1927,1.1878,1.1389,1.1194,1.1194,1.1194,1.1194,1.1194,1.1194,1.1194,1.1194,1.1194,1.1194,1.1194,1.1194,1.1194,1.1194,1.1194,1.1194,1.1243,1.1487,1.1536,1.159,1.1834,1.1927,1.1927,1.1927,1.1932,1.1932,1.1932,1.198,1.1975,1.1932,1.1927,1.1927,1.1927,1.1927,1.1927,1.1927,1.1883,1.1834,1.1829,1.159,1.1389,1.1394,1.1145,1.1002,1.1002,1.1047,1.1047,1.1047,1.1096,1.1096,1.1096,1.1096,1.1096,1.1096,1.1096,1.0752,1.0117,0.9871,0.962,1.5026,1.4713,1.4422,1.4231,1.3985,1.3628,1.3133,1.3179,1.323,1.2892,0.0,0.0,0.0,0.0,0.0,0.0,1.1725,1.2007,1.2589,1.2754,1.3491,1.5212,1.6004,1.6578,1.7109,1.7358,1.7312,1.6853,1.738,1.7596,1.7337,1.7514,1.7372,1.6857,1.6001,1.5188,1.4376,1.3811,1.3286,1.2888,1.2851,1.2856,1.2856,1.271,1.2565,1.2467,1.2322,1.2127,1.198,1.198,1.198,1.198,1.1731,1.159,1.1389,1.1247,1.1194,1.1194,1.1194,1.1194,1.1194,1.1194,1.1194,1.1194,1.1194,1.1194,1.1194,1.1194,1.1292,1.1443,1.159,1.1731,1.1878,1.198,1.198,1.198,1.198,1.2127,1.2273,1.2419,1.2565,1.271,1.2856,1.237,1.198,1.198,1.198,1.198,1.198,1.198,1.198,1.198,1.1883,1.1829,1.1829,1.1736,1.1683,1.1683,1.198,1.2175,1.2316,1.2462,1.2511,1.2511,1.2511,1.2511,1.2511,1.2365,1.217,1.1927,1.1096,1.0556,1.5873,1.5327,1.4858,1.4357,1.3865,1.3469,1.3107,1.3019,1.3025,1.294,1.288,0.0,0.0,0.0,1.1929,1.1403,0.0,1.1536,1.1815,1.1822,1.2345,1.3867,1.4885,1.5737,1.634,1.677,1.6873,1.657,1.7239,1.7632,1.7509,1.79,1.7987,1.766,1.699,1.6278,1.5514,1.5003,1.443,1.3896,1.3769,1.3678,1.3582,1.334,1.3152,1.2958,1.2813,1.2565,1.2419,1.2419,1.237,1.2322,1.2224,1.2078,1.178,1.1536,1.1443,1.1443,1.1443,1.1389,1.1296,1.1243,1.1194,1.1194,1.1194,1.1194,1.1198,1.1292,1.1438,1.1634,1.178,1.198,1.2127,1.2224,1.2224,1.2224,1.2273,1.2467,1.2662,1.2958,1.3104,1.3249,1.3491,1.2905,1.2419,1.2419,1.2419,1.2419,1.2419,1.2419,1.2419,1.2419,1.2419,1.2419,1.2419,1.2419,1.2419,1.2419,1.2759,1.3055,1.3195,1.3394,1.3491,1.3491,1.3491,1.3491,1.3491,1.3298,1.3195,1.3195,1.2024,1.1438,1.7401,1.6568,1.5684,1.497,1.4232,1.35,1.2706,1.2575,1.2554,1.2301,1.2437,1.2474,1.1995,1.177,1.1556,1.1329,1.1106,0.0,0.0,1.0978,1.1605,1.3404,1.4496,1.5281,1.5705,1.6031,1.6238,1.6222,1.6889,1.7437,1.7755,1.812,1.835,1.8465,1.7939,1.7404,1.6835,1.6129,1.5466,1.4949,1.4484,1.4148,1.3859,1.363,1.3491,1.3491,1.3491,1.3443,1.3443,1.3443,1.3298,1.305,1.2861,1.2619,1.2322,1.2078,1.198,1.198,1.198,1.1785,1.1536,1.1292,1.1194,1.1194,1.1194,1.1194,1.1243,1.1487,1.1585,1.1731,1.2224,1.237,1.2467,1.271,1.2764,1.2813,1.3001,1.305,1.3152,1.3443,1.3491,1.3491,1.3491,1.3491,1.3443,1.3443,1.3443,1.3443,1.3443,1.3443,1.3443,1.3443,1.3443,1.3443,1.3443,1.3443,1.3443,1.3443,1.3491,1.3491,1.3491,1.3491,1.3491,1.3491,1.3491,1.3491,1.3491,1.3491,1.3491,1.3491,1.271,1.237,1.8539,1.7664,1.6758,1.5913,1.4907,1.396,1.3514,1.324,1.3071,1.3061,1.3241,1.332,1.3019,1.2767,1.2489,1.2146,1.152,1.1121,0.0,1.1086,1.1403,1.2407,1.3587,1.4614,1.5412,1.5715,1.5952,1.619,1.6651,1.7167,1.7783,1.8105,1.8417,1.8689,1.8373,1.804,1.7699,1.7084,1.6567,1.6055,1.5534,1.5064,1.4694,1.4256,1.3919,1.3738,1.3588,1.3491,1.3491,1.3491,1.3443,1.3346,1.3298,1.3201,1.3055,1.2273,1.198,1.198,1.198,1.1927,1.1834,1.178,1.1736,1.1736,1.1736,1.1736,1.1731,1.1834,1.198,1.2224,1.257,1.2759,1.2953,1.3201,1.3249,1.3298,1.3346,1.3346,1.3443,1.369,1.3738,1.3835,1.4016,1.401,1.3919,1.3539,1.3491,1.3491,1.3491,1.3491,1.3491,1.3491,1.3491,1.3491,1.3491,1.3491,1.3491,1.3491,1.369,1.3738,1.3738,1.3919,1.401,1.401,1.401,1.401,1.401,1.3829,1.3738,1.3738,1.3346,1.3152,1.9627,1.8778,1.7904,1.7185,1.6029,1.5009,1.4636,1.4129,1.3764,1.3846,1.3967,1.3974,1.3777,1.3449,1.3096,1.2784,1.1982,1.1375,0.0,1.0997,1.1156,1.1767,1.2851,0.0,1.4797,1.5243,1.5594,1.5825,1.6277,1.6794,1.7374,1.785,1.8271,1.8629,1.8634,1.8512,1.8365,1.7947,1.752,1.7145,1.6534,1.5967,1.5452,1.4879,1.4454,1.4172,1.3919,1.3775,1.3775,1.3775,1.3732,1.3636,1.3636,1.3588,1.3443,1.2759,1.2467,1.237,1.2322,1.2224,1.2127,1.2029,1.2073,1.2127,1.2127,1.2224,1.2273,1.2273,1.2467,1.271,1.2861,1.305,1.3292,1.3443,1.3491,1.3539,1.3636,1.3636,1.3738,1.3973,1.4022,1.4118,1.425,1.4298,1.4202,1.3823,1.3775,1.3775,1.3775,1.3775,1.3775,1.3775,1.3775,1.3775,1.3775,1.3775,1.3775,1.3775,1.3973,1.4022,1.4022,1.4208,1.4298,1.4298,1.4298,1.4298,1.4298,1.4118,1.4022,1.4022,1.3871,1.3775]}]]